<?xml version="1.0" encoding="UTF-8" standalone="no" ?>
<gpx xmlns="http://www.topografix.com/GPX/1/1" xmlns:xsi="http://www.w3.org/2001/XMLSchema-instance" xsi:schemaLocation="http://www.topografix.com/GPX/1/1 http://www.topografix.com/GPX/1/1/gpx.xsd" version="1.1" creator="VisuGPX - https://www.visugpx.com">
  <metadata>
    <name>Château-Arnoux-Saint-Auban VTT électrique</name>
    <desc><![CDATA[un mélange 4 14 13  christian,vincent,bruno,gerard,paps/2,jean-michel]]></desc>
  </metadata>
  <trk>
    <name><![CDATA[Château-Arnoux-Saint-Auban VTT électrique]]></name>
    <trkseg>
      <trkpt lat="44.09529" lon="5.99963">
        <ele>504.39999389648</ele>
        <time>2022-01-18T17:03:32.000Z</time>
      </trkpt>
      <trkpt lat="44.09526" lon="5.99959">
        <ele>504.39999389648</ele>
        <time>2022-01-18T17:03:32.002Z</time>
      </trkpt>
      <trkpt lat="44.09517" lon="5.99935">
        <ele>504.39999389648</ele>
        <time>2022-01-18T17:03:32.010Z</time>
      </trkpt>
      <trkpt lat="44.09489" lon="5.99879">
        <ele>504.39999389648</ele>
        <time>2022-01-18T17:03:32.035Z</time>
      </trkpt>
      <trkpt lat="44.09482" lon="5.99856">
        <ele>513.20001220703</ele>
        <time>2022-01-18T17:03:32.067Z</time>
      </trkpt>
      <trkpt lat="44.09471" lon="5.99718">
        <ele>513.20001220703</ele>
        <time>2022-01-18T17:03:32.134Z</time>
      </trkpt>
      <trkpt lat="44.09463" lon="5.99671">
        <ele>513.20001220703</ele>
        <time>2022-01-18T17:03:32.213Z</time>
      </trkpt>
      <trkpt lat="44.09453" lon="5.99625">
        <ele>527.59997558594</ele>
        <time>2022-01-18T17:03:32.304Z</time>
      </trkpt>
      <trkpt lat="44.0942" lon="5.99565">
        <ele>527.59997558594</ele>
        <time>2022-01-18T17:03:32.414Z</time>
      </trkpt>
      <trkpt lat="44.094" lon="5.9951">
        <ele>533.20001220703</ele>
        <time>2022-01-18T17:03:32.539Z</time>
      </trkpt>
      <trkpt lat="44.09388" lon="5.99485">
        <ele>533.20001220703</ele>
        <time>2022-01-18T17:03:32.672Z</time>
      </trkpt>
      <trkpt lat="44.09377" lon="5.99466">
        <ele>533.59997558594</ele>
        <time>2022-01-18T17:03:32.811Z</time>
      </trkpt>
      <trkpt lat="44.09339" lon="5.99418">
        <ele>533.59997558594</ele>
        <time>2022-01-18T17:03:32.968Z</time>
      </trkpt>
      <trkpt lat="44.0931" lon="5.99362">
        <ele>533.59997558594</ele>
        <time>2022-01-18T17:03:33.142Z</time>
      </trkpt>
      <trkpt lat="44.0929" lon="5.9933">
        <ele>533.59997558594</ele>
        <time>2022-01-18T17:03:33.327Z</time>
      </trkpt>
      <trkpt lat="44.09274" lon="5.99299">
        <ele>536.20001220703</ele>
        <time>2022-01-18T17:03:33.522Z</time>
      </trkpt>
      <trkpt lat="44.09268" lon="5.99279">
        <ele>536.20001220703</ele>
        <time>2022-01-18T17:03:33.722Z</time>
      </trkpt>
      <trkpt lat="44.09262" lon="5.99241">
        <ele>536.20001220703</ele>
        <time>2022-01-18T17:03:33.932Z</time>
      </trkpt>
      <trkpt lat="44.09261" lon="5.99196">
        <ele>536.20001220703</ele>
        <time>2022-01-18T17:03:34.153Z</time>
      </trkpt>
      <trkpt lat="44.09263" lon="5.99005">
        <ele>536.20001220703</ele>
        <time>2022-01-18T17:03:34.422Z</time>
      </trkpt>
      <trkpt lat="44.09266" lon="5.98974">
        <ele>540</ele>
        <time>2022-01-18T17:03:34.699Z</time>
      </trkpt>
      <trkpt lat="44.0927" lon="5.98961">
        <ele>540</ele>
        <time>2022-01-18T17:03:34.979Z</time>
      </trkpt>
      <trkpt lat="44.09277" lon="5.98951">
        <ele>539.20001220703</ele>
        <time>2022-01-18T17:03:35.263Z</time>
      </trkpt>
      <trkpt lat="44.09286" lon="5.98946">
        <ele>539.20001220703</ele>
        <time>2022-01-18T17:03:35.550Z</time>
      </trkpt>
      <trkpt lat="44.09309" lon="5.9894">
        <ele>539.20001220703</ele>
        <time>2022-01-18T17:03:35.846Z</time>
      </trkpt>
      <trkpt lat="44.09316" lon="5.98934">
        <ele>539.20001220703</ele>
        <time>2022-01-18T17:03:36.144Z</time>
      </trkpt>
      <trkpt lat="44.09329" lon="5.98926">
        <ele>539.20001220703</ele>
        <time>2022-01-18T17:03:36.447Z</time>
      </trkpt>
      <trkpt lat="44.09353" lon="5.98919">
        <ele>548</ele>
        <time>2022-01-18T17:03:36.759Z</time>
      </trkpt>
      <trkpt lat="44.09363" lon="5.98918">
        <ele>549.40002441406</ele>
        <time>2022-01-18T17:03:37.075Z</time>
      </trkpt>
      <trkpt lat="44.09367" lon="5.98916">
        <ele>549.40002441406</ele>
        <time>2022-01-18T17:03:37.392Z</time>
      </trkpt>
      <trkpt lat="44.09396" lon="5.98881">
        <ele>551.20001220703</ele>
        <time>2022-01-18T17:03:37.722Z</time>
      </trkpt>
      <trkpt lat="44.0946" lon="5.98825">
        <ele>557.20001220703</ele>
        <time>2022-01-18T17:03:38.079Z</time>
      </trkpt>
      <trkpt lat="44.09485" lon="5.98797">
        <ele>557.20001220703</ele>
        <time>2022-01-18T17:03:38.447Z</time>
      </trkpt>
      <trkpt lat="44.09501" lon="5.98764">
        <ele>557.20001220703</ele>
        <time>2022-01-18T17:03:38.825Z</time>
      </trkpt>
      <trkpt lat="44.09526" lon="5.98688">
        <ele>557.20001220703</ele>
        <time>2022-01-18T17:03:39.224Z</time>
      </trkpt>
      <trkpt lat="44.09532" lon="5.98677">
        <ele>563.20001220703</ele>
        <time>2022-01-18T17:03:39.626Z</time>
      </trkpt>
      <trkpt lat="44.0954" lon="5.98665">
        <ele>563.20001220703</ele>
        <time>2022-01-18T17:03:40.033Z</time>
      </trkpt>
      <trkpt lat="44.09582" lon="5.9862">
        <ele>564.79998779297</ele>
        <time>2022-01-18T17:03:40.458Z</time>
      </trkpt>
      <trkpt lat="44.096" lon="5.9859">
        <ele>564.59997558594</ele>
        <time>2022-01-18T17:03:40.893Z</time>
      </trkpt>
      <trkpt lat="44.09612" lon="5.98566">
        <ele>564.59997558594</ele>
        <time>2022-01-18T17:03:41.335Z</time>
      </trkpt>
      <trkpt lat="44.09627" lon="5.98544">
        <ele>564.59997558594</ele>
        <time>2022-01-18T17:03:41.785Z</time>
      </trkpt>
      <trkpt lat="44.09653" lon="5.98523">
        <ele>570</ele>
        <time>2022-01-18T17:03:42.245Z</time>
      </trkpt>
      <trkpt lat="44.09659" lon="5.9852">
        <ele>570</ele>
        <time>2022-01-18T17:03:42.708Z</time>
      </trkpt>
      <trkpt lat="44.09666" lon="5.98522">
        <ele>570</ele>
        <time>2022-01-18T17:03:43.173Z</time>
      </trkpt>
      <trkpt lat="44.09689" lon="5.98511">
        <ele>570</ele>
        <time>2022-01-18T17:03:43.647Z</time>
      </trkpt>
      <trkpt lat="44.09706" lon="5.98508">
        <ele>576</ele>
        <time>2022-01-18T17:03:44.126Z</time>
      </trkpt>
      <trkpt lat="44.09726" lon="5.985">
        <ele>576</ele>
        <time>2022-01-18T17:03:44.613Z</time>
      </trkpt>
      <trkpt lat="44.09732" lon="5.98495">
        <ele>578.40002441406</ele>
        <time>2022-01-18T17:03:45.102Z</time>
      </trkpt>
      <trkpt lat="44.09734" lon="5.9849">
        <ele>578.40002441406</ele>
        <time>2022-01-18T17:03:45.593Z</time>
      </trkpt>
      <trkpt lat="44.0974" lon="5.98484">
        <ele>578.40002441406</ele>
        <time>2022-01-18T17:03:46.086Z</time>
      </trkpt>
      <trkpt lat="44.09744" lon="5.98482">
        <ele>580.40002441406</ele>
        <time>2022-01-18T17:03:46.581Z</time>
      </trkpt>
      <trkpt lat="44.09758" lon="5.98489">
        <ele>579.59997558594</ele>
        <time>2022-01-18T17:03:47.081Z</time>
      </trkpt>
      <trkpt lat="44.09771" lon="5.98487">
        <ele>580.20001220703</ele>
        <time>2022-01-18T17:03:47.585Z</time>
      </trkpt>
      <trkpt lat="44.09775" lon="5.98481">
        <ele>580.20001220703</ele>
        <time>2022-01-18T17:03:48.092Z</time>
      </trkpt>
      <trkpt lat="44.09773" lon="5.98468">
        <ele>582.20001220703</ele>
        <time>2022-01-18T17:03:48.602Z</time>
      </trkpt>
      <trkpt lat="44.09777" lon="5.98468">
        <ele>582.20001220703</ele>
        <time>2022-01-18T17:03:49.113Z</time>
      </trkpt>
      <trkpt lat="44.09783" lon="5.98463">
        <ele>583.40002441406</ele>
        <time>2022-01-18T17:03:49.627Z</time>
      </trkpt>
      <trkpt lat="44.098" lon="5.9846">
        <ele>583.40002441406</ele>
        <time>2022-01-18T17:03:50.147Z</time>
      </trkpt>
      <trkpt lat="44.09816" lon="5.98467">
        <ele>583.40002441406</ele>
        <time>2022-01-18T17:03:50.673Z</time>
      </trkpt>
      <trkpt lat="44.09854" lon="5.98455">
        <ele>583.40002441406</ele>
        <time>2022-01-18T17:03:51.212Z</time>
      </trkpt>
      <trkpt lat="44.0985" lon="5.98445">
        <ele>587.20001220703</ele>
        <time>2022-01-18T17:03:51.754Z</time>
      </trkpt>
      <trkpt lat="44.09842" lon="5.98443">
        <ele>587.20001220703</ele>
        <time>2022-01-18T17:03:52.299Z</time>
      </trkpt>
      <trkpt lat="44.09836" lon="5.98448">
        <ele>587.20001220703</ele>
        <time>2022-01-18T17:03:52.846Z</time>
      </trkpt>
      <trkpt lat="44.09829" lon="5.98442">
        <ele>586.59997558594</ele>
        <time>2022-01-18T17:03:53.396Z</time>
      </trkpt>
      <trkpt lat="44.09818" lon="5.98437">
        <ele>586.59997558594</ele>
        <time>2022-01-18T17:03:53.950Z</time>
      </trkpt>
      <trkpt lat="44.09814" lon="5.98433">
        <ele>586.59997558594</ele>
        <time>2022-01-18T17:03:54.506Z</time>
      </trkpt>
      <trkpt lat="44.09824" lon="5.98415">
        <ele>587.20001220703</ele>
        <time>2022-01-18T17:03:55.068Z</time>
      </trkpt>
      <trkpt lat="44.09828" lon="5.98413">
        <ele>587.20001220703</ele>
        <time>2022-01-18T17:03:55.631Z</time>
      </trkpt>
      <trkpt lat="44.09839" lon="5.98411">
        <ele>588.59997558594</ele>
        <time>2022-01-18T17:03:56.198Z</time>
      </trkpt>
      <trkpt lat="44.09861" lon="5.98401">
        <ele>589.79998779297</ele>
        <time>2022-01-18T17:03:56.773Z</time>
      </trkpt>
      <trkpt lat="44.09912" lon="5.98384">
        <ele>589.79998779297</ele>
        <time>2022-01-18T17:03:57.367Z</time>
      </trkpt>
      <trkpt lat="44.09919" lon="5.98384">
        <ele>593</ele>
        <time>2022-01-18T17:03:57.963Z</time>
      </trkpt>
      <trkpt lat="44.09921" lon="5.98388">
        <ele>593.20001220703</ele>
        <time>2022-01-18T17:03:58.560Z</time>
      </trkpt>
      <trkpt lat="44.09933" lon="5.98398">
        <ele>593.40002441406</ele>
        <time>2022-01-18T17:03:59.162Z</time>
      </trkpt>
      <trkpt lat="44.09936" lon="5.98387">
        <ele>593.40002441406</ele>
        <time>2022-01-18T17:03:59.767Z</time>
      </trkpt>
      <trkpt lat="44.09945" lon="5.98372">
        <ele>593.40002441406</ele>
        <time>2022-01-18T17:04:00.377Z</time>
      </trkpt>
      <trkpt lat="44.0993" lon="5.98361">
        <ele>593.40002441406</ele>
        <time>2022-01-18T17:04:00.993Z</time>
      </trkpt>
      <trkpt lat="44.09926" lon="5.98343">
        <ele>595.20001220703</ele>
        <time>2022-01-18T17:04:01.613Z</time>
      </trkpt>
      <trkpt lat="44.09928" lon="5.98338">
        <ele>596</ele>
        <time>2022-01-18T17:04:02.235Z</time>
      </trkpt>
      <trkpt lat="44.09998" lon="5.98311">
        <ele>600.40002441406</ele>
        <time>2022-01-18T17:04:02.882Z</time>
      </trkpt>
      <trkpt lat="44.10056" lon="5.98294">
        <ele>600.40002441406</ele>
        <time>2022-01-18T17:04:03.550Z</time>
      </trkpt>
      <trkpt lat="44.10056" lon="5.98289">
        <ele>604.59997558594</ele>
        <time>2022-01-18T17:04:04.219Z</time>
      </trkpt>
      <trkpt lat="44.10049" lon="5.98285">
        <ele>605.20001220703</ele>
        <time>2022-01-18T17:04:04.890Z</time>
      </trkpt>
      <trkpt lat="44.10032" lon="5.98277">
        <ele>605.20001220703</ele>
        <time>2022-01-18T17:04:05.568Z</time>
      </trkpt>
      <trkpt lat="44.09994" lon="5.98282">
        <ele>602.79998779297</ele>
        <time>2022-01-18T17:04:06.259Z</time>
      </trkpt>
      <trkpt lat="44.09977" lon="5.9829">
        <ele>602.79998779297</ele>
        <time>2022-01-18T17:04:06.956Z</time>
      </trkpt>
      <trkpt lat="44.0996" lon="5.98296">
        <ele>602.79998779297</ele>
        <time>2022-01-18T17:04:07.659Z</time>
      </trkpt>
      <trkpt lat="44.09921" lon="5.98307">
        <ele>602.79998779297</ele>
        <time>2022-01-18T17:04:08.376Z</time>
      </trkpt>
      <trkpt lat="44.09881" lon="5.98327">
        <ele>595.40002441406</ele>
        <time>2022-01-18T17:04:09.108Z</time>
      </trkpt>
      <trkpt lat="44.0986" lon="5.9833">
        <ele>595.40002441406</ele>
        <time>2022-01-18T17:04:09.847Z</time>
      </trkpt>
      <trkpt lat="44.09856" lon="5.98329">
        <ele>593.79998779297</ele>
        <time>2022-01-18T17:04:10.588Z</time>
      </trkpt>
      <trkpt lat="44.09851" lon="5.98325">
        <ele>593.79998779297</ele>
        <time>2022-01-18T17:04:11.331Z</time>
      </trkpt>
      <trkpt lat="44.09846" lon="5.98318">
        <ele>593.79998779297</ele>
        <time>2022-01-18T17:04:12.076Z</time>
      </trkpt>
      <trkpt lat="44.09851" lon="5.98319">
        <ele>592.79998779297</ele>
        <time>2022-01-18T17:04:12.823Z</time>
      </trkpt>
      <trkpt lat="44.09858" lon="5.98308">
        <ele>593.59997558594</ele>
        <time>2022-01-18T17:04:13.574Z</time>
      </trkpt>
      <trkpt lat="44.09862" lon="5.98301">
        <ele>593.59997558594</ele>
        <time>2022-01-18T17:04:14.327Z</time>
      </trkpt>
      <trkpt lat="44.09863" lon="5.98287">
        <ele>595.79998779297</ele>
        <time>2022-01-18T17:04:15.083Z</time>
      </trkpt>
      <trkpt lat="44.09857" lon="5.98276">
        <ele>595.59997558594</ele>
        <time>2022-01-18T17:04:15.843Z</time>
      </trkpt>
      <trkpt lat="44.09844" lon="5.98258">
        <ele>595.59997558594</ele>
        <time>2022-01-18T17:04:16.609Z</time>
      </trkpt>
      <trkpt lat="44.09829" lon="5.9825">
        <ele>596.59997558594</ele>
        <time>2022-01-18T17:04:17.381Z</time>
      </trkpt>
      <trkpt lat="44.09817" lon="5.98253">
        <ele>598</ele>
        <time>2022-01-18T17:04:18.157Z</time>
      </trkpt>
      <trkpt lat="44.09805" lon="5.98253">
        <ele>598</ele>
        <time>2022-01-18T17:04:18.937Z</time>
      </trkpt>
      <trkpt lat="44.09766" lon="5.98238">
        <ele>599.40002441406</ele>
        <time>2022-01-18T17:04:19.731Z</time>
      </trkpt>
      <trkpt lat="44.09746" lon="5.98228">
        <ele>600.59997558594</ele>
        <time>2022-01-18T17:04:20.533Z</time>
      </trkpt>
      <trkpt lat="44.09739" lon="5.98221">
        <ele>600.59997558594</ele>
        <time>2022-01-18T17:04:21.338Z</time>
      </trkpt>
      <trkpt lat="44.09698" lon="5.98166">
        <ele>605</ele>
        <time>2022-01-18T17:04:22.163Z</time>
      </trkpt>
      <trkpt lat="44.09691" lon="5.98149">
        <ele>605</ele>
        <time>2022-01-18T17:04:22.993Z</time>
      </trkpt>
      <trkpt lat="44.09697" lon="5.98128">
        <ele>605</ele>
        <time>2022-01-18T17:04:23.828Z</time>
      </trkpt>
      <trkpt lat="44.09702" lon="5.98125">
        <ele>608.40002441406</ele>
        <time>2022-01-18T17:04:24.665Z</time>
      </trkpt>
      <trkpt lat="44.09713" lon="5.98124">
        <ele>608.40002441406</ele>
        <time>2022-01-18T17:04:25.506Z</time>
      </trkpt>
      <trkpt lat="44.09738" lon="5.98109">
        <ele>608.40002441406</ele>
        <time>2022-01-18T17:04:26.357Z</time>
      </trkpt>
      <trkpt lat="44.09755" lon="5.98108">
        <ele>615.79998779297</ele>
        <time>2022-01-18T17:04:27.214Z</time>
      </trkpt>
      <trkpt lat="44.09768" lon="5.9811">
        <ele>617.20001220703</ele>
        <time>2022-01-18T17:04:28.075Z</time>
      </trkpt>
      <trkpt lat="44.09793" lon="5.9812">
        <ele>617.20001220703</ele>
        <time>2022-01-18T17:04:28.945Z</time>
      </trkpt>
      <trkpt lat="44.09798" lon="5.9812">
        <ele>619.79998779297</ele>
        <time>2022-01-18T17:04:29.817Z</time>
      </trkpt>
      <trkpt lat="44.09801" lon="5.98116">
        <ele>619.79998779297</ele>
        <time>2022-01-18T17:04:30.690Z</time>
      </trkpt>
      <trkpt lat="44.098" lon="5.98108">
        <ele>620.40002441406</ele>
        <time>2022-01-18T17:04:31.565Z</time>
      </trkpt>
      <trkpt lat="44.09782" lon="5.98041">
        <ele>620.40002441406</ele>
        <time>2022-01-18T17:04:32.458Z</time>
      </trkpt>
      <trkpt lat="44.09758" lon="5.97999">
        <ele>620.40002441406</ele>
        <time>2022-01-18T17:04:33.365Z</time>
      </trkpt>
      <trkpt lat="44.09759" lon="5.9799">
        <ele>620.40002441406</ele>
        <time>2022-01-18T17:04:34.274Z</time>
      </trkpt>
      <trkpt lat="44.09795" lon="5.97935">
        <ele>620.40002441406</ele>
        <time>2022-01-18T17:04:35.202Z</time>
      </trkpt>
      <trkpt lat="44.09819" lon="5.97903">
        <ele>620.40002441406</ele>
        <time>2022-01-18T17:04:36.141Z</time>
      </trkpt>
      <trkpt lat="44.09834" lon="5.97875">
        <ele>620.40002441406</ele>
        <time>2022-01-18T17:04:37.089Z</time>
      </trkpt>
      <trkpt lat="44.09841" lon="5.97834">
        <ele>644.20001220703</ele>
        <time>2022-01-18T17:04:38.048Z</time>
      </trkpt>
      <trkpt lat="44.0985" lon="5.97815">
        <ele>644.20001220703</ele>
        <time>2022-01-18T17:04:39.012Z</time>
      </trkpt>
      <trkpt lat="44.09871" lon="5.97783">
        <ele>644.20001220703</ele>
        <time>2022-01-18T17:04:39.987Z</time>
      </trkpt>
      <trkpt lat="44.09894" lon="5.97719">
        <ele>644.20001220703</ele>
        <time>2022-01-18T17:04:40.980Z</time>
      </trkpt>
      <trkpt lat="44.09915" lon="5.97643">
        <ele>655</ele>
        <time>2022-01-18T17:04:41.994Z</time>
      </trkpt>
      <trkpt lat="44.09922" lon="5.97622">
        <ele>655</ele>
        <time>2022-01-18T17:04:43.014Z</time>
      </trkpt>
      <trkpt lat="44.09931" lon="5.97608">
        <ele>657.20001220703</ele>
        <time>2022-01-18T17:04:44.038Z</time>
      </trkpt>
      <trkpt lat="44.09947" lon="5.97585">
        <ele>657.20001220703</ele>
        <time>2022-01-18T17:04:45.070Z</time>
      </trkpt>
      <trkpt lat="44.09962" lon="5.9757">
        <ele>657.20001220703</ele>
        <time>2022-01-18T17:04:46.109Z</time>
      </trkpt>
      <trkpt lat="44.09969" lon="5.97566">
        <ele>660.79998779297</ele>
        <time>2022-01-18T17:04:47.150Z</time>
      </trkpt>
      <trkpt lat="44.09984" lon="5.97564">
        <ele>662</ele>
        <time>2022-01-18T17:04:48.197Z</time>
      </trkpt>
      <trkpt lat="44.09987" lon="5.97562">
        <ele>662</ele>
        <time>2022-01-18T17:04:49.245Z</time>
      </trkpt>
      <trkpt lat="44.09992" lon="5.97554">
        <ele>663.59997558594</ele>
        <time>2022-01-18T17:04:50.296Z</time>
      </trkpt>
      <trkpt lat="44.09998" lon="5.97549">
        <ele>663.59997558594</ele>
        <time>2022-01-18T17:04:51.349Z</time>
      </trkpt>
      <trkpt lat="44.10002" lon="5.97549">
        <ele>663.59997558594</ele>
        <time>2022-01-18T17:04:52.403Z</time>
      </trkpt>
      <trkpt lat="44.10004" lon="5.9755">
        <ele>666.79998779297</ele>
        <time>2022-01-18T17:04:53.458Z</time>
      </trkpt>
      <trkpt lat="44.10004" lon="5.97552">
        <ele>666.79998779297</ele>
        <time>2022-01-18T17:04:54.514Z</time>
      </trkpt>
      <trkpt lat="44.10001" lon="5.97583">
        <ele>670.79998779297</ele>
        <time>2022-01-18T17:04:55.578Z</time>
      </trkpt>
      <trkpt lat="44.09997" lon="5.97589">
        <ele>670.79998779297</ele>
        <time>2022-01-18T17:04:56.644Z</time>
      </trkpt>
      <trkpt lat="44.09997" lon="5.97594">
        <ele>670.79998779297</ele>
        <time>2022-01-18T17:04:57.711Z</time>
      </trkpt>
      <trkpt lat="44.10015" lon="5.97591">
        <ele>676.59997558594</ele>
        <time>2022-01-18T17:04:58.784Z</time>
      </trkpt>
      <trkpt lat="44.10025" lon="5.97583">
        <ele>676.59997558594</ele>
        <time>2022-01-18T17:04:59.861Z</time>
      </trkpt>
      <trkpt lat="44.10049" lon="5.97578">
        <ele>680</ele>
        <time>2022-01-18T17:05:00.947Z</time>
      </trkpt>
      <trkpt lat="44.10064" lon="5.97567">
        <ele>681.59997558594</ele>
        <time>2022-01-18T17:05:02.039Z</time>
      </trkpt>
      <trkpt lat="44.10079" lon="5.97549">
        <ele>681.59997558594</ele>
        <time>2022-01-18T17:05:03.138Z</time>
      </trkpt>
      <trkpt lat="44.10093" lon="5.97541">
        <ele>681.59997558594</ele>
        <time>2022-01-18T17:05:04.242Z</time>
      </trkpt>
      <trkpt lat="44.10103" lon="5.97533">
        <ele>684</ele>
        <time>2022-01-18T17:05:05.350Z</time>
      </trkpt>
      <trkpt lat="44.10118" lon="5.97515">
        <ele>684</ele>
        <time>2022-01-18T17:05:06.465Z</time>
      </trkpt>
      <trkpt lat="44.10152" lon="5.97461">
        <ele>688.20001220703</ele>
        <time>2022-01-18T17:05:07.598Z</time>
      </trkpt>
      <trkpt lat="44.10162" lon="5.9743">
        <ele>688.20001220703</ele>
        <time>2022-01-18T17:05:08.739Z</time>
      </trkpt>
      <trkpt lat="44.10172" lon="5.97422">
        <ele>692</ele>
        <time>2022-01-18T17:05:09.885Z</time>
      </trkpt>
      <trkpt lat="44.10182" lon="5.97398">
        <ele>692</ele>
        <time>2022-01-18T17:05:11.037Z</time>
      </trkpt>
      <trkpt lat="44.10183" lon="5.97386">
        <ele>692</ele>
        <time>2022-01-18T17:05:12.193Z</time>
      </trkpt>
      <trkpt lat="44.10198" lon="5.97357">
        <ele>692</ele>
        <time>2022-01-18T17:05:13.357Z</time>
      </trkpt>
      <trkpt lat="44.10223" lon="5.97337">
        <ele>698.59997558594</ele>
        <time>2022-01-18T17:05:14.532Z</time>
      </trkpt>
      <trkpt lat="44.10245" lon="5.97316">
        <ele>698.59997558594</ele>
        <time>2022-01-18T17:05:15.716Z</time>
      </trkpt>
      <trkpt lat="44.10257" lon="5.973">
        <ele>698.59997558594</ele>
        <time>2022-01-18T17:05:16.906Z</time>
      </trkpt>
      <trkpt lat="44.10258" lon="5.97296">
        <ele>701.79998779297</ele>
        <time>2022-01-18T17:05:18.097Z</time>
      </trkpt>
      <trkpt lat="44.10248" lon="5.97268">
        <ele>701.79998779297</ele>
        <time>2022-01-18T17:05:19.296Z</time>
      </trkpt>
      <trkpt lat="44.10243" lon="5.97234">
        <ele>701.79998779297</ele>
        <time>2022-01-18T17:05:20.503Z</time>
      </trkpt>
      <trkpt lat="44.10237" lon="5.97218">
        <ele>701.79998779297</ele>
        <time>2022-01-18T17:05:21.715Z</time>
      </trkpt>
      <trkpt lat="44.10235" lon="5.97208">
        <ele>697.59997558594</ele>
        <time>2022-01-18T17:05:22.929Z</time>
      </trkpt>
      <trkpt lat="44.10227" lon="5.97193">
        <ele>700.59997558594</ele>
        <time>2022-01-18T17:05:24.148Z</time>
      </trkpt>
      <trkpt lat="44.10221" lon="5.97162">
        <ele>706.59997558594</ele>
        <time>2022-01-18T17:05:25.375Z</time>
      </trkpt>
      <trkpt lat="44.10214" lon="5.97157">
        <ele>708</ele>
        <time>2022-01-18T17:05:26.605Z</time>
      </trkpt>
      <trkpt lat="44.1021" lon="5.97151">
        <ele>709.40002441406</ele>
        <time>2022-01-18T17:05:27.837Z</time>
      </trkpt>
      <trkpt lat="44.10187" lon="5.9711">
        <ele>719.20001220703</ele>
        <time>2022-01-18T17:05:29.082Z</time>
      </trkpt>
      <trkpt lat="44.10177" lon="5.97095">
        <ele>719.20001220703</ele>
        <time>2022-01-18T17:05:30.332Z</time>
      </trkpt>
      <trkpt lat="44.10167" lon="5.97087">
        <ele>719.20001220703</ele>
        <time>2022-01-18T17:05:31.586Z</time>
      </trkpt>
      <trkpt lat="44.10144" lon="5.97074">
        <ele>719.20001220703</ele>
        <time>2022-01-18T17:05:32.849Z</time>
      </trkpt>
      <trkpt lat="44.10133" lon="5.97074">
        <ele>719.20001220703</ele>
        <time>2022-01-18T17:05:34.116Z</time>
      </trkpt>
      <trkpt lat="44.10124" lon="5.97084">
        <ele>719.20001220703</ele>
        <time>2022-01-18T17:05:35.387Z</time>
      </trkpt>
      <trkpt lat="44.10116" lon="5.9709">
        <ele>731.79998779297</ele>
        <time>2022-01-18T17:05:36.661Z</time>
      </trkpt>
      <trkpt lat="44.10105" lon="5.97092">
        <ele>731.79998779297</ele>
        <time>2022-01-18T17:05:37.939Z</time>
      </trkpt>
      <trkpt lat="44.10091" lon="5.97102">
        <ele>733.40002441406</ele>
        <time>2022-01-18T17:05:39.222Z</time>
      </trkpt>
      <trkpt lat="44.10089" lon="5.97102">
        <ele>734.59997558594</ele>
        <time>2022-01-18T17:05:40.506Z</time>
      </trkpt>
      <trkpt lat="44.10097" lon="5.97094">
        <ele>734.59997558594</ele>
        <time>2022-01-18T17:05:41.793Z</time>
      </trkpt>
      <trkpt lat="44.10102" lon="5.97088">
        <ele>735.20001220703</ele>
        <time>2022-01-18T17:05:43.083Z</time>
      </trkpt>
      <trkpt lat="44.10101" lon="5.97086">
        <ele>735.59997558594</ele>
        <time>2022-01-18T17:05:44.373Z</time>
      </trkpt>
      <trkpt lat="44.10086" lon="5.9709">
        <ele>735.59997558594</ele>
        <time>2022-01-18T17:05:45.668Z</time>
      </trkpt>
      <trkpt lat="44.10081" lon="5.97093">
        <ele>735.59997558594</ele>
        <time>2022-01-18T17:05:46.965Z</time>
      </trkpt>
      <trkpt lat="44.10073" lon="5.97093">
        <ele>735.59997558594</ele>
        <time>2022-01-18T17:05:48.265Z</time>
      </trkpt>
      <trkpt lat="44.10047" lon="5.97115">
        <ele>735.59997558594</ele>
        <time>2022-01-18T17:05:49.576Z</time>
      </trkpt>
      <trkpt lat="44.10014" lon="5.97124">
        <ele>745</ele>
        <time>2022-01-18T17:05:50.898Z</time>
      </trkpt>
      <trkpt lat="44.10012" lon="5.97123">
        <ele>745</ele>
        <time>2022-01-18T17:05:52.221Z</time>
      </trkpt>
      <trkpt lat="44.10012" lon="5.97118">
        <ele>745.40002441406</ele>
        <time>2022-01-18T17:05:53.546Z</time>
      </trkpt>
      <trkpt lat="44.10015" lon="5.97112">
        <ele>745.40002441406</ele>
        <time>2022-01-18T17:05:54.872Z</time>
      </trkpt>
      <trkpt lat="44.10029" lon="5.97102">
        <ele>747</ele>
        <time>2022-01-18T17:05:56.204Z</time>
      </trkpt>
      <trkpt lat="44.1005" lon="5.97076">
        <ele>750.20001220703</ele>
        <time>2022-01-18T17:05:57.545Z</time>
      </trkpt>
      <trkpt lat="44.10057" lon="5.9706">
        <ele>751.40002441406</ele>
        <time>2022-01-18T17:05:58.891Z</time>
      </trkpt>
      <trkpt lat="44.10062" lon="5.97054">
        <ele>752.40002441406</ele>
        <time>2022-01-18T17:06:00.239Z</time>
      </trkpt>
      <trkpt lat="44.1006" lon="5.97046">
        <ele>752.40002441406</ele>
        <time>2022-01-18T17:06:01.590Z</time>
      </trkpt>
      <trkpt lat="44.10048" lon="5.97038">
        <ele>753.40002441406</ele>
        <time>2022-01-18T17:06:02.945Z</time>
      </trkpt>
      <trkpt lat="44.10029" lon="5.97009">
        <ele>752.79998779297</ele>
        <time>2022-01-18T17:06:04.310Z</time>
      </trkpt>
      <trkpt lat="44.09994" lon="5.96987">
        <ele>752.79998779297</ele>
        <time>2022-01-18T17:06:05.688Z</time>
      </trkpt>
      <trkpt lat="44.09983" lon="5.96987">
        <ele>752.79998779297</ele>
        <time>2022-01-18T17:06:07.070Z</time>
      </trkpt>
      <trkpt lat="44.09972" lon="5.96982">
        <ele>748.20001220703</ele>
        <time>2022-01-18T17:06:08.456Z</time>
      </trkpt>
      <trkpt lat="44.09958" lon="5.9697">
        <ele>748</ele>
        <time>2022-01-18T17:06:09.848Z</time>
      </trkpt>
      <trkpt lat="44.09951" lon="5.96972">
        <ele>748</ele>
        <time>2022-01-18T17:06:11.242Z</time>
      </trkpt>
      <trkpt lat="44.09939" lon="5.96983">
        <ele>741.79998779297</ele>
        <time>2022-01-18T17:06:12.641Z</time>
      </trkpt>
      <trkpt lat="44.09916" lon="5.96991">
        <ele>732.79998779297</ele>
        <time>2022-01-18T17:06:14.049Z</time>
      </trkpt>
      <trkpt lat="44.09902" lon="5.9698">
        <ele>728.40002441406</ele>
        <time>2022-01-18T17:06:15.462Z</time>
      </trkpt>
      <trkpt lat="44.09894" lon="5.96976">
        <ele>726.79998779297</ele>
        <time>2022-01-18T17:06:16.878Z</time>
      </trkpt>
      <trkpt lat="44.09873" lon="5.96972">
        <ele>726.79998779297</ele>
        <time>2022-01-18T17:06:18.302Z</time>
      </trkpt>
      <trkpt lat="44.09867" lon="5.96971">
        <ele>721.40002441406</ele>
        <time>2022-01-18T17:06:19.728Z</time>
      </trkpt>
      <trkpt lat="44.09853" lon="5.96963">
        <ele>721.40002441406</ele>
        <time>2022-01-18T17:06:21.159Z</time>
      </trkpt>
      <trkpt lat="44.09841" lon="5.96961">
        <ele>721.40002441406</ele>
        <time>2022-01-18T17:06:22.594Z</time>
      </trkpt>
      <trkpt lat="44.09832" lon="5.96953">
        <ele>717.40002441406</ele>
        <time>2022-01-18T17:06:24.033Z</time>
      </trkpt>
      <trkpt lat="44.09825" lon="5.9694">
        <ele>717.40002441406</ele>
        <time>2022-01-18T17:06:25.476Z</time>
      </trkpt>
      <trkpt lat="44.0981" lon="5.96931">
        <ele>716.20001220703</ele>
        <time>2022-01-18T17:06:26.925Z</time>
      </trkpt>
      <trkpt lat="44.09806" lon="5.96931">
        <ele>716.20001220703</ele>
        <time>2022-01-18T17:06:28.375Z</time>
      </trkpt>
      <trkpt lat="44.09798" lon="5.96934">
        <ele>712.59997558594</ele>
        <time>2022-01-18T17:06:29.828Z</time>
      </trkpt>
      <trkpt lat="44.09794" lon="5.96928">
        <ele>712.59997558594</ele>
        <time>2022-01-18T17:06:31.283Z</time>
      </trkpt>
      <trkpt lat="44.09797" lon="5.96919">
        <ele>709.79998779297</ele>
        <time>2022-01-18T17:06:32.741Z</time>
      </trkpt>
      <trkpt lat="44.09805" lon="5.96914">
        <ele>708.79998779297</ele>
        <time>2022-01-18T17:06:34.202Z</time>
      </trkpt>
      <trkpt lat="44.09818" lon="5.9691">
        <ele>708.79998779297</ele>
        <time>2022-01-18T17:06:35.667Z</time>
      </trkpt>
      <trkpt lat="44.0983" lon="5.96911">
        <ele>709</ele>
        <time>2022-01-18T17:06:37.136Z</time>
      </trkpt>
      <trkpt lat="44.09833" lon="5.96912">
        <ele>709</ele>
        <time>2022-01-18T17:06:38.607Z</time>
      </trkpt>
      <trkpt lat="44.09842" lon="5.9692">
        <ele>708.20001220703</ele>
        <time>2022-01-18T17:06:40.081Z</time>
      </trkpt>
      <trkpt lat="44.09848" lon="5.96928">
        <ele>708.20001220703</ele>
        <time>2022-01-18T17:06:41.558Z</time>
      </trkpt>
      <trkpt lat="44.09859" lon="5.96937">
        <ele>706.40002441406</ele>
        <time>2022-01-18T17:06:43.040Z</time>
      </trkpt>
      <trkpt lat="44.09869" lon="5.96938">
        <ele>706.40002441406</ele>
        <time>2022-01-18T17:06:44.525Z</time>
      </trkpt>
      <trkpt lat="44.09874" lon="5.96923">
        <ele>706.40002441406</ele>
        <time>2022-01-18T17:06:46.014Z</time>
      </trkpt>
      <trkpt lat="44.09877" lon="5.96921">
        <ele>707.59997558594</ele>
        <time>2022-01-18T17:06:47.505Z</time>
      </trkpt>
      <trkpt lat="44.09892" lon="5.96925">
        <ele>708.20001220703</ele>
        <time>2022-01-18T17:06:49.001Z</time>
      </trkpt>
      <trkpt lat="44.09902" lon="5.96922">
        <ele>708</ele>
        <time>2022-01-18T17:06:50.501Z</time>
      </trkpt>
      <trkpt lat="44.09904" lon="5.96918">
        <ele>708</ele>
        <time>2022-01-18T17:06:52.002Z</time>
      </trkpt>
      <trkpt lat="44.09905" lon="5.96887">
        <ele>708</ele>
        <time>2022-01-18T17:06:53.510Z</time>
      </trkpt>
      <trkpt lat="44.09912" lon="5.96862">
        <ele>704.79998779297</ele>
        <time>2022-01-18T17:06:55.025Z</time>
      </trkpt>
      <trkpt lat="44.09916" lon="5.96839">
        <ele>703</ele>
        <time>2022-01-18T17:06:56.546Z</time>
      </trkpt>
      <trkpt lat="44.09922" lon="5.96825">
        <ele>701.20001220703</ele>
        <time>2022-01-18T17:06:58.071Z</time>
      </trkpt>
      <trkpt lat="44.09934" lon="5.96807">
        <ele>697.40002441406</ele>
        <time>2022-01-18T17:06:59.602Z</time>
      </trkpt>
      <trkpt lat="44.09932" lon="5.96804">
        <ele>697.40002441406</ele>
        <time>2022-01-18T17:07:01.134Z</time>
      </trkpt>
      <trkpt lat="44.09921" lon="5.96802">
        <ele>693.59997558594</ele>
        <time>2022-01-18T17:07:02.670Z</time>
      </trkpt>
      <trkpt lat="44.09918" lon="5.96799">
        <ele>691.59997558594</ele>
        <time>2022-01-18T17:07:04.208Z</time>
      </trkpt>
      <trkpt lat="44.09929" lon="5.9679">
        <ele>691.59997558594</ele>
        <time>2022-01-18T17:07:05.750Z</time>
      </trkpt>
      <trkpt lat="44.09942" lon="5.96774">
        <ele>687</ele>
        <time>2022-01-18T17:07:07.298Z</time>
      </trkpt>
      <trkpt lat="44.09948" lon="5.9677">
        <ele>686.59997558594</ele>
        <time>2022-01-18T17:07:08.848Z</time>
      </trkpt>
      <trkpt lat="44.0996" lon="5.96768">
        <ele>686.40002441406</ele>
        <time>2022-01-18T17:07:10.403Z</time>
      </trkpt>
      <trkpt lat="44.09929" lon="5.96734">
        <ele>677</ele>
        <time>2022-01-18T17:07:11.971Z</time>
      </trkpt>
      <trkpt lat="44.09921" lon="5.96712">
        <ele>677</ele>
        <time>2022-01-18T17:07:13.546Z</time>
      </trkpt>
      <trkpt lat="44.09922" lon="5.96702">
        <ele>677</ele>
        <time>2022-01-18T17:07:15.123Z</time>
      </trkpt>
      <trkpt lat="44.09931" lon="5.96676">
        <ele>677</ele>
        <time>2022-01-18T17:07:16.707Z</time>
      </trkpt>
      <trkpt lat="44.09933" lon="5.96673">
        <ele>664.40002441406</ele>
        <time>2022-01-18T17:07:18.292Z</time>
      </trkpt>
      <trkpt lat="44.0995" lon="5.9666">
        <ele>665</ele>
        <time>2022-01-18T17:07:19.884Z</time>
      </trkpt>
      <trkpt lat="44.09953" lon="5.9665">
        <ele>665</ele>
        <time>2022-01-18T17:07:21.479Z</time>
      </trkpt>
      <trkpt lat="44.09952" lon="5.96643">
        <ele>665</ele>
        <time>2022-01-18T17:07:23.076Z</time>
      </trkpt>
      <trkpt lat="44.09941" lon="5.96634">
        <ele>665</ele>
        <time>2022-01-18T17:07:24.677Z</time>
      </trkpt>
      <trkpt lat="44.09936" lon="5.96624">
        <ele>663.20001220703</ele>
        <time>2022-01-18T17:07:26.282Z</time>
      </trkpt>
      <trkpt lat="44.09935" lon="5.96601">
        <ele>660.40002441406</ele>
        <time>2022-01-18T17:07:27.892Z</time>
      </trkpt>
      <trkpt lat="44.09937" lon="5.9659">
        <ele>660.40002441406</ele>
        <time>2022-01-18T17:07:29.505Z</time>
      </trkpt>
      <trkpt lat="44.09941" lon="5.96582">
        <ele>658.59997558594</ele>
        <time>2022-01-18T17:07:31.121Z</time>
      </trkpt>
      <trkpt lat="44.09961" lon="5.96562">
        <ele>658.59997558594</ele>
        <time>2022-01-18T17:07:32.745Z</time>
      </trkpt>
      <trkpt lat="44.09976" lon="5.96551">
        <ele>659.40002441406</ele>
        <time>2022-01-18T17:07:34.375Z</time>
      </trkpt>
      <trkpt lat="44.09989" lon="5.96546">
        <ele>659.79998779297</ele>
        <time>2022-01-18T17:07:36.010Z</time>
      </trkpt>
      <trkpt lat="44.10002" lon="5.96569">
        <ele>661.59997558594</ele>
        <time>2022-01-18T17:07:37.652Z</time>
      </trkpt>
      <trkpt lat="44.10007" lon="5.96576">
        <ele>662.20001220703</ele>
        <time>2022-01-18T17:07:39.297Z</time>
      </trkpt>
      <trkpt lat="44.10014" lon="5.96577">
        <ele>662.20001220703</ele>
        <time>2022-01-18T17:07:40.944Z</time>
      </trkpt>
      <trkpt lat="44.10027" lon="5.96572">
        <ele>662.20001220703</ele>
        <time>2022-01-18T17:07:42.596Z</time>
      </trkpt>
      <trkpt lat="44.10045" lon="5.96561">
        <ele>661.40002441406</ele>
        <time>2022-01-18T17:07:44.255Z</time>
      </trkpt>
      <trkpt lat="44.10091" lon="5.96493">
        <ele>661.40002441406</ele>
        <time>2022-01-18T17:07:45.937Z</time>
      </trkpt>
      <trkpt lat="44.10098" lon="5.96477">
        <ele>663</ele>
        <time>2022-01-18T17:07:47.624Z</time>
      </trkpt>
      <trkpt lat="44.10124" lon="5.96443">
        <ele>664</ele>
        <time>2022-01-18T17:07:49.324Z</time>
      </trkpt>
      <trkpt lat="44.10149" lon="5.96406">
        <ele>664</ele>
        <time>2022-01-18T17:07:51.036Z</time>
      </trkpt>
      <trkpt lat="44.10169" lon="5.96381">
        <ele>667.20001220703</ele>
        <time>2022-01-18T17:07:52.758Z</time>
      </trkpt>
      <trkpt lat="44.10181" lon="5.96374">
        <ele>667.20001220703</ele>
        <time>2022-01-18T17:07:54.484Z</time>
      </trkpt>
      <trkpt lat="44.10199" lon="5.96368">
        <ele>667.20001220703</ele>
        <time>2022-01-18T17:07:56.217Z</time>
      </trkpt>
      <trkpt lat="44.10218" lon="5.96355">
        <ele>667</ele>
        <time>2022-01-18T17:07:57.957Z</time>
      </trkpt>
      <trkpt lat="44.10222" lon="5.96352">
        <ele>667</ele>
        <time>2022-01-18T17:07:59.699Z</time>
      </trkpt>
      <trkpt lat="44.10224" lon="5.96344">
        <ele>666</ele>
        <time>2022-01-18T17:08:01.443Z</time>
      </trkpt>
      <trkpt lat="44.10221" lon="5.96351">
        <ele>666</ele>
        <time>2022-01-18T17:08:03.189Z</time>
      </trkpt>
      <trkpt lat="44.10207" lon="5.9636">
        <ele>666.79998779297</ele>
        <time>2022-01-18T17:08:04.940Z</time>
      </trkpt>
      <trkpt lat="44.10172" lon="5.96373">
        <ele>666.79998779297</ele>
        <time>2022-01-18T17:08:06.704Z</time>
      </trkpt>
      <trkpt lat="44.10141" lon="5.96413">
        <ele>666.79998779297</ele>
        <time>2022-01-18T17:08:08.483Z</time>
      </trkpt>
      <trkpt lat="44.10125" lon="5.96439">
        <ele>665.20001220703</ele>
        <time>2022-01-18T17:08:10.270Z</time>
      </trkpt>
      <trkpt lat="44.10097" lon="5.96477">
        <ele>663.79998779297</ele>
        <time>2022-01-18T17:08:12.071Z</time>
      </trkpt>
      <trkpt lat="44.10088" lon="5.96497">
        <ele>663.79998779297</ele>
        <time>2022-01-18T17:08:13.878Z</time>
      </trkpt>
      <trkpt lat="44.10073" lon="5.96515">
        <ele>663.79998779297</ele>
        <time>2022-01-18T17:08:15.691Z</time>
      </trkpt>
      <trkpt lat="44.10065" lon="5.9653">
        <ele>662.59997558594</ele>
        <time>2022-01-18T17:08:17.509Z</time>
      </trkpt>
      <trkpt lat="44.1007" lon="5.9654">
        <ele>662.59997558594</ele>
        <time>2022-01-18T17:08:19.330Z</time>
      </trkpt>
      <trkpt lat="44.10069" lon="5.96547">
        <ele>662.59997558594</ele>
        <time>2022-01-18T17:08:21.153Z</time>
      </trkpt>
      <trkpt lat="44.10068" lon="5.96548">
        <ele>660.40002441406</ele>
        <time>2022-01-18T17:08:22.976Z</time>
      </trkpt>
      <trkpt lat="44.10049" lon="5.96558">
        <ele>660.40002441406</ele>
        <time>2022-01-18T17:08:24.807Z</time>
      </trkpt>
      <trkpt lat="44.10045" lon="5.96564">
        <ele>661.40002441406</ele>
        <time>2022-01-18T17:08:26.640Z</time>
      </trkpt>
      <trkpt lat="44.10046" lon="5.96571">
        <ele>661.40002441406</ele>
        <time>2022-01-18T17:08:28.474Z</time>
      </trkpt>
      <trkpt lat="44.10052" lon="5.96581">
        <ele>661.40002441406</ele>
        <time>2022-01-18T17:08:30.311Z</time>
      </trkpt>
      <trkpt lat="44.1004" lon="5.96582">
        <ele>661.40002441406</ele>
        <time>2022-01-18T17:08:32.152Z</time>
      </trkpt>
      <trkpt lat="44.10032" lon="5.96598">
        <ele>661.79998779297</ele>
        <time>2022-01-18T17:08:33.998Z</time>
      </trkpt>
      <trkpt lat="44.10032" lon="5.96619">
        <ele>661.79998779297</ele>
        <time>2022-01-18T17:08:35.850Z</time>
      </trkpt>
      <trkpt lat="44.10037" lon="5.9664">
        <ele>661.79998779297</ele>
        <time>2022-01-18T17:08:37.707Z</time>
      </trkpt>
      <trkpt lat="44.10045" lon="5.96652">
        <ele>660.79998779297</ele>
        <time>2022-01-18T17:08:39.568Z</time>
      </trkpt>
      <trkpt lat="44.1005" lon="5.96655">
        <ele>660.79998779297</ele>
        <time>2022-01-18T17:08:41.431Z</time>
      </trkpt>
      <trkpt lat="44.10055" lon="5.96656">
        <ele>658.79998779297</ele>
        <time>2022-01-18T17:08:43.296Z</time>
      </trkpt>
      <trkpt lat="44.10061" lon="5.96651">
        <ele>658.79998779297</ele>
        <time>2022-01-18T17:08:45.164Z</time>
      </trkpt>
      <trkpt lat="44.10071" lon="5.96636">
        <ele>658.20001220703</ele>
        <time>2022-01-18T17:08:47.037Z</time>
      </trkpt>
      <trkpt lat="44.1008" lon="5.96628">
        <ele>658.20001220703</ele>
        <time>2022-01-18T17:08:48.913Z</time>
      </trkpt>
      <trkpt lat="44.10088" lon="5.96633">
        <ele>658.59997558594</ele>
        <time>2022-01-18T17:08:50.792Z</time>
      </trkpt>
      <trkpt lat="44.10103" lon="5.96661">
        <ele>658.20001220703</ele>
        <time>2022-01-18T17:08:52.680Z</time>
      </trkpt>
      <trkpt lat="44.10116" lon="5.9667">
        <ele>658</ele>
        <time>2022-01-18T17:08:54.573Z</time>
      </trkpt>
      <trkpt lat="44.10123" lon="5.96673">
        <ele>658</ele>
        <time>2022-01-18T17:08:56.469Z</time>
      </trkpt>
      <trkpt lat="44.1013" lon="5.96672">
        <ele>660.20001220703</ele>
        <time>2022-01-18T17:08:58.367Z</time>
      </trkpt>
      <trkpt lat="44.1014" lon="5.96668">
        <ele>660.20001220703</ele>
        <time>2022-01-18T17:09:00.269Z</time>
      </trkpt>
      <trkpt lat="44.10169" lon="5.96653">
        <ele>660.20001220703</ele>
        <time>2022-01-18T17:09:02.182Z</time>
      </trkpt>
      <trkpt lat="44.10192" lon="5.96637">
        <ele>655.59997558594</ele>
        <time>2022-01-18T17:09:04.104Z</time>
      </trkpt>
      <trkpt lat="44.10217" lon="5.96625">
        <ele>654.59997558594</ele>
        <time>2022-01-18T17:09:06.035Z</time>
      </trkpt>
      <trkpt lat="44.10225" lon="5.96622">
        <ele>653.40002441406</ele>
        <time>2022-01-18T17:09:07.969Z</time>
      </trkpt>
      <trkpt lat="44.10228" lon="5.96625">
        <ele>653.40002441406</ele>
        <time>2022-01-18T17:09:09.904Z</time>
      </trkpt>
      <trkpt lat="44.10231" lon="5.96625">
        <ele>652</ele>
        <time>2022-01-18T17:09:11.840Z</time>
      </trkpt>
      <trkpt lat="44.10235" lon="5.96622">
        <ele>652</ele>
        <time>2022-01-18T17:09:13.777Z</time>
      </trkpt>
      <trkpt lat="44.10236" lon="5.96642">
        <ele>652</ele>
        <time>2022-01-18T17:09:15.719Z</time>
      </trkpt>
      <trkpt lat="44.10237" lon="5.96648">
        <ele>650.59997558594</ele>
        <time>2022-01-18T17:09:17.663Z</time>
      </trkpt>
      <trkpt lat="44.1024" lon="5.96651">
        <ele>650</ele>
        <time>2022-01-18T17:09:19.608Z</time>
      </trkpt>
      <trkpt lat="44.1025" lon="5.96652">
        <ele>649</ele>
        <time>2022-01-18T17:09:21.557Z</time>
      </trkpt>
      <trkpt lat="44.10262" lon="5.96651">
        <ele>649</ele>
        <time>2022-01-18T17:09:23.510Z</time>
      </trkpt>
      <trkpt lat="44.10268" lon="5.96653">
        <ele>647.20001220703</ele>
        <time>2022-01-18T17:09:25.465Z</time>
      </trkpt>
      <trkpt lat="44.10274" lon="5.96655">
        <ele>647.20001220703</ele>
        <time>2022-01-18T17:09:27.422Z</time>
      </trkpt>
      <trkpt lat="44.10278" lon="5.9666">
        <ele>646.20001220703</ele>
        <time>2022-01-18T17:09:29.381Z</time>
      </trkpt>
      <trkpt lat="44.10298" lon="5.96673">
        <ele>646.20001220703</ele>
        <time>2022-01-18T17:09:31.348Z</time>
      </trkpt>
      <trkpt lat="44.10313" lon="5.96678">
        <ele>645</ele>
        <time>2022-01-18T17:09:33.320Z</time>
      </trkpt>
      <trkpt lat="44.10322" lon="5.96678">
        <ele>644.79998779297</ele>
        <time>2022-01-18T17:09:35.295Z</time>
      </trkpt>
      <trkpt lat="44.10325" lon="5.96674">
        <ele>644.59997558594</ele>
        <time>2022-01-18T17:09:37.272Z</time>
      </trkpt>
      <trkpt lat="44.10332" lon="5.96673">
        <ele>644.59997558594</ele>
        <time>2022-01-18T17:09:39.251Z</time>
      </trkpt>
      <trkpt lat="44.10339" lon="5.9667">
        <ele>645.20001220703</ele>
        <time>2022-01-18T17:09:41.233Z</time>
      </trkpt>
      <trkpt lat="44.10328" lon="5.96674">
        <ele>645.20001220703</ele>
        <time>2022-01-18T17:09:43.219Z</time>
      </trkpt>
      <trkpt lat="44.10324" lon="5.96677">
        <ele>645.20001220703</ele>
        <time>2022-01-18T17:09:45.206Z</time>
      </trkpt>
      <trkpt lat="44.10317" lon="5.96678">
        <ele>645.20001220703</ele>
        <time>2022-01-18T17:09:47.196Z</time>
      </trkpt>
      <trkpt lat="44.10305" lon="5.96674">
        <ele>645.40002441406</ele>
        <time>2022-01-18T17:09:49.190Z</time>
      </trkpt>
      <trkpt lat="44.10295" lon="5.96667">
        <ele>645.40002441406</ele>
        <time>2022-01-18T17:09:51.188Z</time>
      </trkpt>
      <trkpt lat="44.10269" lon="5.96652">
        <ele>646.40002441406</ele>
        <time>2022-01-18T17:09:53.196Z</time>
      </trkpt>
      <trkpt lat="44.10241" lon="5.96651">
        <ele>646.40002441406</ele>
        <time>2022-01-18T17:09:55.214Z</time>
      </trkpt>
      <trkpt lat="44.10235" lon="5.96646">
        <ele>646.40002441406</ele>
        <time>2022-01-18T17:09:57.234Z</time>
      </trkpt>
      <trkpt lat="44.10231" lon="5.96647">
        <ele>650.40002441406</ele>
        <time>2022-01-18T17:09:59.256Z</time>
      </trkpt>
      <trkpt lat="44.1021" lon="5.96662">
        <ele>650.40002441406</ele>
        <time>2022-01-18T17:10:01.286Z</time>
      </trkpt>
      <trkpt lat="44.10206" lon="5.96662">
        <ele>652.20001220703</ele>
        <time>2022-01-18T17:10:03.317Z</time>
      </trkpt>
      <trkpt lat="44.10196" lon="5.96668">
        <ele>652.20001220703</ele>
        <time>2022-01-18T17:10:05.352Z</time>
      </trkpt>
      <trkpt lat="44.10194" lon="5.96672">
        <ele>652.20001220703</ele>
        <time>2022-01-18T17:10:07.388Z</time>
      </trkpt>
      <trkpt lat="44.10196" lon="5.96677">
        <ele>652.20001220703</ele>
        <time>2022-01-18T17:10:09.426Z</time>
      </trkpt>
      <trkpt lat="44.10211" lon="5.96696">
        <ele>652.20001220703</ele>
        <time>2022-01-18T17:10:11.471Z</time>
      </trkpt>
      <trkpt lat="44.10232" lon="5.96715">
        <ele>648.40002441406</ele>
        <time>2022-01-18T17:10:13.524Z</time>
      </trkpt>
      <trkpt lat="44.10268" lon="5.96755">
        <ele>644.20001220703</ele>
        <time>2022-01-18T17:10:15.594Z</time>
      </trkpt>
      <trkpt lat="44.10282" lon="5.96766">
        <ele>642.79998779297</ele>
        <time>2022-01-18T17:10:17.669Z</time>
      </trkpt>
      <trkpt lat="44.10291" lon="5.96778">
        <ele>642.79998779297</ele>
        <time>2022-01-18T17:10:19.748Z</time>
      </trkpt>
      <trkpt lat="44.10301" lon="5.96787">
        <ele>642.79998779297</ele>
        <time>2022-01-18T17:10:21.832Z</time>
      </trkpt>
      <trkpt lat="44.10312" lon="5.96801">
        <ele>638</ele>
        <time>2022-01-18T17:10:23.921Z</time>
      </trkpt>
      <trkpt lat="44.10316" lon="5.96804">
        <ele>638</ele>
        <time>2022-01-18T17:10:26.011Z</time>
      </trkpt>
      <trkpt lat="44.10325" lon="5.96805">
        <ele>638</ele>
        <time>2022-01-18T17:10:28.105Z</time>
      </trkpt>
      <trkpt lat="44.10333" lon="5.96816">
        <ele>638</ele>
        <time>2022-01-18T17:10:30.203Z</time>
      </trkpt>
      <trkpt lat="44.10347" lon="5.96829">
        <ele>632</ele>
        <time>2022-01-18T17:10:32.306Z</time>
      </trkpt>
      <trkpt lat="44.10352" lon="5.96831">
        <ele>632</ele>
        <time>2022-01-18T17:10:34.411Z</time>
      </trkpt>
      <trkpt lat="44.10364" lon="5.96832">
        <ele>632</ele>
        <time>2022-01-18T17:10:36.520Z</time>
      </trkpt>
      <trkpt lat="44.10389" lon="5.96826">
        <ele>632</ele>
        <time>2022-01-18T17:10:38.638Z</time>
      </trkpt>
      <trkpt lat="44.10428" lon="5.96806">
        <ele>632</ele>
        <time>2022-01-18T17:10:40.771Z</time>
      </trkpt>
      <trkpt lat="44.10476" lon="5.96796">
        <ele>632</ele>
        <time>2022-01-18T17:10:42.921Z</time>
      </trkpt>
      <trkpt lat="44.10491" lon="5.96796">
        <ele>627.40002441406</ele>
        <time>2022-01-18T17:10:45.076Z</time>
      </trkpt>
      <trkpt lat="44.10508" lon="5.96784">
        <ele>627.40002441406</ele>
        <time>2022-01-18T17:10:47.237Z</time>
      </trkpt>
      <trkpt lat="44.10517" lon="5.96781">
        <ele>627</ele>
        <time>2022-01-18T17:10:49.402Z</time>
      </trkpt>
      <trkpt lat="44.10532" lon="5.9678">
        <ele>626.20001220703</ele>
        <time>2022-01-18T17:10:51.572Z</time>
      </trkpt>
      <trkpt lat="44.10548" lon="5.96782">
        <ele>623.59997558594</ele>
        <time>2022-01-18T17:10:53.748Z</time>
      </trkpt>
      <trkpt lat="44.10588" lon="5.96769">
        <ele>623.59997558594</ele>
        <time>2022-01-18T17:10:55.938Z</time>
      </trkpt>
      <trkpt lat="44.10608" lon="5.96764">
        <ele>623.59997558594</ele>
        <time>2022-01-18T17:10:58.135Z</time>
      </trkpt>
      <trkpt lat="44.10625" lon="5.96757">
        <ele>615.20001220703</ele>
        <time>2022-01-18T17:11:00.338Z</time>
      </trkpt>
      <trkpt lat="44.10642" lon="5.96761">
        <ele>615.79998779297</ele>
        <time>2022-01-18T17:11:02.547Z</time>
      </trkpt>
      <trkpt lat="44.10654" lon="5.96757">
        <ele>615.79998779297</ele>
        <time>2022-01-18T17:11:04.760Z</time>
      </trkpt>
      <trkpt lat="44.10661" lon="5.96751">
        <ele>615.79998779297</ele>
        <time>2022-01-18T17:11:06.976Z</time>
      </trkpt>
      <trkpt lat="44.10661" lon="5.96749">
        <ele>616.79998779297</ele>
        <time>2022-01-18T17:11:09.193Z</time>
      </trkpt>
      <trkpt lat="44.10653" lon="5.96748">
        <ele>616.79998779297</ele>
        <time>2022-01-18T17:11:11.413Z</time>
      </trkpt>
      <trkpt lat="44.1065" lon="5.96743">
        <ele>616.59997558594</ele>
        <time>2022-01-18T17:11:13.634Z</time>
      </trkpt>
      <trkpt lat="44.10657" lon="5.96736">
        <ele>616.59997558594</ele>
        <time>2022-01-18T17:11:15.858Z</time>
      </trkpt>
      <trkpt lat="44.10676" lon="5.96729">
        <ele>616.59997558594</ele>
        <time>2022-01-18T17:11:18.089Z</time>
      </trkpt>
      <trkpt lat="44.10715" lon="5.96704">
        <ele>616.20001220703</ele>
        <time>2022-01-18T17:11:20.335Z</time>
      </trkpt>
      <trkpt lat="44.10728" lon="5.96701">
        <ele>616.20001220703</ele>
        <time>2022-01-18T17:11:22.586Z</time>
      </trkpt>
      <trkpt lat="44.10747" lon="5.967">
        <ele>616.20001220703</ele>
        <time>2022-01-18T17:11:24.843Z</time>
      </trkpt>
      <trkpt lat="44.10754" lon="5.96697">
        <ele>618</ele>
        <time>2022-01-18T17:11:27.103Z</time>
      </trkpt>
      <trkpt lat="44.10763" lon="5.96682">
        <ele>615.59997558594</ele>
        <time>2022-01-18T17:11:29.368Z</time>
      </trkpt>
      <trkpt lat="44.10772" lon="5.96687">
        <ele>615.59997558594</ele>
        <time>2022-01-18T17:11:31.636Z</time>
      </trkpt>
      <trkpt lat="44.10777" lon="5.96688">
        <ele>612</ele>
        <time>2022-01-18T17:11:33.906Z</time>
      </trkpt>
      <trkpt lat="44.10781" lon="5.96694">
        <ele>610.79998779297</ele>
        <time>2022-01-18T17:11:36.178Z</time>
      </trkpt>
      <trkpt lat="44.10785" lon="5.96692">
        <ele>610.79998779297</ele>
        <time>2022-01-18T17:11:38.451Z</time>
      </trkpt>
      <trkpt lat="44.1079" lon="5.96694">
        <ele>610</ele>
        <time>2022-01-18T17:11:40.726Z</time>
      </trkpt>
      <trkpt lat="44.10804" lon="5.96706">
        <ele>610</ele>
        <time>2022-01-18T17:11:43.007Z</time>
      </trkpt>
      <trkpt lat="44.10817" lon="5.96727">
        <ele>610</ele>
        <time>2022-01-18T17:11:45.295Z</time>
      </trkpt>
      <trkpt lat="44.10827" lon="5.96731">
        <ele>608.20001220703</ele>
        <time>2022-01-18T17:11:47.587Z</time>
      </trkpt>
      <trkpt lat="44.1083" lon="5.96734">
        <ele>608.20001220703</ele>
        <time>2022-01-18T17:11:49.880Z</time>
      </trkpt>
      <trkpt lat="44.10835" lon="5.96735">
        <ele>607.40002441406</ele>
        <time>2022-01-18T17:11:52.175Z</time>
      </trkpt>
      <trkpt lat="44.10842" lon="5.96728">
        <ele>606.40002441406</ele>
        <time>2022-01-18T17:11:54.472Z</time>
      </trkpt>
      <trkpt lat="44.10853" lon="5.96727">
        <ele>605.40002441406</ele>
        <time>2022-01-18T17:11:56.773Z</time>
      </trkpt>
      <trkpt lat="44.10878" lon="5.96734">
        <ele>602.59997558594</ele>
        <time>2022-01-18T17:11:59.083Z</time>
      </trkpt>
      <trkpt lat="44.10894" lon="5.96741">
        <ele>601</ele>
        <time>2022-01-18T17:12:01.399Z</time>
      </trkpt>
      <trkpt lat="44.10903" lon="5.9674">
        <ele>599.59997558594</ele>
        <time>2022-01-18T17:12:03.718Z</time>
      </trkpt>
      <trkpt lat="44.10909" lon="5.96732">
        <ele>597.79998779297</ele>
        <time>2022-01-18T17:12:06.040Z</time>
      </trkpt>
      <trkpt lat="44.1092" lon="5.96732">
        <ele>597.79998779297</ele>
        <time>2022-01-18T17:12:08.366Z</time>
      </trkpt>
      <trkpt lat="44.10928" lon="5.96722">
        <ele>595.20001220703</ele>
        <time>2022-01-18T17:12:10.696Z</time>
      </trkpt>
      <trkpt lat="44.10934" lon="5.96719">
        <ele>595.20001220703</ele>
        <time>2022-01-18T17:12:13.028Z</time>
      </trkpt>
      <trkpt lat="44.10939" lon="5.96719">
        <ele>595.20001220703</ele>
        <time>2022-01-18T17:12:15.362Z</time>
      </trkpt>
      <trkpt lat="44.10946" lon="5.96717">
        <ele>595.20001220703</ele>
        <time>2022-01-18T17:12:17.698Z</time>
      </trkpt>
      <trkpt lat="44.10949" lon="5.96721">
        <ele>592</ele>
        <time>2022-01-18T17:12:20.036Z</time>
      </trkpt>
      <trkpt lat="44.10954" lon="5.96732">
        <ele>592</ele>
        <time>2022-01-18T17:12:22.377Z</time>
      </trkpt>
      <trkpt lat="44.10965" lon="5.96727">
        <ele>592</ele>
        <time>2022-01-18T17:12:24.722Z</time>
      </trkpt>
      <trkpt lat="44.10974" lon="5.9672">
        <ele>592</ele>
        <time>2022-01-18T17:12:27.071Z</time>
      </trkpt>
      <trkpt lat="44.10976" lon="5.9672">
        <ele>588</ele>
        <time>2022-01-18T17:12:29.421Z</time>
      </trkpt>
      <trkpt lat="44.1098" lon="5.96724">
        <ele>587.79998779297</ele>
        <time>2022-01-18T17:12:31.772Z</time>
      </trkpt>
      <trkpt lat="44.10987" lon="5.96723">
        <ele>587.79998779297</ele>
        <time>2022-01-18T17:12:34.126Z</time>
      </trkpt>
      <trkpt lat="44.11001" lon="5.96709">
        <ele>585</ele>
        <time>2022-01-18T17:12:36.486Z</time>
      </trkpt>
      <trkpt lat="44.11007" lon="5.96706">
        <ele>585</ele>
        <time>2022-01-18T17:12:38.848Z</time>
      </trkpt>
      <trkpt lat="44.11013" lon="5.96713">
        <ele>585</ele>
        <time>2022-01-18T17:12:41.212Z</time>
      </trkpt>
      <trkpt lat="44.11035" lon="5.96725">
        <ele>581.79998779297</ele>
        <time>2022-01-18T17:12:43.585Z</time>
      </trkpt>
      <trkpt lat="44.11045" lon="5.96727">
        <ele>580.40002441406</ele>
        <time>2022-01-18T17:12:45.961Z</time>
      </trkpt>
      <trkpt lat="44.11056" lon="5.96727">
        <ele>578</ele>
        <time>2022-01-18T17:12:48.341Z</time>
      </trkpt>
      <trkpt lat="44.1106" lon="5.9673">
        <ele>578</ele>
        <time>2022-01-18T17:12:50.723Z</time>
      </trkpt>
      <trkpt lat="44.11066" lon="5.96732">
        <ele>577.59997558594</ele>
        <time>2022-01-18T17:12:53.107Z</time>
      </trkpt>
      <trkpt lat="44.11084" lon="5.96736">
        <ele>577.59997558594</ele>
        <time>2022-01-18T17:12:55.497Z</time>
      </trkpt>
      <trkpt lat="44.11086" lon="5.96741">
        <ele>574.79998779297</ele>
        <time>2022-01-18T17:12:57.889Z</time>
      </trkpt>
      <trkpt lat="44.11086" lon="5.96754">
        <ele>573.79998779297</ele>
        <time>2022-01-18T17:13:00.284Z</time>
      </trkpt>
      <trkpt lat="44.1109" lon="5.96757">
        <ele>573.79998779297</ele>
        <time>2022-01-18T17:13:02.681Z</time>
      </trkpt>
      <trkpt lat="44.11101" lon="5.96758">
        <ele>573.79998779297</ele>
        <time>2022-01-18T17:13:05.081Z</time>
      </trkpt>
      <trkpt lat="44.11104" lon="5.96766">
        <ele>573.79998779297</ele>
        <time>2022-01-18T17:13:07.483Z</time>
      </trkpt>
      <trkpt lat="44.1112" lon="5.96779">
        <ele>573.79998779297</ele>
        <time>2022-01-18T17:13:09.892Z</time>
      </trkpt>
      <trkpt lat="44.11133" lon="5.96779">
        <ele>573.79998779297</ele>
        <time>2022-01-18T17:13:12.305Z</time>
      </trkpt>
      <trkpt lat="44.11139" lon="5.96775">
        <ele>573.79998779297</ele>
        <time>2022-01-18T17:13:14.721Z</time>
      </trkpt>
      <trkpt lat="44.1114" lon="5.96771">
        <ele>573.79998779297</ele>
        <time>2022-01-18T17:13:17.138Z</time>
      </trkpt>
      <trkpt lat="44.11144" lon="5.9677">
        <ele>563</ele>
        <time>2022-01-18T17:13:19.556Z</time>
      </trkpt>
      <trkpt lat="44.11152" lon="5.96783">
        <ele>561.20001220703</ele>
        <time>2022-01-18T17:13:21.978Z</time>
      </trkpt>
      <trkpt lat="44.11156" lon="5.96787">
        <ele>560.59997558594</ele>
        <time>2022-01-18T17:13:24.402Z</time>
      </trkpt>
      <trkpt lat="44.11159" lon="5.96778">
        <ele>560.59997558594</ele>
        <time>2022-01-18T17:13:26.829Z</time>
      </trkpt>
      <trkpt lat="44.11163" lon="5.96774">
        <ele>560.59997558594</ele>
        <time>2022-01-18T17:13:29.257Z</time>
      </trkpt>
      <trkpt lat="44.11163" lon="5.96771">
        <ele>555.40002441406</ele>
        <time>2022-01-18T17:13:31.686Z</time>
      </trkpt>
      <trkpt lat="44.11157" lon="5.96761">
        <ele>554.40002441406</ele>
        <time>2022-01-18T17:13:34.118Z</time>
      </trkpt>
      <trkpt lat="44.11156" lon="5.96755">
        <ele>554.40002441406</ele>
        <time>2022-01-18T17:13:36.552Z</time>
      </trkpt>
      <trkpt lat="44.1116" lon="5.96752">
        <ele>554.40002441406</ele>
        <time>2022-01-18T17:13:38.988Z</time>
      </trkpt>
      <trkpt lat="44.11165" lon="5.96754">
        <ele>552.40002441406</ele>
        <time>2022-01-18T17:13:41.425Z</time>
      </trkpt>
      <trkpt lat="44.11169" lon="5.96754">
        <ele>552.40002441406</ele>
        <time>2022-01-18T17:13:43.864Z</time>
      </trkpt>
      <trkpt lat="44.11185" lon="5.96766">
        <ele>548.20001220703</ele>
        <time>2022-01-18T17:13:46.309Z</time>
      </trkpt>
      <trkpt lat="44.11187" lon="5.96763">
        <ele>548.20001220703</ele>
        <time>2022-01-18T17:13:48.755Z</time>
      </trkpt>
      <trkpt lat="44.11186" lon="5.96758">
        <ele>547</ele>
        <time>2022-01-18T17:13:51.203Z</time>
      </trkpt>
      <trkpt lat="44.11182" lon="5.96753">
        <ele>547</ele>
        <time>2022-01-18T17:13:53.653Z</time>
      </trkpt>
      <trkpt lat="44.11182" lon="5.96746">
        <ele>545.79998779297</ele>
        <time>2022-01-18T17:13:56.104Z</time>
      </trkpt>
      <trkpt lat="44.11196" lon="5.9675">
        <ele>543.20001220703</ele>
        <time>2022-01-18T17:13:58.561Z</time>
      </trkpt>
      <trkpt lat="44.11199" lon="5.96741">
        <ele>541</ele>
        <time>2022-01-18T17:14:01.020Z</time>
      </trkpt>
      <trkpt lat="44.11206" lon="5.96746">
        <ele>541</ele>
        <time>2022-01-18T17:14:03.482Z</time>
      </trkpt>
      <trkpt lat="44.11207" lon="5.96738">
        <ele>541</ele>
        <time>2022-01-18T17:14:05.946Z</time>
      </trkpt>
      <trkpt lat="44.1121" lon="5.96738">
        <ele>541</ele>
        <time>2022-01-18T17:14:08.411Z</time>
      </trkpt>
      <trkpt lat="44.11213" lon="5.96733">
        <ele>541</ele>
        <time>2022-01-18T17:14:10.878Z</time>
      </trkpt>
      <trkpt lat="44.11219" lon="5.96738">
        <ele>541</ele>
        <time>2022-01-18T17:14:13.347Z</time>
      </trkpt>
      <trkpt lat="44.11222" lon="5.96736">
        <ele>532</ele>
        <time>2022-01-18T17:14:15.817Z</time>
      </trkpt>
      <trkpt lat="44.1122" lon="5.96727">
        <ele>532</ele>
        <time>2022-01-18T17:14:18.289Z</time>
      </trkpt>
      <trkpt lat="44.11224" lon="5.96722">
        <ele>532</ele>
        <time>2022-01-18T17:14:20.763Z</time>
      </trkpt>
      <trkpt lat="44.11228" lon="5.96731">
        <ele>532</ele>
        <time>2022-01-18T17:14:23.240Z</time>
      </trkpt>
      <trkpt lat="44.1123" lon="5.96739">
        <ele>525.59997558594</ele>
        <time>2022-01-18T17:14:25.719Z</time>
      </trkpt>
      <trkpt lat="44.11229" lon="5.96752">
        <ele>525.59997558594</ele>
        <time>2022-01-18T17:14:28.201Z</time>
      </trkpt>
      <trkpt lat="44.1123" lon="5.9676">
        <ele>525.59997558594</ele>
        <time>2022-01-18T17:14:30.685Z</time>
      </trkpt>
      <trkpt lat="44.11234" lon="5.9676">
        <ele>526</ele>
        <time>2022-01-18T17:14:33.171Z</time>
      </trkpt>
      <trkpt lat="44.11246" lon="5.96755">
        <ele>526</ele>
        <time>2022-01-18T17:14:35.661Z</time>
      </trkpt>
      <trkpt lat="44.11259" lon="5.96753">
        <ele>532.40002441406</ele>
        <time>2022-01-18T17:14:38.156Z</time>
      </trkpt>
      <trkpt lat="44.11261" lon="5.96744">
        <ele>532.40002441406</ele>
        <time>2022-01-18T17:14:40.653Z</time>
      </trkpt>
      <trkpt lat="44.11266" lon="5.96743">
        <ele>535.20001220703</ele>
        <time>2022-01-18T17:14:43.152Z</time>
      </trkpt>
      <trkpt lat="44.11276" lon="5.96752">
        <ele>535.20001220703</ele>
        <time>2022-01-18T17:14:45.655Z</time>
      </trkpt>
      <trkpt lat="44.1128" lon="5.96753">
        <ele>537.40002441406</ele>
        <time>2022-01-18T17:14:48.159Z</time>
      </trkpt>
      <trkpt lat="44.11279" lon="5.96761">
        <ele>537.40002441406</ele>
        <time>2022-01-18T17:14:50.665Z</time>
      </trkpt>
      <trkpt lat="44.1129" lon="5.96775">
        <ele>537.40002441406</ele>
        <time>2022-01-18T17:14:53.176Z</time>
      </trkpt>
      <trkpt lat="44.11295" lon="5.96788">
        <ele>537.59997558594</ele>
        <time>2022-01-18T17:14:55.691Z</time>
      </trkpt>
      <trkpt lat="44.11302" lon="5.96793">
        <ele>537.59997558594</ele>
        <time>2022-01-18T17:14:58.209Z</time>
      </trkpt>
      <trkpt lat="44.11312" lon="5.9679">
        <ele>540</ele>
        <time>2022-01-18T17:15:00.730Z</time>
      </trkpt>
      <trkpt lat="44.11316" lon="5.9679">
        <ele>541.20001220703</ele>
        <time>2022-01-18T17:15:03.253Z</time>
      </trkpt>
      <trkpt lat="44.11319" lon="5.96784">
        <ele>542.59997558594</ele>
        <time>2022-01-18T17:15:05.778Z</time>
      </trkpt>
      <trkpt lat="44.11318" lon="5.96769">
        <ele>542.59997558594</ele>
        <time>2022-01-18T17:15:08.307Z</time>
      </trkpt>
      <trkpt lat="44.1132" lon="5.96748">
        <ele>547</ele>
        <time>2022-01-18T17:15:10.841Z</time>
      </trkpt>
      <trkpt lat="44.11316" lon="5.96724">
        <ele>550.79998779297</ele>
        <time>2022-01-18T17:15:13.381Z</time>
      </trkpt>
      <trkpt lat="44.11316" lon="5.96686">
        <ele>556</ele>
        <time>2022-01-18T17:15:15.931Z</time>
      </trkpt>
      <trkpt lat="44.11321" lon="5.96657">
        <ele>556</ele>
        <time>2022-01-18T17:15:18.488Z</time>
      </trkpt>
      <trkpt lat="44.1133" lon="5.96647">
        <ele>556</ele>
        <time>2022-01-18T17:15:21.049Z</time>
      </trkpt>
      <trkpt lat="44.11331" lon="5.96647">
        <ele>563.59997558594</ele>
        <time>2022-01-18T17:15:23.611Z</time>
      </trkpt>
      <trkpt lat="44.11348" lon="5.96635">
        <ele>563.40002441406</ele>
        <time>2022-01-18T17:15:26.179Z</time>
      </trkpt>
      <trkpt lat="44.11368" lon="5.96625">
        <ele>563.40002441406</ele>
        <time>2022-01-18T17:15:28.755Z</time>
      </trkpt>
      <trkpt lat="44.11383" lon="5.9661">
        <ele>564.59997558594</ele>
        <time>2022-01-18T17:15:31.337Z</time>
      </trkpt>
      <trkpt lat="44.1139" lon="5.96598">
        <ele>566.20001220703</ele>
        <time>2022-01-18T17:15:33.923Z</time>
      </trkpt>
      <trkpt lat="44.11407" lon="5.96583">
        <ele>568.59997558594</ele>
        <time>2022-01-18T17:15:36.516Z</time>
      </trkpt>
      <trkpt lat="44.1142" lon="5.96567">
        <ele>568.59997558594</ele>
        <time>2022-01-18T17:15:39.115Z</time>
      </trkpt>
      <trkpt lat="44.11422" lon="5.9656">
        <ele>569</ele>
        <time>2022-01-18T17:15:41.716Z</time>
      </trkpt>
      <trkpt lat="44.1142" lon="5.9655">
        <ele>569</ele>
        <time>2022-01-18T17:15:44.320Z</time>
      </trkpt>
      <trkpt lat="44.11408" lon="5.96521">
        <ele>569</ele>
        <time>2022-01-18T17:15:46.932Z</time>
      </trkpt>
      <trkpt lat="44.11356" lon="5.96423">
        <ele>570.40002441406</ele>
        <time>2022-01-18T17:15:49.575Z</time>
      </trkpt>
      <trkpt lat="44.11348" lon="5.964">
        <ele>570.40002441406</ele>
        <time>2022-01-18T17:15:52.224Z</time>
      </trkpt>
      <trkpt lat="44.11348" lon="5.96374">
        <ele>570.59997558594</ele>
        <time>2022-01-18T17:15:54.880Z</time>
      </trkpt>
      <trkpt lat="44.11384" lon="5.96305">
        <ele>570.59997558594</ele>
        <time>2022-01-18T17:15:57.557Z</time>
      </trkpt>
      <trkpt lat="44.11391" lon="5.96278">
        <ele>569.40002441406</ele>
        <time>2022-01-18T17:16:00.241Z</time>
      </trkpt>
      <trkpt lat="44.11394" lon="5.96274">
        <ele>569.20001220703</ele>
        <time>2022-01-18T17:16:02.927Z</time>
      </trkpt>
      <trkpt lat="44.11375" lon="5.96272">
        <ele>569.20001220703</ele>
        <time>2022-01-18T17:16:05.620Z</time>
      </trkpt>
      <trkpt lat="44.11363" lon="5.96273">
        <ele>572.79998779297</ele>
        <time>2022-01-18T17:16:08.317Z</time>
      </trkpt>
      <trkpt lat="44.11351" lon="5.96274">
        <ele>572.79998779297</ele>
        <time>2022-01-18T17:16:11.018Z</time>
      </trkpt>
      <trkpt lat="44.11339" lon="5.9628">
        <ele>579.40002441406</ele>
        <time>2022-01-18T17:16:13.723Z</time>
      </trkpt>
      <trkpt lat="44.11325" lon="5.96282">
        <ele>579.40002441406</ele>
        <time>2022-01-18T17:16:16.433Z</time>
      </trkpt>
      <trkpt lat="44.11299" lon="5.9628">
        <ele>579.40002441406</ele>
        <time>2022-01-18T17:16:19.152Z</time>
      </trkpt>
      <trkpt lat="44.11292" lon="5.96279">
        <ele>586.59997558594</ele>
        <time>2022-01-18T17:16:21.874Z</time>
      </trkpt>
      <trkpt lat="44.11283" lon="5.96275">
        <ele>587</ele>
        <time>2022-01-18T17:16:24.599Z</time>
      </trkpt>
      <trkpt lat="44.11272" lon="5.96266">
        <ele>587</ele>
        <time>2022-01-18T17:16:27.329Z</time>
      </trkpt>
      <trkpt lat="44.11246" lon="5.96226">
        <ele>587</ele>
        <time>2022-01-18T17:16:30.072Z</time>
      </trkpt>
      <trkpt lat="44.11219" lon="5.96196">
        <ele>599.59997558594</ele>
        <time>2022-01-18T17:16:32.827Z</time>
      </trkpt>
      <trkpt lat="44.11208" lon="5.96174">
        <ele>599.59997558594</ele>
        <time>2022-01-18T17:16:35.589Z</time>
      </trkpt>
      <trkpt lat="44.11202" lon="5.9617">
        <ele>604.59997558594</ele>
        <time>2022-01-18T17:16:38.353Z</time>
      </trkpt>
      <trkpt lat="44.11189" lon="5.96166">
        <ele>604.59997558594</ele>
        <time>2022-01-18T17:16:41.122Z</time>
      </trkpt>
      <trkpt lat="44.11166" lon="5.9615">
        <ele>604.59997558594</ele>
        <time>2022-01-18T17:16:43.900Z</time>
      </trkpt>
      <trkpt lat="44.11081" lon="5.961">
        <ele>604.59997558594</ele>
        <time>2022-01-18T17:16:46.710Z</time>
      </trkpt>
      <trkpt lat="44.1107" lon="5.96089">
        <ele>604.59997558594</ele>
        <time>2022-01-18T17:16:49.525Z</time>
      </trkpt>
      <trkpt lat="44.11067" lon="5.96083">
        <ele>614.40002441406</ele>
        <time>2022-01-18T17:16:52.342Z</time>
      </trkpt>
      <trkpt lat="44.11064" lon="5.96068">
        <ele>614.40002441406</ele>
        <time>2022-01-18T17:16:55.162Z</time>
      </trkpt>
      <trkpt lat="44.11064" lon="5.96056">
        <ele>614.40002441406</ele>
        <time>2022-01-18T17:16:57.985Z</time>
      </trkpt>
      <trkpt lat="44.11053" lon="5.96047">
        <ele>619.59997558594</ele>
        <time>2022-01-18T17:17:00.813Z</time>
      </trkpt>
      <trkpt lat="44.1104" lon="5.9605">
        <ele>619.40002441406</ele>
        <time>2022-01-18T17:17:03.645Z</time>
      </trkpt>
      <trkpt lat="44.11022" lon="5.96047">
        <ele>618.20001220703</ele>
        <time>2022-01-18T17:17:06.484Z</time>
      </trkpt>
      <trkpt lat="44.10997" lon="5.96032">
        <ele>619.40002441406</ele>
        <time>2022-01-18T17:17:09.332Z</time>
      </trkpt>
      <trkpt lat="44.1099" lon="5.96031">
        <ele>619.40002441406</ele>
        <time>2022-01-18T17:17:12.183Z</time>
      </trkpt>
      <trkpt lat="44.10983" lon="5.96026">
        <ele>620.40002441406</ele>
        <time>2022-01-18T17:17:15.037Z</time>
      </trkpt>
      <trkpt lat="44.10975" lon="5.96015">
        <ele>624.40002441406</ele>
        <time>2022-01-18T17:17:17.894Z</time>
      </trkpt>
      <trkpt lat="44.1097" lon="5.96013">
        <ele>624.40002441406</ele>
        <time>2022-01-18T17:17:20.753Z</time>
      </trkpt>
      <trkpt lat="44.10954" lon="5.96014">
        <ele>624.40002441406</ele>
        <time>2022-01-18T17:17:23.618Z</time>
      </trkpt>
      <trkpt lat="44.10931" lon="5.96018">
        <ele>624.40002441406</ele>
        <time>2022-01-18T17:17:26.491Z</time>
      </trkpt>
      <trkpt lat="44.10911" lon="5.96027">
        <ele>624.40002441406</ele>
        <time>2022-01-18T17:17:29.371Z</time>
      </trkpt>
      <trkpt lat="44.10887" lon="5.96031">
        <ele>624.20001220703</ele>
        <time>2022-01-18T17:17:32.260Z</time>
      </trkpt>
      <trkpt lat="44.1088" lon="5.96037">
        <ele>624.20001220703</ele>
        <time>2022-01-18T17:17:35.151Z</time>
      </trkpt>
      <trkpt lat="44.10876" lon="5.96036">
        <ele>623.40002441406</ele>
        <time>2022-01-18T17:17:38.044Z</time>
      </trkpt>
      <trkpt lat="44.10871" lon="5.96033">
        <ele>623.40002441406</ele>
        <time>2022-01-18T17:17:40.939Z</time>
      </trkpt>
      <trkpt lat="44.10866" lon="5.96041">
        <ele>622.79998779297</ele>
        <time>2022-01-18T17:17:43.836Z</time>
      </trkpt>
      <trkpt lat="44.1086" lon="5.96063">
        <ele>616.59997558594</ele>
        <time>2022-01-18T17:17:46.739Z</time>
      </trkpt>
      <trkpt lat="44.10858" lon="5.96062">
        <ele>616.59997558594</ele>
        <time>2022-01-18T17:17:49.643Z</time>
      </trkpt>
      <trkpt lat="44.10852" lon="5.96053">
        <ele>616.59997558594</ele>
        <time>2022-01-18T17:17:52.550Z</time>
      </trkpt>
      <trkpt lat="44.10844" lon="5.96049">
        <ele>610.59997558594</ele>
        <time>2022-01-18T17:17:55.460Z</time>
      </trkpt>
      <trkpt lat="44.10836" lon="5.96041">
        <ele>608</ele>
        <time>2022-01-18T17:17:58.374Z</time>
      </trkpt>
      <trkpt lat="44.10828" lon="5.96028">
        <ele>608</ele>
        <time>2022-01-18T17:18:01.292Z</time>
      </trkpt>
      <trkpt lat="44.10827" lon="5.96018">
        <ele>605.79998779297</ele>
        <time>2022-01-18T17:18:04.212Z</time>
      </trkpt>
      <trkpt lat="44.10822" lon="5.96007">
        <ele>604.20001220703</ele>
        <time>2022-01-18T17:18:07.136Z</time>
      </trkpt>
      <trkpt lat="44.1082" lon="5.95972">
        <ele>604.20001220703</ele>
        <time>2022-01-18T17:18:10.069Z</time>
      </trkpt>
      <trkpt lat="44.10818" lon="5.95964">
        <ele>605.20001220703</ele>
        <time>2022-01-18T17:18:13.004Z</time>
      </trkpt>
      <trkpt lat="44.1081" lon="5.9595">
        <ele>606.79998779297</ele>
        <time>2022-01-18T17:18:15.943Z</time>
      </trkpt>
      <trkpt lat="44.10802" lon="5.95936">
        <ele>606.79998779297</ele>
        <time>2022-01-18T17:18:18.887Z</time>
      </trkpt>
      <trkpt lat="44.1079" lon="5.95923">
        <ele>606.79998779297</ele>
        <time>2022-01-18T17:18:21.836Z</time>
      </trkpt>
      <trkpt lat="44.10777" lon="5.95916">
        <ele>606.79998779297</ele>
        <time>2022-01-18T17:18:24.790Z</time>
      </trkpt>
      <trkpt lat="44.1077" lon="5.95908">
        <ele>606.79998779297</ele>
        <time>2022-01-18T17:18:27.747Z</time>
      </trkpt>
      <trkpt lat="44.10763" lon="5.95909">
        <ele>606.79998779297</ele>
        <time>2022-01-18T17:18:30.706Z</time>
      </trkpt>
      <trkpt lat="44.10753" lon="5.95918">
        <ele>606.79998779297</ele>
        <time>2022-01-18T17:18:33.670Z</time>
      </trkpt>
      <trkpt lat="44.10745" lon="5.95922">
        <ele>603.79998779297</ele>
        <time>2022-01-18T17:18:36.637Z</time>
      </trkpt>
      <trkpt lat="44.10728" lon="5.95923">
        <ele>603.79998779297</ele>
        <time>2022-01-18T17:18:39.609Z</time>
      </trkpt>
      <trkpt lat="44.10719" lon="5.95931">
        <ele>603.59997558594</ele>
        <time>2022-01-18T17:18:42.585Z</time>
      </trkpt>
      <trkpt lat="44.1071" lon="5.95933">
        <ele>603.59997558594</ele>
        <time>2022-01-18T17:18:45.564Z</time>
      </trkpt>
      <trkpt lat="44.10666" lon="5.95927">
        <ele>603.59997558594</ele>
        <time>2022-01-18T17:18:48.559Z</time>
      </trkpt>
      <trkpt lat="44.10643" lon="5.95915">
        <ele>611.40002441406</ele>
        <time>2022-01-18T17:18:51.562Z</time>
      </trkpt>
      <trkpt lat="44.10636" lon="5.95917">
        <ele>613.20001220703</ele>
        <time>2022-01-18T17:18:54.568Z</time>
      </trkpt>
      <trkpt lat="44.10633" lon="5.95922">
        <ele>613.20001220703</ele>
        <time>2022-01-18T17:18:57.575Z</time>
      </trkpt>
      <trkpt lat="44.1064" lon="5.95932">
        <ele>614.79998779297</ele>
        <time>2022-01-18T17:19:00.586Z</time>
      </trkpt>
      <trkpt lat="44.10636" lon="5.95937">
        <ele>614.79998779297</ele>
        <time>2022-01-18T17:19:03.598Z</time>
      </trkpt>
      <trkpt lat="44.10634" lon="5.95945">
        <ele>613.79998779297</ele>
        <time>2022-01-18T17:19:06.613Z</time>
      </trkpt>
      <trkpt lat="44.10635" lon="5.95955">
        <ele>612.40002441406</ele>
        <time>2022-01-18T17:19:09.630Z</time>
      </trkpt>
      <trkpt lat="44.10632" lon="5.95963">
        <ele>609.20001220703</ele>
        <time>2022-01-18T17:19:12.649Z</time>
      </trkpt>
      <trkpt lat="44.10631" lon="5.95976">
        <ele>609.20001220703</ele>
        <time>2022-01-18T17:19:15.672Z</time>
      </trkpt>
      <trkpt lat="44.10619" lon="5.95979">
        <ele>612.59997558594</ele>
        <time>2022-01-18T17:19:18.699Z</time>
      </trkpt>
      <trkpt lat="44.10608" lon="5.95984">
        <ele>615</ele>
        <time>2022-01-18T17:19:21.730Z</time>
      </trkpt>
      <trkpt lat="44.10602" lon="5.95994">
        <ele>615</ele>
        <time>2022-01-18T17:19:24.764Z</time>
      </trkpt>
      <trkpt lat="44.10599" lon="5.95996">
        <ele>619.40002441406</ele>
        <time>2022-01-18T17:19:27.799Z</time>
      </trkpt>
      <trkpt lat="44.10595" lon="5.95993">
        <ele>621.20001220703</ele>
        <time>2022-01-18T17:19:30.836Z</time>
      </trkpt>
      <trkpt lat="44.10594" lon="5.95981">
        <ele>621.20001220703</ele>
        <time>2022-01-18T17:19:33.876Z</time>
      </trkpt>
      <trkpt lat="44.10591" lon="5.95975">
        <ele>625.20001220703</ele>
        <time>2022-01-18T17:19:36.918Z</time>
      </trkpt>
      <trkpt lat="44.10583" lon="5.95971">
        <ele>627</ele>
        <time>2022-01-18T17:19:39.963Z</time>
      </trkpt>
      <trkpt lat="44.10575" lon="5.95972">
        <ele>627</ele>
        <time>2022-01-18T17:19:43.011Z</time>
      </trkpt>
      <trkpt lat="44.1056" lon="5.95971">
        <ele>627</ele>
        <time>2022-01-18T17:19:46.064Z</time>
      </trkpt>
      <trkpt lat="44.10554" lon="5.95964">
        <ele>630.59997558594</ele>
        <time>2022-01-18T17:19:49.119Z</time>
      </trkpt>
      <trkpt lat="44.10553" lon="5.95957">
        <ele>630.59997558594</ele>
        <time>2022-01-18T17:19:52.176Z</time>
      </trkpt>
      <trkpt lat="44.10556" lon="5.95953">
        <ele>630.59997558594</ele>
        <time>2022-01-18T17:19:55.235Z</time>
      </trkpt>
      <trkpt lat="44.1056" lon="5.95954">
        <ele>634.40002441406</ele>
        <time>2022-01-18T17:19:58.295Z</time>
      </trkpt>
      <trkpt lat="44.10567" lon="5.95942">
        <ele>638.79998779297</ele>
        <time>2022-01-18T17:20:01.359Z</time>
      </trkpt>
      <trkpt lat="44.10569" lon="5.95935">
        <ele>640.20001220703</ele>
        <time>2022-01-18T17:20:04.425Z</time>
      </trkpt>
      <trkpt lat="44.10567" lon="5.95931">
        <ele>640.20001220703</ele>
        <time>2022-01-18T17:20:07.492Z</time>
      </trkpt>
      <trkpt lat="44.10559" lon="5.95926">
        <ele>643.79998779297</ele>
        <time>2022-01-18T17:20:10.562Z</time>
      </trkpt>
      <trkpt lat="44.10552" lon="5.95924">
        <ele>643.79998779297</ele>
        <time>2022-01-18T17:20:13.635Z</time>
      </trkpt>
      <trkpt lat="44.10542" lon="5.95924">
        <ele>643.79998779297</ele>
        <time>2022-01-18T17:20:16.711Z</time>
      </trkpt>
      <trkpt lat="44.10537" lon="5.95915">
        <ele>650.59997558594</ele>
        <time>2022-01-18T17:20:19.790Z</time>
      </trkpt>
      <trkpt lat="44.10531" lon="5.9591">
        <ele>650.59997558594</ele>
        <time>2022-01-18T17:20:22.872Z</time>
      </trkpt>
      <trkpt lat="44.10527" lon="5.95909">
        <ele>652.59997558594</ele>
        <time>2022-01-18T17:20:25.955Z</time>
      </trkpt>
      <trkpt lat="44.10508" lon="5.95916">
        <ele>653.40002441406</ele>
        <time>2022-01-18T17:20:29.045Z</time>
      </trkpt>
      <trkpt lat="44.10481" lon="5.95922">
        <ele>654.20001220703</ele>
        <time>2022-01-18T17:20:32.144Z</time>
      </trkpt>
      <trkpt lat="44.10466" lon="5.95932">
        <ele>654.20001220703</ele>
        <time>2022-01-18T17:20:35.250Z</time>
      </trkpt>
      <trkpt lat="44.10444" lon="5.95941">
        <ele>654.20001220703</ele>
        <time>2022-01-18T17:20:38.363Z</time>
      </trkpt>
      <trkpt lat="44.1044" lon="5.95942">
        <ele>649</ele>
        <time>2022-01-18T17:20:41.478Z</time>
      </trkpt>
      <trkpt lat="44.10429" lon="5.95941">
        <ele>648.20001220703</ele>
        <time>2022-01-18T17:20:44.597Z</time>
      </trkpt>
      <trkpt lat="44.10416" lon="5.95946">
        <ele>648.20001220703</ele>
        <time>2022-01-18T17:20:47.720Z</time>
      </trkpt>
      <trkpt lat="44.10402" lon="5.95944">
        <ele>648.20001220703</ele>
        <time>2022-01-18T17:20:50.848Z</time>
      </trkpt>
      <trkpt lat="44.10392" lon="5.95946">
        <ele>657</ele>
        <time>2022-01-18T17:20:53.980Z</time>
      </trkpt>
      <trkpt lat="44.10374" lon="5.95957">
        <ele>657</ele>
        <time>2022-01-18T17:20:57.119Z</time>
      </trkpt>
      <trkpt lat="44.10356" lon="5.95961">
        <ele>657</ele>
        <time>2022-01-18T17:21:00.264Z</time>
      </trkpt>
      <trkpt lat="44.10316" lon="5.95982">
        <ele>655.59997558594</ele>
        <time>2022-01-18T17:21:03.424Z</time>
      </trkpt>
      <trkpt lat="44.10307" lon="5.95979">
        <ele>655.40002441406</ele>
        <time>2022-01-18T17:21:06.587Z</time>
      </trkpt>
      <trkpt lat="44.103" lon="5.95983">
        <ele>655.40002441406</ele>
        <time>2022-01-18T17:21:09.753Z</time>
      </trkpt>
      <trkpt lat="44.10267" lon="5.95988">
        <ele>655.40002441406</ele>
        <time>2022-01-18T17:21:12.930Z</time>
      </trkpt>
      <trkpt lat="44.10252" lon="5.95995">
        <ele>655.40002441406</ele>
        <time>2022-01-18T17:21:16.113Z</time>
      </trkpt>
      <trkpt lat="44.10239" lon="5.96004">
        <ele>654.59997558594</ele>
        <time>2022-01-18T17:21:19.301Z</time>
      </trkpt>
      <trkpt lat="44.10231" lon="5.96012">
        <ele>653.40002441406</ele>
        <time>2022-01-18T17:21:22.492Z</time>
      </trkpt>
      <trkpt lat="44.10224" lon="5.96025">
        <ele>653.40002441406</ele>
        <time>2022-01-18T17:21:25.688Z</time>
      </trkpt>
      <trkpt lat="44.10229" lon="5.96003">
        <ele>653.40002441406</ele>
        <time>2022-01-18T17:21:28.889Z</time>
      </trkpt>
      <trkpt lat="44.10234" lon="5.95996">
        <ele>653.40002441406</ele>
        <time>2022-01-18T17:21:32.093Z</time>
      </trkpt>
      <trkpt lat="44.10258" lon="5.95983">
        <ele>659.20001220703</ele>
        <time>2022-01-18T17:21:35.306Z</time>
      </trkpt>
      <trkpt lat="44.10285" lon="5.95977">
        <ele>659.20001220703</ele>
        <time>2022-01-18T17:21:38.529Z</time>
      </trkpt>
      <trkpt lat="44.10294" lon="5.9597">
        <ele>661.20001220703</ele>
        <time>2022-01-18T17:21:41.755Z</time>
      </trkpt>
      <trkpt lat="44.10302" lon="5.95965">
        <ele>662</ele>
        <time>2022-01-18T17:21:44.984Z</time>
      </trkpt>
      <trkpt lat="44.10307" lon="5.95959">
        <ele>662.59997558594</ele>
        <time>2022-01-18T17:21:48.216Z</time>
      </trkpt>
      <trkpt lat="44.10305" lon="5.95954">
        <ele>662.59997558594</ele>
        <time>2022-01-18T17:21:51.449Z</time>
      </trkpt>
      <trkpt lat="44.10297" lon="5.95956">
        <ele>662.59997558594</ele>
        <time>2022-01-18T17:21:54.685Z</time>
      </trkpt>
      <trkpt lat="44.10282" lon="5.95955">
        <ele>662.59997558594</ele>
        <time>2022-01-18T17:21:57.926Z</time>
      </trkpt>
      <trkpt lat="44.10269" lon="5.95959">
        <ele>662.59997558594</ele>
        <time>2022-01-18T17:22:01.172Z</time>
      </trkpt>
      <trkpt lat="44.10252" lon="5.95955">
        <ele>662.59997558594</ele>
        <time>2022-01-18T17:22:04.424Z</time>
      </trkpt>
      <trkpt lat="44.10245" lon="5.95951">
        <ele>667</ele>
        <time>2022-01-18T17:22:07.678Z</time>
      </trkpt>
      <trkpt lat="44.10245" lon="5.95949">
        <ele>667</ele>
        <time>2022-01-18T17:22:10.933Z</time>
      </trkpt>
      <trkpt lat="44.10253" lon="5.95946">
        <ele>668.40002441406</ele>
        <time>2022-01-18T17:22:14.191Z</time>
      </trkpt>
      <trkpt lat="44.1027" lon="5.95942">
        <ele>669.40002441406</ele>
        <time>2022-01-18T17:22:17.455Z</time>
      </trkpt>
      <trkpt lat="44.10277" lon="5.95938">
        <ele>669.40002441406</ele>
        <time>2022-01-18T17:22:20.721Z</time>
      </trkpt>
      <trkpt lat="44.10279" lon="5.95929">
        <ele>670.59997558594</ele>
        <time>2022-01-18T17:22:23.990Z</time>
      </trkpt>
      <trkpt lat="44.10295" lon="5.95922">
        <ele>671.79998779297</ele>
        <time>2022-01-18T17:22:27.265Z</time>
      </trkpt>
      <trkpt lat="44.10301" lon="5.95914">
        <ele>671.79998779297</ele>
        <time>2022-01-18T17:22:30.542Z</time>
      </trkpt>
      <trkpt lat="44.103" lon="5.95911">
        <ele>672</ele>
        <time>2022-01-18T17:22:33.820Z</time>
      </trkpt>
      <trkpt lat="44.10293" lon="5.95901">
        <ele>672.59997558594</ele>
        <time>2022-01-18T17:22:37.102Z</time>
      </trkpt>
      <trkpt lat="44.10287" lon="5.95898">
        <ele>672.59997558594</ele>
        <time>2022-01-18T17:22:40.386Z</time>
      </trkpt>
      <trkpt lat="44.10278" lon="5.95901">
        <ele>673.79998779297</ele>
        <time>2022-01-18T17:22:43.673Z</time>
      </trkpt>
      <trkpt lat="44.10268" lon="5.95892">
        <ele>674.40002441406</ele>
        <time>2022-01-18T17:22:46.964Z</time>
      </trkpt>
      <trkpt lat="44.10258" lon="5.95887">
        <ele>674.79998779297</ele>
        <time>2022-01-18T17:22:50.259Z</time>
      </trkpt>
      <trkpt lat="44.10229" lon="5.95861">
        <ele>675.40002441406</ele>
        <time>2022-01-18T17:22:53.566Z</time>
      </trkpt>
      <trkpt lat="44.10225" lon="5.95855">
        <ele>675.40002441406</ele>
        <time>2022-01-18T17:22:56.875Z</time>
      </trkpt>
      <trkpt lat="44.10222" lon="5.95848">
        <ele>674.79998779297</ele>
        <time>2022-01-18T17:23:00.186Z</time>
      </trkpt>
      <trkpt lat="44.10221" lon="5.95833">
        <ele>674.79998779297</ele>
        <time>2022-01-18T17:23:03.501Z</time>
      </trkpt>
      <trkpt lat="44.10228" lon="5.95815">
        <ele>674.79998779297</ele>
        <time>2022-01-18T17:23:06.821Z</time>
      </trkpt>
      <trkpt lat="44.10231" lon="5.95796">
        <ele>674.79998779297</ele>
        <time>2022-01-18T17:23:10.146Z</time>
      </trkpt>
      <trkpt lat="44.10235" lon="5.9578">
        <ele>674.79998779297</ele>
        <time>2022-01-18T17:23:13.475Z</time>
      </trkpt>
      <trkpt lat="44.10246" lon="5.95761">
        <ele>680.59997558594</ele>
        <time>2022-01-18T17:23:16.810Z</time>
      </trkpt>
      <trkpt lat="44.10252" lon="5.95755">
        <ele>680.59997558594</ele>
        <time>2022-01-18T17:23:20.148Z</time>
      </trkpt>
      <trkpt lat="44.10263" lon="5.95752">
        <ele>680.59997558594</ele>
        <time>2022-01-18T17:23:23.490Z</time>
      </trkpt>
      <trkpt lat="44.1029" lon="5.95736">
        <ele>684.20001220703</ele>
        <time>2022-01-18T17:23:26.842Z</time>
      </trkpt>
      <trkpt lat="44.10286" lon="5.9573">
        <ele>684.20001220703</ele>
        <time>2022-01-18T17:23:30.196Z</time>
      </trkpt>
      <trkpt lat="44.10258" lon="5.95719">
        <ele>686.20001220703</ele>
        <time>2022-01-18T17:23:33.560Z</time>
      </trkpt>
      <trkpt lat="44.10236" lon="5.95699">
        <ele>686.20001220703</ele>
        <time>2022-01-18T17:23:36.933Z</time>
      </trkpt>
      <trkpt lat="44.10223" lon="5.95684">
        <ele>690.40002441406</ele>
        <time>2022-01-18T17:23:40.312Z</time>
      </trkpt>
      <trkpt lat="44.10215" lon="5.95666">
        <ele>690.40002441406</ele>
        <time>2022-01-18T17:23:43.696Z</time>
      </trkpt>
      <trkpt lat="44.10209" lon="5.95615">
        <ele>691.79998779297</ele>
        <time>2022-01-18T17:23:47.093Z</time>
      </trkpt>
      <trkpt lat="44.10208" lon="5.95593">
        <ele>691.79998779297</ele>
        <time>2022-01-18T17:23:50.496Z</time>
      </trkpt>
      <trkpt lat="44.10215" lon="5.95572">
        <ele>691.79998779297</ele>
        <time>2022-01-18T17:23:53.905Z</time>
      </trkpt>
      <trkpt lat="44.1023" lon="5.95544">
        <ele>691.79998779297</ele>
        <time>2022-01-18T17:23:57.323Z</time>
      </trkpt>
      <trkpt lat="44.10234" lon="5.95534">
        <ele>697</ele>
        <time>2022-01-18T17:24:00.743Z</time>
      </trkpt>
      <trkpt lat="44.1023" lon="5.95527">
        <ele>698</ele>
        <time>2022-01-18T17:24:04.166Z</time>
      </trkpt>
      <trkpt lat="44.10221" lon="5.95522">
        <ele>698</ele>
        <time>2022-01-18T17:24:07.592Z</time>
      </trkpt>
      <trkpt lat="44.10207" lon="5.95523">
        <ele>698</ele>
        <time>2022-01-18T17:24:11.023Z</time>
      </trkpt>
      <trkpt lat="44.102" lon="5.95525">
        <ele>698</ele>
        <time>2022-01-18T17:24:14.456Z</time>
      </trkpt>
      <trkpt lat="44.10176" lon="5.95551">
        <ele>698</ele>
        <time>2022-01-18T17:24:17.900Z</time>
      </trkpt>
      <trkpt lat="44.10173" lon="5.95552">
        <ele>701.40002441406</ele>
        <time>2022-01-18T17:24:21.345Z</time>
      </trkpt>
      <trkpt lat="44.10168" lon="5.95548">
        <ele>701.40002441406</ele>
        <time>2022-01-18T17:24:24.792Z</time>
      </trkpt>
      <trkpt lat="44.10165" lon="5.95541">
        <ele>702</ele>
        <time>2022-01-18T17:24:28.241Z</time>
      </trkpt>
      <trkpt lat="44.10158" lon="5.95519">
        <ele>705.40002441406</ele>
        <time>2022-01-18T17:24:31.696Z</time>
      </trkpt>
      <trkpt lat="44.10155" lon="5.95516">
        <ele>706.20001220703</ele>
        <time>2022-01-18T17:24:35.152Z</time>
      </trkpt>
      <trkpt lat="44.10153" lon="5.95517">
        <ele>706.20001220703</ele>
        <time>2022-01-18T17:24:38.609Z</time>
      </trkpt>
      <trkpt lat="44.10142" lon="5.95531">
        <ele>706.20001220703</ele>
        <time>2022-01-18T17:24:42.071Z</time>
      </trkpt>
      <trkpt lat="44.10135" lon="5.95533">
        <ele>706.20001220703</ele>
        <time>2022-01-18T17:24:45.536Z</time>
      </trkpt>
      <trkpt lat="44.10129" lon="5.95542">
        <ele>706.20001220703</ele>
        <time>2022-01-18T17:24:49.004Z</time>
      </trkpt>
      <trkpt lat="44.10104" lon="5.95561">
        <ele>706.20001220703</ele>
        <time>2022-01-18T17:24:52.482Z</time>
      </trkpt>
      <trkpt lat="44.10083" lon="5.95574">
        <ele>707.79998779297</ele>
        <time>2022-01-18T17:24:55.968Z</time>
      </trkpt>
      <trkpt lat="44.1006" lon="5.95585">
        <ele>707.79998779297</ele>
        <time>2022-01-18T17:24:59.462Z</time>
      </trkpt>
      <trkpt lat="44.10048" lon="5.95589">
        <ele>707.79998779297</ele>
        <time>2022-01-18T17:25:02.961Z</time>
      </trkpt>
      <trkpt lat="44.10041" lon="5.95598">
        <ele>704</ele>
        <time>2022-01-18T17:25:06.463Z</time>
      </trkpt>
      <trkpt lat="44.10024" lon="5.95629">
        <ele>702</ele>
        <time>2022-01-18T17:25:09.975Z</time>
      </trkpt>
      <trkpt lat="44.10016" lon="5.95649">
        <ele>699.40002441406</ele>
        <time>2022-01-18T17:25:13.492Z</time>
      </trkpt>
      <trkpt lat="44.10016" lon="5.95656">
        <ele>699.40002441406</ele>
        <time>2022-01-18T17:25:17.011Z</time>
      </trkpt>
      <trkpt lat="44.1003" lon="5.95677">
        <ele>699.40002441406</ele>
        <time>2022-01-18T17:25:20.538Z</time>
      </trkpt>
      <trkpt lat="44.10037" lon="5.95694">
        <ele>699.40002441406</ele>
        <time>2022-01-18T17:25:24.069Z</time>
      </trkpt>
      <trkpt lat="44.10038" lon="5.95715">
        <ele>693</ele>
        <time>2022-01-18T17:25:27.606Z</time>
      </trkpt>
      <trkpt lat="44.10032" lon="5.95796">
        <ele>693</ele>
        <time>2022-01-18T17:25:31.163Z</time>
      </trkpt>
      <trkpt lat="44.1003" lon="5.95803">
        <ele>686.79998779297</ele>
        <time>2022-01-18T17:25:34.722Z</time>
      </trkpt>
      <trkpt lat="44.10016" lon="5.95824">
        <ele>686.79998779297</ele>
        <time>2022-01-18T17:25:38.288Z</time>
      </trkpt>
      <trkpt lat="44.09981" lon="5.95857">
        <ele>683.40002441406</ele>
        <time>2022-01-18T17:25:41.869Z</time>
      </trkpt>
      <trkpt lat="44.09975" lon="5.95865">
        <ele>682.40002441406</ele>
        <time>2022-01-18T17:25:45.453Z</time>
      </trkpt>
      <trkpt lat="44.09966" lon="5.95872">
        <ele>682.40002441406</ele>
        <time>2022-01-18T17:25:49.041Z</time>
      </trkpt>
      <trkpt lat="44.09943" lon="5.95878">
        <ele>682.40002441406</ele>
        <time>2022-01-18T17:25:52.637Z</time>
      </trkpt>
      <trkpt lat="44.09933" lon="5.95885">
        <ele>675</ele>
        <time>2022-01-18T17:25:56.237Z</time>
      </trkpt>
      <trkpt lat="44.09925" lon="5.95893">
        <ele>675</ele>
        <time>2022-01-18T17:25:59.840Z</time>
      </trkpt>
      <trkpt lat="44.09912" lon="5.95903">
        <ele>672.79998779297</ele>
        <time>2022-01-18T17:26:03.448Z</time>
      </trkpt>
      <trkpt lat="44.09887" lon="5.95909">
        <ele>672.79998779297</ele>
        <time>2022-01-18T17:26:07.065Z</time>
      </trkpt>
      <trkpt lat="44.09882" lon="5.95912">
        <ele>670.79998779297</ele>
        <time>2022-01-18T17:26:10.684Z</time>
      </trkpt>
      <trkpt lat="44.09862" lon="5.95932">
        <ele>670.79998779297</ele>
        <time>2022-01-18T17:26:14.312Z</time>
      </trkpt>
      <trkpt lat="44.09838" lon="5.95946">
        <ele>670.79998779297</ele>
        <time>2022-01-18T17:26:17.948Z</time>
      </trkpt>
      <trkpt lat="44.09818" lon="5.9595">
        <ele>666.40002441406</ele>
        <time>2022-01-18T17:26:21.592Z</time>
      </trkpt>
      <trkpt lat="44.09779" lon="5.95946">
        <ele>667</ele>
        <time>2022-01-18T17:26:25.249Z</time>
      </trkpt>
      <trkpt lat="44.09773" lon="5.95948">
        <ele>667</ele>
        <time>2022-01-18T17:26:28.908Z</time>
      </trkpt>
      <trkpt lat="44.09751" lon="5.95966">
        <ele>667</ele>
        <time>2022-01-18T17:26:32.576Z</time>
      </trkpt>
      <trkpt lat="44.09723" lon="5.95977">
        <ele>667</ele>
        <time>2022-01-18T17:26:36.255Z</time>
      </trkpt>
      <trkpt lat="44.09688" lon="5.95981">
        <ele>667</ele>
        <time>2022-01-18T17:26:39.946Z</time>
      </trkpt>
      <trkpt lat="44.09655" lon="5.95979">
        <ele>666</ele>
        <time>2022-01-18T17:26:43.648Z</time>
      </trkpt>
      <trkpt lat="44.09645" lon="5.9598">
        <ele>666</ele>
        <time>2022-01-18T17:26:47.354Z</time>
      </trkpt>
      <trkpt lat="44.09613" lon="5.9599">
        <ele>666</ele>
        <time>2022-01-18T17:26:51.071Z</time>
      </trkpt>
      <trkpt lat="44.09607" lon="5.95994">
        <ele>666</ele>
        <time>2022-01-18T17:26:54.791Z</time>
      </trkpt>
      <trkpt lat="44.09589" lon="5.96021">
        <ele>666.40002441406</ele>
        <time>2022-01-18T17:26:58.520Z</time>
      </trkpt>
      <trkpt lat="44.0958" lon="5.96031">
        <ele>666.40002441406</ele>
        <time>2022-01-18T17:27:02.253Z</time>
      </trkpt>
      <trkpt lat="44.0956" lon="5.96051">
        <ele>662.20001220703</ele>
        <time>2022-01-18T17:27:05.995Z</time>
      </trkpt>
      <trkpt lat="44.09552" lon="5.96054">
        <ele>662.20001220703</ele>
        <time>2022-01-18T17:27:09.739Z</time>
      </trkpt>
      <trkpt lat="44.09544" lon="5.9606">
        <ele>661.40002441406</ele>
        <time>2022-01-18T17:27:13.486Z</time>
      </trkpt>
      <trkpt lat="44.09528" lon="5.96075">
        <ele>661.20001220703</ele>
        <time>2022-01-18T17:27:17.240Z</time>
      </trkpt>
      <trkpt lat="44.09526" lon="5.96079">
        <ele>661.20001220703</ele>
        <time>2022-01-18T17:27:20.995Z</time>
      </trkpt>
      <trkpt lat="44.09517" lon="5.96088">
        <ele>660</ele>
        <time>2022-01-18T17:27:24.754Z</time>
      </trkpt>
      <trkpt lat="44.09511" lon="5.96099">
        <ele>660</ele>
        <time>2022-01-18T17:27:28.517Z</time>
      </trkpt>
      <trkpt lat="44.09502" lon="5.9614">
        <ele>654</ele>
        <time>2022-01-18T17:27:32.291Z</time>
      </trkpt>
      <trkpt lat="44.09494" lon="5.96153">
        <ele>651.40002441406</ele>
        <time>2022-01-18T17:27:36.069Z</time>
      </trkpt>
      <trkpt lat="44.0949" lon="5.96158">
        <ele>651.40002441406</ele>
        <time>2022-01-18T17:27:39.849Z</time>
      </trkpt>
      <trkpt lat="44.09463" lon="5.9617">
        <ele>648.59997558594</ele>
        <time>2022-01-18T17:27:43.638Z</time>
      </trkpt>
      <trkpt lat="44.09414" lon="5.9621">
        <ele>654.20001220703</ele>
        <time>2022-01-18T17:27:47.447Z</time>
      </trkpt>
      <trkpt lat="44.09385" lon="5.96226">
        <ele>654.20001220703</ele>
        <time>2022-01-18T17:27:51.267Z</time>
      </trkpt>
      <trkpt lat="44.09375" lon="5.96228">
        <ele>653.59997558594</ele>
        <time>2022-01-18T17:27:55.091Z</time>
      </trkpt>
      <trkpt lat="44.09358" lon="5.96223">
        <ele>652.59997558594</ele>
        <time>2022-01-18T17:27:58.921Z</time>
      </trkpt>
      <trkpt lat="44.09351" lon="5.96218">
        <ele>652.59997558594</ele>
        <time>2022-01-18T17:28:02.754Z</time>
      </trkpt>
      <trkpt lat="44.09342" lon="5.96217">
        <ele>652.59997558594</ele>
        <time>2022-01-18T17:28:06.590Z</time>
      </trkpt>
      <trkpt lat="44.09346" lon="5.9622">
        <ele>651.20001220703</ele>
        <time>2022-01-18T17:28:10.428Z</time>
      </trkpt>
      <trkpt lat="44.0935" lon="5.9622">
        <ele>651.20001220703</ele>
        <time>2022-01-18T17:28:14.267Z</time>
      </trkpt>
      <trkpt lat="44.09357" lon="5.96226">
        <ele>651.20001220703</ele>
        <time>2022-01-18T17:28:18.109Z</time>
      </trkpt>
      <trkpt lat="44.0937" lon="5.96229">
        <ele>652.79998779297</ele>
        <time>2022-01-18T17:28:21.955Z</time>
      </trkpt>
      <trkpt lat="44.09379" lon="5.96231">
        <ele>652.79998779297</ele>
        <time>2022-01-18T17:28:25.805Z</time>
      </trkpt>
      <trkpt lat="44.09387" lon="5.96228">
        <ele>653.20001220703</ele>
        <time>2022-01-18T17:28:29.658Z</time>
      </trkpt>
      <trkpt lat="44.09413" lon="5.96213">
        <ele>653.20001220703</ele>
        <time>2022-01-18T17:28:33.520Z</time>
      </trkpt>
      <trkpt lat="44.09464" lon="5.96174">
        <ele>650</ele>
        <time>2022-01-18T17:28:37.403Z</time>
      </trkpt>
      <trkpt lat="44.09488" lon="5.96162">
        <ele>648</ele>
        <time>2022-01-18T17:28:41.295Z</time>
      </trkpt>
      <trkpt lat="44.09497" lon="5.96154">
        <ele>647.59997558594</ele>
        <time>2022-01-18T17:28:45.190Z</time>
      </trkpt>
      <trkpt lat="44.09503" lon="5.96142">
        <ele>647.59997558594</ele>
        <time>2022-01-18T17:28:49.089Z</time>
      </trkpt>
      <trkpt lat="44.09514" lon="5.961">
        <ele>647.59997558594</ele>
        <time>2022-01-18T17:28:52.999Z</time>
      </trkpt>
      <trkpt lat="44.0952" lon="5.9609">
        <ele>647.59997558594</ele>
        <time>2022-01-18T17:28:56.912Z</time>
      </trkpt>
      <trkpt lat="44.09529" lon="5.96082">
        <ele>647.59997558594</ele>
        <time>2022-01-18T17:29:00.829Z</time>
      </trkpt>
      <trkpt lat="44.09533" lon="5.96074">
        <ele>658.79998779297</ele>
        <time>2022-01-18T17:29:04.749Z</time>
      </trkpt>
      <trkpt lat="44.09547" lon="5.96062">
        <ele>660.40002441406</ele>
        <time>2022-01-18T17:29:08.675Z</time>
      </trkpt>
      <trkpt lat="44.09561" lon="5.96054">
        <ele>661</ele>
        <time>2022-01-18T17:29:12.606Z</time>
      </trkpt>
      <trkpt lat="44.09567" lon="5.96049">
        <ele>661</ele>
        <time>2022-01-18T17:29:16.539Z</time>
      </trkpt>
      <trkpt lat="44.09594" lon="5.96017">
        <ele>661</ele>
        <time>2022-01-18T17:29:20.484Z</time>
      </trkpt>
      <trkpt lat="44.09606" lon="5.95998">
        <ele>664.79998779297</ele>
        <time>2022-01-18T17:29:24.436Z</time>
      </trkpt>
      <trkpt lat="44.09612" lon="5.95991">
        <ele>664.79998779297</ele>
        <time>2022-01-18T17:29:28.391Z</time>
      </trkpt>
      <trkpt lat="44.09619" lon="5.95987">
        <ele>666.59997558594</ele>
        <time>2022-01-18T17:29:32.348Z</time>
      </trkpt>
      <trkpt lat="44.09657" lon="5.95979">
        <ele>665.59997558594</ele>
        <time>2022-01-18T17:29:36.319Z</time>
      </trkpt>
      <trkpt lat="44.09686" lon="5.95981">
        <ele>665.59997558594</ele>
        <time>2022-01-18T17:29:40.300Z</time>
      </trkpt>
      <trkpt lat="44.09716" lon="5.95979">
        <ele>665.20001220703</ele>
        <time>2022-01-18T17:29:44.291Z</time>
      </trkpt>
      <trkpt lat="44.09735" lon="5.95974">
        <ele>665.20001220703</ele>
        <time>2022-01-18T17:29:48.289Z</time>
      </trkpt>
      <trkpt lat="44.09758" lon="5.95964">
        <ele>665.20001220703</ele>
        <time>2022-01-18T17:29:52.295Z</time>
      </trkpt>
      <trkpt lat="44.09763" lon="5.95962">
        <ele>667</ele>
        <time>2022-01-18T17:29:56.303Z</time>
      </trkpt>
      <trkpt lat="44.09774" lon="5.95949">
        <ele>666.79998779297</ele>
        <time>2022-01-18T17:30:00.316Z</time>
      </trkpt>
      <trkpt lat="44.09794" lon="5.95948">
        <ele>666.79998779297</ele>
        <time>2022-01-18T17:30:04.336Z</time>
      </trkpt>
      <trkpt lat="44.09822" lon="5.95951">
        <ele>665.59997558594</ele>
        <time>2022-01-18T17:30:08.366Z</time>
      </trkpt>
      <trkpt lat="44.09832" lon="5.95944">
        <ele>665.40002441406</ele>
        <time>2022-01-18T17:30:12.400Z</time>
      </trkpt>
      <trkpt lat="44.09849" lon="5.95942">
        <ele>665.20001220703</ele>
        <time>2022-01-18T17:30:16.440Z</time>
      </trkpt>
      <trkpt lat="44.09863" lon="5.95934">
        <ele>665.20001220703</ele>
        <time>2022-01-18T17:30:20.485Z</time>
      </trkpt>
      <trkpt lat="44.09889" lon="5.95909">
        <ele>665.20001220703</ele>
        <time>2022-01-18T17:30:24.541Z</time>
      </trkpt>
      <trkpt lat="44.09919" lon="5.95902">
        <ele>670.20001220703</ele>
        <time>2022-01-18T17:30:28.608Z</time>
      </trkpt>
      <trkpt lat="44.09927" lon="5.95896">
        <ele>670.20001220703</ele>
        <time>2022-01-18T17:30:32.678Z</time>
      </trkpt>
      <trkpt lat="44.09937" lon="5.95884">
        <ele>670.20001220703</ele>
        <time>2022-01-18T17:30:36.752Z</time>
      </trkpt>
      <trkpt lat="44.09952" lon="5.95876">
        <ele>670.20001220703</ele>
        <time>2022-01-18T17:30:40.832Z</time>
      </trkpt>
      <trkpt lat="44.09972" lon="5.95871">
        <ele>670.20001220703</ele>
        <time>2022-01-18T17:30:44.919Z</time>
      </trkpt>
      <trkpt lat="44.09977" lon="5.95868">
        <ele>677.20001220703</ele>
        <time>2022-01-18T17:30:49.008Z</time>
      </trkpt>
      <trkpt lat="44.09988" lon="5.95853">
        <ele>679.40002441406</ele>
        <time>2022-01-18T17:30:53.102Z</time>
      </trkpt>
      <trkpt lat="44.1002" lon="5.95823">
        <ele>683.59997558594</ele>
        <time>2022-01-18T17:30:57.210Z</time>
      </trkpt>
      <trkpt lat="44.10031" lon="5.95806">
        <ele>685.20001220703</ele>
        <time>2022-01-18T17:31:01.324Z</time>
      </trkpt>
      <trkpt lat="44.10036" lon="5.95788">
        <ele>685.20001220703</ele>
        <time>2022-01-18T17:31:05.443Z</time>
      </trkpt>
      <trkpt lat="44.10037" lon="5.9576">
        <ele>684.79998779297</ele>
        <time>2022-01-18T17:31:09.568Z</time>
      </trkpt>
      <trkpt lat="44.1004" lon="5.95719">
        <ele>684.79998779297</ele>
        <time>2022-01-18T17:31:13.704Z</time>
      </trkpt>
      <trkpt lat="44.1004" lon="5.95696">
        <ele>690.20001220703</ele>
        <time>2022-01-18T17:31:17.846Z</time>
      </trkpt>
      <trkpt lat="44.10037" lon="5.95685">
        <ele>690.20001220703</ele>
        <time>2022-01-18T17:31:21.990Z</time>
      </trkpt>
      <trkpt lat="44.1003" lon="5.95671">
        <ele>692.40002441406</ele>
        <time>2022-01-18T17:31:26.139Z</time>
      </trkpt>
      <trkpt lat="44.10019" lon="5.95656">
        <ele>693.79998779297</ele>
        <time>2022-01-18T17:31:30.293Z</time>
      </trkpt>
      <trkpt lat="44.10025" lon="5.95627">
        <ele>693.79998779297</ele>
        <time>2022-01-18T17:31:34.455Z</time>
      </trkpt>
      <trkpt lat="44.10047" lon="5.95589">
        <ele>701</ele>
        <time>2022-01-18T17:31:38.629Z</time>
      </trkpt>
      <trkpt lat="44.10064" lon="5.95584">
        <ele>701</ele>
        <time>2022-01-18T17:31:42.809Z</time>
      </trkpt>
      <trkpt lat="44.10093" lon="5.9557">
        <ele>701</ele>
        <time>2022-01-18T17:31:47.000Z</time>
      </trkpt>
      <trkpt lat="44.10119" lon="5.95552">
        <ele>706.20001220703</ele>
        <time>2022-01-18T17:31:51.201Z</time>
      </trkpt>
      <trkpt lat="44.1015" lon="5.95525">
        <ele>706.20001220703</ele>
        <time>2022-01-18T17:31:55.415Z</time>
      </trkpt>
      <trkpt lat="44.10157" lon="5.95526">
        <ele>706.79998779297</ele>
        <time>2022-01-18T17:31:59.631Z</time>
      </trkpt>
      <trkpt lat="44.10168" lon="5.9555">
        <ele>704.79998779297</ele>
        <time>2022-01-18T17:32:03.854Z</time>
      </trkpt>
      <trkpt lat="44.10175" lon="5.95554">
        <ele>704.79998779297</ele>
        <time>2022-01-18T17:32:08.080Z</time>
      </trkpt>
      <trkpt lat="44.10204" lon="5.95526">
        <ele>704.79998779297</ele>
        <time>2022-01-18T17:32:12.318Z</time>
      </trkpt>
      <trkpt lat="44.10221" lon="5.95525">
        <ele>700.59997558594</ele>
        <time>2022-01-18T17:32:16.562Z</time>
      </trkpt>
      <trkpt lat="44.10234" lon="5.95535">
        <ele>700.59997558594</ele>
        <time>2022-01-18T17:32:20.811Z</time>
      </trkpt>
      <trkpt lat="44.10234" lon="5.95539">
        <ele>699.20001220703</ele>
        <time>2022-01-18T17:32:25.062Z</time>
      </trkpt>
      <trkpt lat="44.10214" lon="5.9558">
        <ele>695.59997558594</ele>
        <time>2022-01-18T17:32:29.325Z</time>
      </trkpt>
      <trkpt lat="44.1021" lon="5.9559">
        <ele>695.59997558594</ele>
        <time>2022-01-18T17:32:33.591Z</time>
      </trkpt>
      <trkpt lat="44.10208" lon="5.95601">
        <ele>693.79998779297</ele>
        <time>2022-01-18T17:32:37.860Z</time>
      </trkpt>
      <trkpt lat="44.10208" lon="5.95612">
        <ele>693.79998779297</ele>
        <time>2022-01-18T17:32:42.131Z</time>
      </trkpt>
      <trkpt lat="44.10217" lon="5.95677">
        <ele>692.20001220703</ele>
        <time>2022-01-18T17:32:46.419Z</time>
      </trkpt>
      <trkpt lat="44.10226" lon="5.9569">
        <ele>692.20001220703</ele>
        <time>2022-01-18T17:32:50.711Z</time>
      </trkpt>
      <trkpt lat="44.10252" lon="5.95719">
        <ele>692.20001220703</ele>
        <time>2022-01-18T17:32:55.015Z</time>
      </trkpt>
      <trkpt lat="44.10258" lon="5.95723">
        <ele>688.20001220703</ele>
        <time>2022-01-18T17:32:59.322Z</time>
      </trkpt>
      <trkpt lat="44.10288" lon="5.95735">
        <ele>688.20001220703</ele>
        <time>2022-01-18T17:33:03.639Z</time>
      </trkpt>
      <trkpt lat="44.10288" lon="5.9574">
        <ele>684.59997558594</ele>
        <time>2022-01-18T17:33:07.958Z</time>
      </trkpt>
      <trkpt lat="44.10253" lon="5.95757">
        <ele>683.40002441406</ele>
        <time>2022-01-18T17:33:12.290Z</time>
      </trkpt>
      <trkpt lat="44.10243" lon="5.95769">
        <ele>683.40002441406</ele>
        <time>2022-01-18T17:33:16.627Z</time>
      </trkpt>
      <trkpt lat="44.10233" lon="5.9579">
        <ele>680.40002441406</ele>
        <time>2022-01-18T17:33:20.970Z</time>
      </trkpt>
      <trkpt lat="44.10226" lon="5.9582">
        <ele>680.40002441406</ele>
        <time>2022-01-18T17:33:25.321Z</time>
      </trkpt>
      <trkpt lat="44.10223" lon="5.95829">
        <ele>676.40002441406</ele>
        <time>2022-01-18T17:33:29.674Z</time>
      </trkpt>
      <trkpt lat="44.10221" lon="5.95846">
        <ele>676.40002441406</ele>
        <time>2022-01-18T17:33:34.032Z</time>
      </trkpt>
      <trkpt lat="44.10228" lon="5.95862">
        <ele>676.40002441406</ele>
        <time>2022-01-18T17:33:38.395Z</time>
      </trkpt>
      <trkpt lat="44.10239" lon="5.95872">
        <ele>676.40002441406</ele>
        <time>2022-01-18T17:33:42.762Z</time>
      </trkpt>
      <trkpt lat="44.10246" lon="5.95876">
        <ele>675.20001220703</ele>
        <time>2022-01-18T17:33:47.132Z</time>
      </trkpt>
      <trkpt lat="44.1025" lon="5.95882">
        <ele>675.20001220703</ele>
        <time>2022-01-18T17:33:51.504Z</time>
      </trkpt>
      <trkpt lat="44.10281" lon="5.95905">
        <ele>675.20001220703</ele>
        <time>2022-01-18T17:33:55.888Z</time>
      </trkpt>
      <trkpt lat="44.10293" lon="5.95902">
        <ele>675.20001220703</ele>
        <time>2022-01-18T17:34:00.276Z</time>
      </trkpt>
      <trkpt lat="44.103" lon="5.95912">
        <ele>675.20001220703</ele>
        <time>2022-01-18T17:34:04.668Z</time>
      </trkpt>
      <trkpt lat="44.103" lon="5.95919">
        <ele>675.20001220703</ele>
        <time>2022-01-18T17:34:09.061Z</time>
      </trkpt>
      <trkpt lat="44.10279" lon="5.95931">
        <ele>675.20001220703</ele>
        <time>2022-01-18T17:34:13.462Z</time>
      </trkpt>
      <trkpt lat="44.10278" lon="5.95935">
        <ele>671.40002441406</ele>
        <time>2022-01-18T17:34:17.864Z</time>
      </trkpt>
      <trkpt lat="44.10272" lon="5.95942">
        <ele>671.40002441406</ele>
        <time>2022-01-18T17:34:22.269Z</time>
      </trkpt>
      <trkpt lat="44.10265" lon="5.95943">
        <ele>670</ele>
        <time>2022-01-18T17:34:26.677Z</time>
      </trkpt>
      <trkpt lat="44.10247" lon="5.95949">
        <ele>669</ele>
        <time>2022-01-18T17:34:31.091Z</time>
      </trkpt>
      <trkpt lat="44.10247" lon="5.95954">
        <ele>668.40002441406</ele>
        <time>2022-01-18T17:34:35.506Z</time>
      </trkpt>
      <trkpt lat="44.10274" lon="5.95961">
        <ele>668.40002441406</ele>
        <time>2022-01-18T17:34:39.931Z</time>
      </trkpt>
      <trkpt lat="44.10308" lon="5.95955">
        <ele>665.20001220703</ele>
        <time>2022-01-18T17:34:44.368Z</time>
      </trkpt>
      <trkpt lat="44.10309" lon="5.95958">
        <ele>665.20001220703</ele>
        <time>2022-01-18T17:34:48.805Z</time>
      </trkpt>
      <trkpt lat="44.10308" lon="5.95961">
        <ele>664.59997558594</ele>
        <time>2022-01-18T17:34:53.243Z</time>
      </trkpt>
      <trkpt lat="44.10293" lon="5.95974">
        <ele>662.79998779297</ele>
        <time>2022-01-18T17:34:57.687Z</time>
      </trkpt>
      <trkpt lat="44.10281" lon="5.95981">
        <ele>662.79998779297</ele>
        <time>2022-01-18T17:35:02.136Z</time>
      </trkpt>
      <trkpt lat="44.10253" lon="5.95986">
        <ele>662.79998779297</ele>
        <time>2022-01-18T17:35:06.595Z</time>
      </trkpt>
      <trkpt lat="44.10241" lon="5.95992">
        <ele>659.59997558594</ele>
        <time>2022-01-18T17:35:11.058Z</time>
      </trkpt>
      <trkpt lat="44.1023" lon="5.95999">
        <ele>658.40002441406</ele>
        <time>2022-01-18T17:35:15.525Z</time>
      </trkpt>
      <trkpt lat="44.10226" lon="5.96011">
        <ele>657.40002441406</ele>
        <time>2022-01-18T17:35:19.996Z</time>
      </trkpt>
      <trkpt lat="44.10223" lon="5.96025">
        <ele>657.40002441406</ele>
        <time>2022-01-18T17:35:24.470Z</time>
      </trkpt>
      <trkpt lat="44.10213" lon="5.96045">
        <ele>655.40002441406</ele>
        <time>2022-01-18T17:35:28.950Z</time>
      </trkpt>
      <trkpt lat="44.10221" lon="5.96056">
        <ele>656.40002441406</ele>
        <time>2022-01-18T17:35:33.434Z</time>
      </trkpt>
      <trkpt lat="44.10225" lon="5.96059">
        <ele>657.20001220703</ele>
        <time>2022-01-18T17:35:37.920Z</time>
      </trkpt>
      <trkpt lat="44.10228" lon="5.96077">
        <ele>657.20001220703</ele>
        <time>2022-01-18T17:35:42.411Z</time>
      </trkpt>
      <trkpt lat="44.10225" lon="5.9612">
        <ele>654.79998779297</ele>
        <time>2022-01-18T17:35:46.913Z</time>
      </trkpt>
      <trkpt lat="44.10229" lon="5.96159">
        <ele>657.59997558594</ele>
        <time>2022-01-18T17:35:51.424Z</time>
      </trkpt>
      <trkpt lat="44.10226" lon="5.96185">
        <ele>660</ele>
        <time>2022-01-18T17:35:55.942Z</time>
      </trkpt>
      <trkpt lat="44.1023" lon="5.96201">
        <ele>661.20001220703</ele>
        <time>2022-01-18T17:36:00.464Z</time>
      </trkpt>
      <trkpt lat="44.1023" lon="5.96245">
        <ele>661.20001220703</ele>
        <time>2022-01-18T17:36:04.997Z</time>
      </trkpt>
      <trkpt lat="44.10225" lon="5.96282">
        <ele>661.20001220703</ele>
        <time>2022-01-18T17:36:09.540Z</time>
      </trkpt>
      <trkpt lat="44.1022" lon="5.96309">
        <ele>664.20001220703</ele>
        <time>2022-01-18T17:36:14.090Z</time>
      </trkpt>
      <trkpt lat="44.10219" lon="5.96332">
        <ele>664.20001220703</ele>
        <time>2022-01-18T17:36:18.645Z</time>
      </trkpt>
      <trkpt lat="44.10222" lon="5.96344">
        <ele>667</ele>
        <time>2022-01-18T17:36:23.204Z</time>
      </trkpt>
      <trkpt lat="44.10222" lon="5.96349">
        <ele>667</ele>
        <time>2022-01-18T17:36:27.764Z</time>
      </trkpt>
      <trkpt lat="44.10215" lon="5.96358">
        <ele>667</ele>
        <time>2022-01-18T17:36:32.327Z</time>
      </trkpt>
      <trkpt lat="44.10208" lon="5.96363">
        <ele>668.59997558594</ele>
        <time>2022-01-18T17:36:36.893Z</time>
      </trkpt>
      <trkpt lat="44.10173" lon="5.96378">
        <ele>668.59997558594</ele>
        <time>2022-01-18T17:36:41.472Z</time>
      </trkpt>
      <trkpt lat="44.10167" lon="5.96384">
        <ele>668.79998779297</ele>
        <time>2022-01-18T17:36:46.053Z</time>
      </trkpt>
      <trkpt lat="44.10144" lon="5.96412">
        <ele>668.79998779297</ele>
        <time>2022-01-18T17:36:50.645Z</time>
      </trkpt>
      <trkpt lat="44.10119" lon="5.9645">
        <ele>668.79998779297</ele>
        <time>2022-01-18T17:36:55.250Z</time>
      </trkpt>
      <trkpt lat="44.10099" lon="5.96476">
        <ele>668.79998779297</ele>
        <time>2022-01-18T17:36:59.864Z</time>
      </trkpt>
      <trkpt lat="44.10087" lon="5.96504">
        <ele>665.20001220703</ele>
        <time>2022-01-18T17:37:04.487Z</time>
      </trkpt>
      <trkpt lat="44.10074" lon="5.96518">
        <ele>664.79998779297</ele>
        <time>2022-01-18T17:37:09.115Z</time>
      </trkpt>
      <trkpt lat="44.1006" lon="5.96539">
        <ele>664.20001220703</ele>
        <time>2022-01-18T17:37:13.750Z</time>
      </trkpt>
      <trkpt lat="44.10045" lon="5.96565">
        <ele>664.20001220703</ele>
        <time>2022-01-18T17:37:18.394Z</time>
      </trkpt>
      <trkpt lat="44.10034" lon="5.96591">
        <ele>663.59997558594</ele>
        <time>2022-01-18T17:37:23.045Z</time>
      </trkpt>
      <trkpt lat="44.1003" lon="5.96614">
        <ele>663.59997558594</ele>
        <time>2022-01-18T17:37:27.702Z</time>
      </trkpt>
      <trkpt lat="44.10033" lon="5.9663">
        <ele>663.20001220703</ele>
        <time>2022-01-18T17:37:32.363Z</time>
      </trkpt>
      <trkpt lat="44.10041" lon="5.96652">
        <ele>662.20001220703</ele>
        <time>2022-01-18T17:37:37.031Z</time>
      </trkpt>
      <trkpt lat="44.10048" lon="5.96659">
        <ele>662.20001220703</ele>
        <time>2022-01-18T17:37:41.702Z</time>
      </trkpt>
      <trkpt lat="44.10078" lon="5.96664">
        <ele>662.20001220703</ele>
        <time>2022-01-18T17:37:46.383Z</time>
      </trkpt>
      <trkpt lat="44.10101" lon="5.96667">
        <ele>661.59997558594</ele>
        <time>2022-01-18T17:37:51.072Z</time>
      </trkpt>
      <trkpt lat="44.10118" lon="5.96678">
        <ele>661.59997558594</ele>
        <time>2022-01-18T17:37:55.768Z</time>
      </trkpt>
      <trkpt lat="44.10124" lon="5.96679">
        <ele>662</ele>
        <time>2022-01-18T17:38:00.466Z</time>
      </trkpt>
      <trkpt lat="44.10136" lon="5.96675">
        <ele>662.20001220703</ele>
        <time>2022-01-18T17:38:05.168Z</time>
      </trkpt>
      <trkpt lat="44.10165" lon="5.9666">
        <ele>662.20001220703</ele>
        <time>2022-01-18T17:38:09.881Z</time>
      </trkpt>
      <trkpt lat="44.10174" lon="5.96659">
        <ele>658.79998779297</ele>
        <time>2022-01-18T17:38:14.597Z</time>
      </trkpt>
      <trkpt lat="44.10204" lon="5.96688">
        <ele>658.79998779297</ele>
        <time>2022-01-18T17:38:19.326Z</time>
      </trkpt>
      <trkpt lat="44.10216" lon="5.96702">
        <ele>652.40002441406</ele>
        <time>2022-01-18T17:38:24.060Z</time>
      </trkpt>
      <trkpt lat="44.10229" lon="5.96715">
        <ele>650.79998779297</ele>
        <time>2022-01-18T17:38:28.800Z</time>
      </trkpt>
      <trkpt lat="44.10267" lon="5.96757">
        <ele>650.79998779297</ele>
        <time>2022-01-18T17:38:33.557Z</time>
      </trkpt>
      <trkpt lat="44.10283" lon="5.9677">
        <ele>645.79998779297</ele>
        <time>2022-01-18T17:38:38.320Z</time>
      </trkpt>
      <trkpt lat="44.10314" lon="5.96806">
        <ele>645.79998779297</ele>
        <time>2022-01-18T17:38:43.097Z</time>
      </trkpt>
      <trkpt lat="44.10327" lon="5.96812">
        <ele>645.79998779297</ele>
        <time>2022-01-18T17:38:47.879Z</time>
      </trkpt>
      <trkpt lat="44.10339" lon="5.96829">
        <ele>634.79998779297</ele>
        <time>2022-01-18T17:38:52.667Z</time>
      </trkpt>
      <trkpt lat="44.10352" lon="5.96836">
        <ele>634.79998779297</ele>
        <time>2022-01-18T17:38:57.460Z</time>
      </trkpt>
      <trkpt lat="44.10363" lon="5.96837">
        <ele>634.40002441406</ele>
        <time>2022-01-18T17:39:02.257Z</time>
      </trkpt>
      <trkpt lat="44.10365" lon="5.96839">
        <ele>634.40002441406</ele>
        <time>2022-01-18T17:39:07.055Z</time>
      </trkpt>
      <trkpt lat="44.10364" lon="5.96846">
        <ele>634.40002441406</ele>
        <time>2022-01-18T17:39:11.855Z</time>
      </trkpt>
      <trkpt lat="44.10355" lon="5.96859">
        <ele>629.79998779297</ele>
        <time>2022-01-18T17:39:16.659Z</time>
      </trkpt>
      <trkpt lat="44.10358" lon="5.9687">
        <ele>629.20001220703</ele>
        <time>2022-01-18T17:39:21.466Z</time>
      </trkpt>
      <trkpt lat="44.1036" lon="5.96872">
        <ele>629.20001220703</ele>
        <time>2022-01-18T17:39:26.274Z</time>
      </trkpt>
      <trkpt lat="44.10379" lon="5.96875">
        <ele>629.20001220703</ele>
        <time>2022-01-18T17:39:31.089Z</time>
      </trkpt>
      <trkpt lat="44.10399" lon="5.96885">
        <ele>629.20001220703</ele>
        <time>2022-01-18T17:39:35.911Z</time>
      </trkpt>
      <trkpt lat="44.10431" lon="5.96899">
        <ele>629.20001220703</ele>
        <time>2022-01-18T17:39:40.745Z</time>
      </trkpt>
      <trkpt lat="44.10445" lon="5.96909">
        <ele>629.20001220703</ele>
        <time>2022-01-18T17:39:45.584Z</time>
      </trkpt>
      <trkpt lat="44.10452" lon="5.96918">
        <ele>629.20001220703</ele>
        <time>2022-01-18T17:39:50.427Z</time>
      </trkpt>
      <trkpt lat="44.10461" lon="5.96937">
        <ele>625</ele>
        <time>2022-01-18T17:39:55.276Z</time>
      </trkpt>
      <trkpt lat="44.1047" lon="5.96943">
        <ele>625</ele>
        <time>2022-01-18T17:40:00.128Z</time>
      </trkpt>
      <trkpt lat="44.10473" lon="5.96944">
        <ele>623.59997558594</ele>
        <time>2022-01-18T17:40:04.981Z</time>
      </trkpt>
      <trkpt lat="44.10494" lon="5.96946">
        <ele>623.59997558594</ele>
        <time>2022-01-18T17:40:09.841Z</time>
      </trkpt>
      <trkpt lat="44.10523" lon="5.96951">
        <ele>620</ele>
        <time>2022-01-18T17:40:14.711Z</time>
      </trkpt>
      <trkpt lat="44.10536" lon="5.96965">
        <ele>617.79998779297</ele>
        <time>2022-01-18T17:40:19.587Z</time>
      </trkpt>
      <trkpt lat="44.10544" lon="5.9697">
        <ele>617.79998779297</ele>
        <time>2022-01-18T17:40:24.466Z</time>
      </trkpt>
      <trkpt lat="44.10578" lon="5.9698">
        <ele>617.79998779297</ele>
        <time>2022-01-18T17:40:29.358Z</time>
      </trkpt>
      <trkpt lat="44.10587" lon="5.96985">
        <ele>611.20001220703</ele>
        <time>2022-01-18T17:40:34.253Z</time>
      </trkpt>
      <trkpt lat="44.10601" lon="5.96987">
        <ele>611.20001220703</ele>
        <time>2022-01-18T17:40:39.153Z</time>
      </trkpt>
      <trkpt lat="44.10606" lon="5.96989">
        <ele>611.20001220703</ele>
        <time>2022-01-18T17:40:44.055Z</time>
      </trkpt>
      <trkpt lat="44.10613" lon="5.96988">
        <ele>605.40002441406</ele>
        <time>2022-01-18T17:40:48.959Z</time>
      </trkpt>
      <trkpt lat="44.10623" lon="5.96982">
        <ele>604.40002441406</ele>
        <time>2022-01-18T17:40:53.867Z</time>
      </trkpt>
      <trkpt lat="44.10645" lon="5.96978">
        <ele>604.40002441406</ele>
        <time>2022-01-18T17:40:58.783Z</time>
      </trkpt>
      <trkpt lat="44.10665" lon="5.96982">
        <ele>596.59997558594</ele>
        <time>2022-01-18T17:41:03.706Z</time>
      </trkpt>
      <trkpt lat="44.10685" lon="5.9698">
        <ele>594.20001220703</ele>
        <time>2022-01-18T17:41:08.636Z</time>
      </trkpt>
      <trkpt lat="44.10697" lon="5.96984">
        <ele>594.20001220703</ele>
        <time>2022-01-18T17:41:13.570Z</time>
      </trkpt>
      <trkpt lat="44.1072" lon="5.96981">
        <ele>594.20001220703</ele>
        <time>2022-01-18T17:41:18.512Z</time>
      </trkpt>
      <trkpt lat="44.10735" lon="5.96982">
        <ele>594.20001220703</ele>
        <time>2022-01-18T17:41:23.459Z</time>
      </trkpt>
      <trkpt lat="44.10741" lon="5.96976">
        <ele>585.79998779297</ele>
        <time>2022-01-18T17:41:28.409Z</time>
      </trkpt>
      <trkpt lat="44.10737" lon="5.96969">
        <ele>585.79998779297</ele>
        <time>2022-01-18T17:41:33.361Z</time>
      </trkpt>
      <trkpt lat="44.10736" lon="5.96954">
        <ele>585.79998779297</ele>
        <time>2022-01-18T17:41:38.317Z</time>
      </trkpt>
      <trkpt lat="44.10742" lon="5.96923">
        <ele>580.59997558594</ele>
        <time>2022-01-18T17:41:43.281Z</time>
      </trkpt>
      <trkpt lat="44.10746" lon="5.96918">
        <ele>582.20001220703</ele>
        <time>2022-01-18T17:41:48.246Z</time>
      </trkpt>
      <trkpt lat="44.10762" lon="5.96919">
        <ele>582.20001220703</ele>
        <time>2022-01-18T17:41:53.217Z</time>
      </trkpt>
      <trkpt lat="44.10768" lon="5.96917">
        <ele>581.20001220703</ele>
        <time>2022-01-18T17:41:58.190Z</time>
      </trkpt>
      <trkpt lat="44.10777" lon="5.96912">
        <ele>580</ele>
        <time>2022-01-18T17:42:03.166Z</time>
      </trkpt>
      <trkpt lat="44.10793" lon="5.96892">
        <ele>580</ele>
        <time>2022-01-18T17:42:08.150Z</time>
      </trkpt>
      <trkpt lat="44.10801" lon="5.96889">
        <ele>580.40002441406</ele>
        <time>2022-01-18T17:42:13.137Z</time>
      </trkpt>
      <trkpt lat="44.10834" lon="5.96883">
        <ele>580.40002441406</ele>
        <time>2022-01-18T17:42:18.135Z</time>
      </trkpt>
      <trkpt lat="44.10872" lon="5.96872">
        <ele>580.40002441406</ele>
        <time>2022-01-18T17:42:23.147Z</time>
      </trkpt>
      <trkpt lat="44.10887" lon="5.96873">
        <ele>579.79998779297</ele>
        <time>2022-01-18T17:42:28.164Z</time>
      </trkpt>
      <trkpt lat="44.10902" lon="5.96877">
        <ele>579</ele>
        <time>2022-01-18T17:42:33.186Z</time>
      </trkpt>
      <trkpt lat="44.10913" lon="5.96876">
        <ele>578.20001220703</ele>
        <time>2022-01-18T17:42:38.212Z</time>
      </trkpt>
      <trkpt lat="44.10925" lon="5.96867">
        <ele>578.20001220703</ele>
        <time>2022-01-18T17:42:43.243Z</time>
      </trkpt>
      <trkpt lat="44.10936" lon="5.96856">
        <ele>578.20001220703</ele>
        <time>2022-01-18T17:42:48.279Z</time>
      </trkpt>
      <trkpt lat="44.10955" lon="5.96846">
        <ele>578.20001220703</ele>
        <time>2022-01-18T17:42:53.322Z</time>
      </trkpt>
      <trkpt lat="44.10967" lon="5.96835">
        <ele>578.20001220703</ele>
        <time>2022-01-18T17:42:58.370Z</time>
      </trkpt>
      <trkpt lat="44.10981" lon="5.96827">
        <ele>580</ele>
        <time>2022-01-18T17:43:03.423Z</time>
      </trkpt>
      <trkpt lat="44.11007" lon="5.96829">
        <ele>578</ele>
        <time>2022-01-18T17:43:08.486Z</time>
      </trkpt>
      <trkpt lat="44.11033" lon="5.96819">
        <ele>578</ele>
        <time>2022-01-18T17:43:13.558Z</time>
      </trkpt>
      <trkpt lat="44.11045" lon="5.96804">
        <ele>571.79998779297</ele>
        <time>2022-01-18T17:43:18.636Z</time>
      </trkpt>
      <trkpt lat="44.11054" lon="5.96798">
        <ele>571.79998779297</ele>
        <time>2022-01-18T17:43:23.717Z</time>
      </trkpt>
      <trkpt lat="44.11091" lon="5.96801">
        <ele>571.79998779297</ele>
        <time>2022-01-18T17:43:28.811Z</time>
      </trkpt>
      <trkpt lat="44.11106" lon="5.96818">
        <ele>570.40002441406</ele>
        <time>2022-01-18T17:43:33.912Z</time>
      </trkpt>
      <trkpt lat="44.11113" lon="5.96822">
        <ele>570.40002441406</ele>
        <time>2022-01-18T17:43:39.015Z</time>
      </trkpt>
      <trkpt lat="44.11133" lon="5.96829">
        <ele>567.20001220703</ele>
        <time>2022-01-18T17:43:44.126Z</time>
      </trkpt>
      <trkpt lat="44.11146" lon="5.96836">
        <ele>564.79998779297</ele>
        <time>2022-01-18T17:43:49.241Z</time>
      </trkpt>
      <trkpt lat="44.1115" lon="5.96837">
        <ele>564.79998779297</ele>
        <time>2022-01-18T17:43:54.358Z</time>
      </trkpt>
      <trkpt lat="44.11158" lon="5.96843">
        <ele>562.79998779297</ele>
        <time>2022-01-18T17:43:59.478Z</time>
      </trkpt>
      <trkpt lat="44.11169" lon="5.96846">
        <ele>562.79998779297</ele>
        <time>2022-01-18T17:44:04.602Z</time>
      </trkpt>
      <trkpt lat="44.11191" lon="5.96839">
        <ele>557</ele>
        <time>2022-01-18T17:44:09.734Z</time>
      </trkpt>
      <trkpt lat="44.11198" lon="5.96844">
        <ele>557</ele>
        <time>2022-01-18T17:44:14.869Z</time>
      </trkpt>
      <trkpt lat="44.11205" lon="5.96838">
        <ele>557</ele>
        <time>2022-01-18T17:44:20.006Z</time>
      </trkpt>
      <trkpt lat="44.11211" lon="5.96828">
        <ele>550.40002441406</ele>
        <time>2022-01-18T17:44:25.147Z</time>
      </trkpt>
      <trkpt lat="44.11213" lon="5.96827">
        <ele>550.40002441406</ele>
        <time>2022-01-18T17:44:30.288Z</time>
      </trkpt>
      <trkpt lat="44.1122" lon="5.96828">
        <ele>547.20001220703</ele>
        <time>2022-01-18T17:44:35.432Z</time>
      </trkpt>
      <trkpt lat="44.11223" lon="5.96832">
        <ele>547.20001220703</ele>
        <time>2022-01-18T17:44:40.578Z</time>
      </trkpt>
      <trkpt lat="44.11229" lon="5.96835">
        <ele>543.20001220703</ele>
        <time>2022-01-18T17:44:45.726Z</time>
      </trkpt>
      <trkpt lat="44.11234" lon="5.96835">
        <ele>543.20001220703</ele>
        <time>2022-01-18T17:44:50.875Z</time>
      </trkpt>
      <trkpt lat="44.11238" lon="5.96838">
        <ele>539.40002441406</ele>
        <time>2022-01-18T17:44:56.026Z</time>
      </trkpt>
      <trkpt lat="44.1124" lon="5.96843">
        <ele>537.79998779297</ele>
        <time>2022-01-18T17:45:01.179Z</time>
      </trkpt>
      <trkpt lat="44.11234" lon="5.96868">
        <ele>537.79998779297</ele>
        <time>2022-01-18T17:45:06.338Z</time>
      </trkpt>
      <trkpt lat="44.11238" lon="5.96879">
        <ele>537.79998779297</ele>
        <time>2022-01-18T17:45:11.500Z</time>
      </trkpt>
      <trkpt lat="44.11243" lon="5.96936">
        <ele>519.59997558594</ele>
        <time>2022-01-18T17:45:16.676Z</time>
      </trkpt>
      <trkpt lat="44.11246" lon="5.96942">
        <ele>519.59997558594</ele>
        <time>2022-01-18T17:45:21.854Z</time>
      </trkpt>
      <trkpt lat="44.11258" lon="5.96951">
        <ele>518.20001220703</ele>
        <time>2022-01-18T17:45:27.037Z</time>
      </trkpt>
      <trkpt lat="44.11257" lon="5.96938">
        <ele>518.20001220703</ele>
        <time>2022-01-18T17:45:32.224Z</time>
      </trkpt>
      <trkpt lat="44.11264" lon="5.96938">
        <ele>518.20001220703</ele>
        <time>2022-01-18T17:45:37.413Z</time>
      </trkpt>
      <trkpt lat="44.1127" lon="5.96926">
        <ele>523</ele>
        <time>2022-01-18T17:45:42.606Z</time>
      </trkpt>
      <trkpt lat="44.11277" lon="5.9692">
        <ele>524.59997558594</ele>
        <time>2022-01-18T17:45:47.801Z</time>
      </trkpt>
      <trkpt lat="44.1128" lon="5.96919">
        <ele>524.59997558594</ele>
        <time>2022-01-18T17:45:52.998Z</time>
      </trkpt>
      <trkpt lat="44.11287" lon="5.96925">
        <ele>524.59997558594</ele>
        <time>2022-01-18T17:45:58.197Z</time>
      </trkpt>
      <trkpt lat="44.11295" lon="5.96921">
        <ele>524.59997558594</ele>
        <time>2022-01-18T17:46:03.399Z</time>
      </trkpt>
      <trkpt lat="44.11296" lon="5.96913">
        <ele>524.59997558594</ele>
        <time>2022-01-18T17:46:08.603Z</time>
      </trkpt>
      <trkpt lat="44.11293" lon="5.96889">
        <ele>534.79998779297</ele>
        <time>2022-01-18T17:46:13.813Z</time>
      </trkpt>
      <trkpt lat="44.11295" lon="5.96882">
        <ele>534.79998779297</ele>
        <time>2022-01-18T17:46:19.025Z</time>
      </trkpt>
      <trkpt lat="44.11303" lon="5.96878">
        <ele>534.79998779297</ele>
        <time>2022-01-18T17:46:24.240Z</time>
      </trkpt>
      <trkpt lat="44.11308" lon="5.96872">
        <ele>534.79998779297</ele>
        <time>2022-01-18T17:46:29.457Z</time>
      </trkpt>
      <trkpt lat="44.11319" lon="5.96852">
        <ele>534.79998779297</ele>
        <time>2022-01-18T17:46:34.681Z</time>
      </trkpt>
      <trkpt lat="44.11333" lon="5.96839">
        <ele>534.79998779297</ele>
        <time>2022-01-18T17:46:39.911Z</time>
      </trkpt>
      <trkpt lat="44.11339" lon="5.96822">
        <ele>549.40002441406</ele>
        <time>2022-01-18T17:46:45.145Z</time>
      </trkpt>
      <trkpt lat="44.1135" lon="5.96801">
        <ele>549.40002441406</ele>
        <time>2022-01-18T17:46:50.386Z</time>
      </trkpt>
      <trkpt lat="44.11351" lon="5.96783">
        <ele>556.79998779297</ele>
        <time>2022-01-18T17:46:55.632Z</time>
      </trkpt>
      <trkpt lat="44.11347" lon="5.96763">
        <ele>556.79998779297</ele>
        <time>2022-01-18T17:47:00.883Z</time>
      </trkpt>
      <trkpt lat="44.11347" lon="5.96743">
        <ele>556.79998779297</ele>
        <time>2022-01-18T17:47:06.139Z</time>
      </trkpt>
      <trkpt lat="44.11325" lon="5.96656">
        <ele>565.20001220703</ele>
        <time>2022-01-18T17:47:11.418Z</time>
      </trkpt>
      <trkpt lat="44.11327" lon="5.96652">
        <ele>565.59997558594</ele>
        <time>2022-01-18T17:47:16.698Z</time>
      </trkpt>
      <trkpt lat="44.11343" lon="5.96638">
        <ele>566.20001220703</ele>
        <time>2022-01-18T17:47:21.985Z</time>
      </trkpt>
      <trkpt lat="44.11359" lon="5.96631">
        <ele>566.20001220703</ele>
        <time>2022-01-18T17:47:27.277Z</time>
      </trkpt>
      <trkpt lat="44.11374" lon="5.96621">
        <ele>566.79998779297</ele>
        <time>2022-01-18T17:47:32.575Z</time>
      </trkpt>
      <trkpt lat="44.11389" lon="5.96596">
        <ele>570.20001220703</ele>
        <time>2022-01-18T17:47:37.881Z</time>
      </trkpt>
      <trkpt lat="44.11403" lon="5.96585">
        <ele>570.20001220703</ele>
        <time>2022-01-18T17:47:43.193Z</time>
      </trkpt>
      <trkpt lat="44.11415" lon="5.96573">
        <ele>571.40002441406</ele>
        <time>2022-01-18T17:47:48.510Z</time>
      </trkpt>
      <trkpt lat="44.11419" lon="5.9656">
        <ele>571.40002441406</ele>
        <time>2022-01-18T17:47:53.831Z</time>
      </trkpt>
      <trkpt lat="44.11413" lon="5.9654">
        <ele>571.79998779297</ele>
        <time>2022-01-18T17:47:59.157Z</time>
      </trkpt>
      <trkpt lat="44.11402" lon="5.96521">
        <ele>571.79998779297</ele>
        <time>2022-01-18T17:48:04.489Z</time>
      </trkpt>
      <trkpt lat="44.11379" lon="5.96486">
        <ele>571.79998779297</ele>
        <time>2022-01-18T17:48:09.833Z</time>
      </trkpt>
      <trkpt lat="44.11362" lon="5.96453">
        <ele>571.79998779297</ele>
        <time>2022-01-18T17:48:15.187Z</time>
      </trkpt>
      <trkpt lat="44.11349" lon="5.96422">
        <ele>573.40002441406</ele>
        <time>2022-01-18T17:48:20.550Z</time>
      </trkpt>
      <trkpt lat="44.11341" lon="5.9639">
        <ele>573.40002441406</ele>
        <time>2022-01-18T17:48:25.922Z</time>
      </trkpt>
      <trkpt lat="44.11346" lon="5.96367">
        <ele>573</ele>
        <time>2022-01-18T17:48:31.300Z</time>
      </trkpt>
      <trkpt lat="44.11356" lon="5.96347">
        <ele>573</ele>
        <time>2022-01-18T17:48:36.684Z</time>
      </trkpt>
      <trkpt lat="44.11374" lon="5.9632">
        <ele>572.59997558594</ele>
        <time>2022-01-18T17:48:42.077Z</time>
      </trkpt>
      <trkpt lat="44.11388" lon="5.9628">
        <ele>572</ele>
        <time>2022-01-18T17:48:47.481Z</time>
      </trkpt>
      <trkpt lat="44.11392" lon="5.96285">
        <ele>572</ele>
        <time>2022-01-18T17:48:52.887Z</time>
      </trkpt>
      <trkpt lat="44.11398" lon="5.96299">
        <ele>572</ele>
        <time>2022-01-18T17:48:58.297Z</time>
      </trkpt>
      <trkpt lat="44.11407" lon="5.96314">
        <ele>572</ele>
        <time>2022-01-18T17:49:03.712Z</time>
      </trkpt>
      <trkpt lat="44.11413" lon="5.96328">
        <ele>572</ele>
        <time>2022-01-18T17:49:09.131Z</time>
      </trkpt>
      <trkpt lat="44.11432" lon="5.96339">
        <ele>572</ele>
        <time>2022-01-18T17:49:14.558Z</time>
      </trkpt>
      <trkpt lat="44.11449" lon="5.96342">
        <ele>572</ele>
        <time>2022-01-18T17:49:19.990Z</time>
      </trkpt>
      <trkpt lat="44.11457" lon="5.96351">
        <ele>565.20001220703</ele>
        <time>2022-01-18T17:49:25.426Z</time>
      </trkpt>
      <trkpt lat="44.1146" lon="5.9636">
        <ele>564</ele>
        <time>2022-01-18T17:49:30.865Z</time>
      </trkpt>
      <trkpt lat="44.1146" lon="5.96365">
        <ele>562.40002441406</ele>
        <time>2022-01-18T17:49:36.305Z</time>
      </trkpt>
      <trkpt lat="44.11455" lon="5.96371">
        <ele>562.40002441406</ele>
        <time>2022-01-18T17:49:41.747Z</time>
      </trkpt>
      <trkpt lat="44.11449" lon="5.96383">
        <ele>559.79998779297</ele>
        <time>2022-01-18T17:49:47.193Z</time>
      </trkpt>
      <trkpt lat="44.11442" lon="5.96405">
        <ele>559.79998779297</ele>
        <time>2022-01-18T17:49:52.645Z</time>
      </trkpt>
      <trkpt lat="44.11441" lon="5.96421">
        <ele>555.79998779297</ele>
        <time>2022-01-18T17:49:58.101Z</time>
      </trkpt>
      <trkpt lat="44.11442" lon="5.96436">
        <ele>554.79998779297</ele>
        <time>2022-01-18T17:50:03.561Z</time>
      </trkpt>
      <trkpt lat="44.11441" lon="5.96447">
        <ele>554.59997558594</ele>
        <time>2022-01-18T17:50:09.024Z</time>
      </trkpt>
      <trkpt lat="44.11453" lon="5.96488">
        <ele>554.59997558594</ele>
        <time>2022-01-18T17:50:14.498Z</time>
      </trkpt>
      <trkpt lat="44.11463" lon="5.96506">
        <ele>550.59997558594</ele>
        <time>2022-01-18T17:50:19.977Z</time>
      </trkpt>
      <trkpt lat="44.11471" lon="5.96516">
        <ele>550.59997558594</ele>
        <time>2022-01-18T17:50:25.460Z</time>
      </trkpt>
      <trkpt lat="44.11477" lon="5.96532">
        <ele>545.59997558594</ele>
        <time>2022-01-18T17:50:30.948Z</time>
      </trkpt>
      <trkpt lat="44.11482" lon="5.9654">
        <ele>542.79998779297</ele>
        <time>2022-01-18T17:50:36.438Z</time>
      </trkpt>
      <trkpt lat="44.11485" lon="5.96555">
        <ele>542.79998779297</ele>
        <time>2022-01-18T17:50:41.932Z</time>
      </trkpt>
      <trkpt lat="44.11468" lon="5.96578">
        <ele>538.40002441406</ele>
        <time>2022-01-18T17:50:47.434Z</time>
      </trkpt>
      <trkpt lat="44.1146" lon="5.96629">
        <ele>538.40002441406</ele>
        <time>2022-01-18T17:50:52.950Z</time>
      </trkpt>
      <trkpt lat="44.11452" lon="5.96646">
        <ele>535.20001220703</ele>
        <time>2022-01-18T17:50:58.471Z</time>
      </trkpt>
      <trkpt lat="44.11439" lon="5.96689">
        <ele>533.59997558594</ele>
        <time>2022-01-18T17:51:04.003Z</time>
      </trkpt>
      <trkpt lat="44.1144" lon="5.96723">
        <ele>533.59997558594</ele>
        <time>2022-01-18T17:51:09.544Z</time>
      </trkpt>
      <trkpt lat="44.11446" lon="5.96733">
        <ele>533.59997558594</ele>
        <time>2022-01-18T17:51:15.088Z</time>
      </trkpt>
      <trkpt lat="44.1145" lon="5.96743">
        <ele>530.59997558594</ele>
        <time>2022-01-18T17:51:20.635Z</time>
      </trkpt>
      <trkpt lat="44.11449" lon="5.96753">
        <ele>530</ele>
        <time>2022-01-18T17:51:26.185Z</time>
      </trkpt>
      <trkpt lat="44.11434" lon="5.96784">
        <ele>530</ele>
        <time>2022-01-18T17:51:31.744Z</time>
      </trkpt>
      <trkpt lat="44.11432" lon="5.96824">
        <ele>525.40002441406</ele>
        <time>2022-01-18T17:51:37.313Z</time>
      </trkpt>
      <trkpt lat="44.11436" lon="5.96843">
        <ele>523.59997558594</ele>
        <time>2022-01-18T17:51:42.887Z</time>
      </trkpt>
      <trkpt lat="44.11436" lon="5.96869">
        <ele>523.20001220703</ele>
        <time>2022-01-18T17:51:48.467Z</time>
      </trkpt>
      <trkpt lat="44.11438" lon="5.96872">
        <ele>523.20001220703</ele>
        <time>2022-01-18T17:51:54.048Z</time>
      </trkpt>
      <trkpt lat="44.11439" lon="5.96875">
        <ele>522.59997558594</ele>
        <time>2022-01-18T17:51:59.630Z</time>
      </trkpt>
      <trkpt lat="44.11453" lon="5.96885">
        <ele>522.59997558594</ele>
        <time>2022-01-18T17:52:05.218Z</time>
      </trkpt>
      <trkpt lat="44.11456" lon="5.96891">
        <ele>521</ele>
        <time>2022-01-18T17:52:10.808Z</time>
      </trkpt>
      <trkpt lat="44.11468" lon="5.96919">
        <ele>521</ele>
        <time>2022-01-18T17:52:16.406Z</time>
      </trkpt>
      <trkpt lat="44.11473" lon="5.96923">
        <ele>518</ele>
        <time>2022-01-18T17:52:22.006Z</time>
      </trkpt>
      <trkpt lat="44.11475" lon="5.96937">
        <ele>516.79998779297</ele>
        <time>2022-01-18T17:52:27.609Z</time>
      </trkpt>
      <trkpt lat="44.11468" lon="5.96958">
        <ele>516.20001220703</ele>
        <time>2022-01-18T17:52:33.218Z</time>
      </trkpt>
      <trkpt lat="44.11477" lon="5.96977">
        <ele>516.59997558594</ele>
        <time>2022-01-18T17:52:38.833Z</time>
      </trkpt>
      <trkpt lat="44.11479" lon="5.96992">
        <ele>517</ele>
        <time>2022-01-18T17:52:44.451Z</time>
      </trkpt>
      <trkpt lat="44.1149" lon="5.97006">
        <ele>517</ele>
        <time>2022-01-18T17:52:50.075Z</time>
      </trkpt>
      <trkpt lat="44.11505" lon="5.97015">
        <ele>517</ele>
        <time>2022-01-18T17:52:55.704Z</time>
      </trkpt>
      <trkpt lat="44.11527" lon="5.97046">
        <ele>517</ele>
        <time>2022-01-18T17:53:01.344Z</time>
      </trkpt>
      <trkpt lat="44.11537" lon="5.97055">
        <ele>521.79998779297</ele>
        <time>2022-01-18T17:53:06.989Z</time>
      </trkpt>
      <trkpt lat="44.11549" lon="5.97061">
        <ele>522.20001220703</ele>
        <time>2022-01-18T17:53:12.638Z</time>
      </trkpt>
      <trkpt lat="44.11571" lon="5.97069">
        <ele>522.20001220703</ele>
        <time>2022-01-18T17:53:18.295Z</time>
      </trkpt>
      <trkpt lat="44.11578" lon="5.97073">
        <ele>522.59997558594</ele>
        <time>2022-01-18T17:53:23.955Z</time>
      </trkpt>
      <trkpt lat="44.11584" lon="5.97081">
        <ele>522.59997558594</ele>
        <time>2022-01-18T17:53:29.617Z</time>
      </trkpt>
      <trkpt lat="44.11589" lon="5.97098">
        <ele>523</ele>
        <time>2022-01-18T17:53:35.284Z</time>
      </trkpt>
      <trkpt lat="44.11604" lon="5.97131">
        <ele>523</ele>
        <time>2022-01-18T17:53:40.961Z</time>
      </trkpt>
      <trkpt lat="44.11611" lon="5.97137">
        <ele>527.20001220703</ele>
        <time>2022-01-18T17:53:46.641Z</time>
      </trkpt>
      <trkpt lat="44.11638" lon="5.97147">
        <ele>527.20001220703</ele>
        <time>2022-01-18T17:53:52.331Z</time>
      </trkpt>
      <trkpt lat="44.11668" lon="5.97148">
        <ele>532.59997558594</ele>
        <time>2022-01-18T17:53:58.031Z</time>
      </trkpt>
      <trkpt lat="44.11697" lon="5.97156">
        <ele>532.59997558594</ele>
        <time>2022-01-18T17:54:03.741Z</time>
      </trkpt>
      <trkpt lat="44.11702" lon="5.97158">
        <ele>533</ele>
        <time>2022-01-18T17:54:09.453Z</time>
      </trkpt>
      <trkpt lat="44.11712" lon="5.97167">
        <ele>533</ele>
        <time>2022-01-18T17:54:15.169Z</time>
      </trkpt>
      <trkpt lat="44.11719" lon="5.9717">
        <ele>532.79998779297</ele>
        <time>2022-01-18T17:54:20.888Z</time>
      </trkpt>
      <trkpt lat="44.11733" lon="5.97175">
        <ele>532.79998779297</ele>
        <time>2022-01-18T17:54:26.612Z</time>
      </trkpt>
      <trkpt lat="44.11751" lon="5.97178">
        <ele>532.79998779297</ele>
        <time>2022-01-18T17:54:32.342Z</time>
      </trkpt>
      <trkpt lat="44.11791" lon="5.97166">
        <ele>532.79998779297</ele>
        <time>2022-01-18T17:54:38.086Z</time>
      </trkpt>
      <trkpt lat="44.11802" lon="5.97161">
        <ele>531</ele>
        <time>2022-01-18T17:54:43.834Z</time>
      </trkpt>
      <trkpt lat="44.11814" lon="5.97149">
        <ele>530.40002441406</ele>
        <time>2022-01-18T17:54:49.588Z</time>
      </trkpt>
      <trkpt lat="44.11836" lon="5.97138">
        <ele>530.40002441406</ele>
        <time>2022-01-18T17:54:55.350Z</time>
      </trkpt>
      <trkpt lat="44.11871" lon="5.97083">
        <ele>522.59997558594</ele>
        <time>2022-01-18T17:55:01.130Z</time>
      </trkpt>
      <trkpt lat="44.11892" lon="5.97078">
        <ele>522.59997558594</ele>
        <time>2022-01-18T17:55:06.918Z</time>
      </trkpt>
      <trkpt lat="44.11897" lon="5.97069">
        <ele>520</ele>
        <time>2022-01-18T17:55:12.709Z</time>
      </trkpt>
      <trkpt lat="44.11907" lon="5.97037">
        <ele>519.40002441406</ele>
        <time>2022-01-18T17:55:18.508Z</time>
      </trkpt>
      <trkpt lat="44.11918" lon="5.97032">
        <ele>519.40002441406</ele>
        <time>2022-01-18T17:55:24.311Z</time>
      </trkpt>
      <trkpt lat="44.11924" lon="5.97043">
        <ele>518.40002441406</ele>
        <time>2022-01-18T17:55:30.118Z</time>
      </trkpt>
      <trkpt lat="44.11931" lon="5.97069">
        <ele>518.40002441406</ele>
        <time>2022-01-18T17:55:35.932Z</time>
      </trkpt>
      <trkpt lat="44.11937" lon="5.97082">
        <ele>519.20001220703</ele>
        <time>2022-01-18T17:55:41.750Z</time>
      </trkpt>
      <trkpt lat="44.11949" lon="5.97096">
        <ele>519.20001220703</ele>
        <time>2022-01-18T17:55:47.573Z</time>
      </trkpt>
      <trkpt lat="44.11969" lon="5.97104">
        <ele>517.59997558594</ele>
        <time>2022-01-18T17:55:53.403Z</time>
      </trkpt>
      <trkpt lat="44.11987" lon="5.97121">
        <ele>517.59997558594</ele>
        <time>2022-01-18T17:55:59.241Z</time>
      </trkpt>
      <trkpt lat="44.12006" lon="5.9713">
        <ele>517.59997558594</ele>
        <time>2022-01-18T17:56:05.086Z</time>
      </trkpt>
      <trkpt lat="44.1201" lon="5.97132">
        <ele>514.20001220703</ele>
        <time>2022-01-18T17:56:10.933Z</time>
      </trkpt>
      <trkpt lat="44.12019" lon="5.97129">
        <ele>514.20001220703</ele>
        <time>2022-01-18T17:56:16.783Z</time>
      </trkpt>
      <trkpt lat="44.12023" lon="5.97125">
        <ele>513.59997558594</ele>
        <time>2022-01-18T17:56:22.635Z</time>
      </trkpt>
      <trkpt lat="44.12037" lon="5.97091">
        <ele>511.60000610352</ele>
        <time>2022-01-18T17:56:28.496Z</time>
      </trkpt>
      <trkpt lat="44.12041" lon="5.97085">
        <ele>511.60000610352</ele>
        <time>2022-01-18T17:56:34.360Z</time>
      </trkpt>
      <trkpt lat="44.12056" lon="5.97079">
        <ele>511.60000610352</ele>
        <time>2022-01-18T17:56:40.229Z</time>
      </trkpt>
      <trkpt lat="44.12073" lon="5.97077">
        <ele>511.39999389648</ele>
        <time>2022-01-18T17:56:46.104Z</time>
      </trkpt>
      <trkpt lat="44.12082" lon="5.9708">
        <ele>511.39999389648</ele>
        <time>2022-01-18T17:56:51.982Z</time>
      </trkpt>
      <trkpt lat="44.12116" lon="5.97102">
        <ele>511.39999389648</ele>
        <time>2022-01-18T17:56:57.873Z</time>
      </trkpt>
      <trkpt lat="44.12121" lon="5.97094">
        <ele>511.39999389648</ele>
        <time>2022-01-18T17:57:03.767Z</time>
      </trkpt>
      <trkpt lat="44.12121" lon="5.97082">
        <ele>511.39999389648</ele>
        <time>2022-01-18T17:57:09.664Z</time>
      </trkpt>
      <trkpt lat="44.12125" lon="5.97074">
        <ele>518.20001220703</ele>
        <time>2022-01-18T17:57:15.563Z</time>
      </trkpt>
      <trkpt lat="44.12129" lon="5.9707">
        <ele>518.20001220703</ele>
        <time>2022-01-18T17:57:21.464Z</time>
      </trkpt>
      <trkpt lat="44.12156" lon="5.9705">
        <ele>520.59997558594</ele>
        <time>2022-01-18T17:57:27.375Z</time>
      </trkpt>
      <trkpt lat="44.12167" lon="5.97039">
        <ele>521.59997558594</ele>
        <time>2022-01-18T17:57:33.291Z</time>
      </trkpt>
      <trkpt lat="44.12198" lon="5.97019">
        <ele>521.59997558594</ele>
        <time>2022-01-18T17:57:39.219Z</time>
      </trkpt>
      <trkpt lat="44.12217" lon="5.97003">
        <ele>525.20001220703</ele>
        <time>2022-01-18T17:57:45.155Z</time>
      </trkpt>
      <trkpt lat="44.12258" lon="5.96984">
        <ele>530.20001220703</ele>
        <time>2022-01-18T17:57:51.106Z</time>
      </trkpt>
      <trkpt lat="44.12276" lon="5.9698">
        <ele>531.40002441406</ele>
        <time>2022-01-18T17:57:57.063Z</time>
      </trkpt>
      <trkpt lat="44.12282" lon="5.96975">
        <ele>531.40002441406</ele>
        <time>2022-01-18T17:58:03.023Z</time>
      </trkpt>
      <trkpt lat="44.12289" lon="5.96964">
        <ele>531.40002441406</ele>
        <time>2022-01-18T17:58:08.987Z</time>
      </trkpt>
      <trkpt lat="44.12297" lon="5.96956">
        <ele>531.40002441406</ele>
        <time>2022-01-18T17:58:14.954Z</time>
      </trkpt>
      <trkpt lat="44.12315" lon="5.96944">
        <ele>535.79998779297</ele>
        <time>2022-01-18T17:58:20.928Z</time>
      </trkpt>
      <trkpt lat="44.12348" lon="5.96931">
        <ele>535.79998779297</ele>
        <time>2022-01-18T17:58:26.914Z</time>
      </trkpt>
      <trkpt lat="44.12361" lon="5.96917">
        <ele>540.79998779297</ele>
        <time>2022-01-18T17:58:32.906Z</time>
      </trkpt>
      <trkpt lat="44.12368" lon="5.96912">
        <ele>542.40002441406</ele>
        <time>2022-01-18T17:58:38.901Z</time>
      </trkpt>
      <trkpt lat="44.1237" lon="5.96904">
        <ele>542.40002441406</ele>
        <time>2022-01-18T17:58:44.898Z</time>
      </trkpt>
      <trkpt lat="44.12363" lon="5.96892">
        <ele>544.40002441406</ele>
        <time>2022-01-18T17:58:50.899Z</time>
      </trkpt>
      <trkpt lat="44.12365" lon="5.96876">
        <ele>544.79998779297</ele>
        <time>2022-01-18T17:58:56.904Z</time>
      </trkpt>
      <trkpt lat="44.1236" lon="5.96872">
        <ele>544.79998779297</ele>
        <time>2022-01-18T17:59:02.911Z</time>
      </trkpt>
      <trkpt lat="44.12323" lon="5.96862">
        <ele>544.79998779297</ele>
        <time>2022-01-18T17:59:08.931Z</time>
      </trkpt>
      <trkpt lat="44.1231" lon="5.96857">
        <ele>547.20001220703</ele>
        <time>2022-01-18T17:59:14.956Z</time>
      </trkpt>
      <trkpt lat="44.12301" lon="5.96857">
        <ele>547.20001220703</ele>
        <time>2022-01-18T17:59:20.984Z</time>
      </trkpt>
      <trkpt lat="44.12295" lon="5.96854">
        <ele>547.40002441406</ele>
        <time>2022-01-18T17:59:27.014Z</time>
      </trkpt>
      <trkpt lat="44.12293" lon="5.96852">
        <ele>547.40002441406</ele>
        <time>2022-01-18T17:59:33.045Z</time>
      </trkpt>
      <trkpt lat="44.12294" lon="5.96845">
        <ele>547.59997558594</ele>
        <time>2022-01-18T17:59:39.077Z</time>
      </trkpt>
      <trkpt lat="44.12301" lon="5.96834">
        <ele>547.59997558594</ele>
        <time>2022-01-18T17:59:45.113Z</time>
      </trkpt>
      <trkpt lat="44.12318" lon="5.96814">
        <ele>548.59997558594</ele>
        <time>2022-01-18T17:59:51.157Z</time>
      </trkpt>
      <trkpt lat="44.1233" lon="5.96805">
        <ele>548.59997558594</ele>
        <time>2022-01-18T17:59:57.206Z</time>
      </trkpt>
      <trkpt lat="44.12338" lon="5.96795">
        <ele>547.59997558594</ele>
        <time>2022-01-18T18:00:03.258Z</time>
      </trkpt>
      <trkpt lat="44.12347" lon="5.9678">
        <ele>547.59997558594</ele>
        <time>2022-01-18T18:00:09.315Z</time>
      </trkpt>
      <trkpt lat="44.12331" lon="5.96786">
        <ele>550</ele>
        <time>2022-01-18T18:00:15.378Z</time>
      </trkpt>
      <trkpt lat="44.12318" lon="5.96784">
        <ele>550</ele>
        <time>2022-01-18T18:00:21.446Z</time>
      </trkpt>
      <trkpt lat="44.12308" lon="5.96779">
        <ele>550.20001220703</ele>
        <time>2022-01-18T18:00:27.518Z</time>
      </trkpt>
      <trkpt lat="44.12302" lon="5.96772">
        <ele>550.20001220703</ele>
        <time>2022-01-18T18:00:33.592Z</time>
      </trkpt>
      <trkpt lat="44.12272" lon="5.96779">
        <ele>550.20001220703</ele>
        <time>2022-01-18T18:00:39.677Z</time>
      </trkpt>
      <trkpt lat="44.12259" lon="5.96772">
        <ele>551.40002441406</ele>
        <time>2022-01-18T18:00:45.766Z</time>
      </trkpt>
      <trkpt lat="44.12254" lon="5.96766">
        <ele>551.40002441406</ele>
        <time>2022-01-18T18:00:51.858Z</time>
      </trkpt>
      <trkpt lat="44.12257" lon="5.96756">
        <ele>551.40002441406</ele>
        <time>2022-01-18T18:00:57.952Z</time>
      </trkpt>
      <trkpt lat="44.1226" lon="5.9675">
        <ele>552.40002441406</ele>
        <time>2022-01-18T18:01:04.048Z</time>
      </trkpt>
      <trkpt lat="44.12258" lon="5.96746">
        <ele>552.40002441406</ele>
        <time>2022-01-18T18:01:10.145Z</time>
      </trkpt>
      <trkpt lat="44.12251" lon="5.96751">
        <ele>553</ele>
        <time>2022-01-18T18:01:16.245Z</time>
      </trkpt>
      <trkpt lat="44.12235" lon="5.96759">
        <ele>553</ele>
        <time>2022-01-18T18:01:22.351Z</time>
      </trkpt>
      <trkpt lat="44.12219" lon="5.9675">
        <ele>553</ele>
        <time>2022-01-18T18:01:28.463Z</time>
      </trkpt>
      <trkpt lat="44.12205" lon="5.96756">
        <ele>553</ele>
        <time>2022-01-18T18:01:34.580Z</time>
      </trkpt>
      <trkpt lat="44.12186" lon="5.96756">
        <ele>553</ele>
        <time>2022-01-18T18:01:40.704Z</time>
      </trkpt>
      <trkpt lat="44.12175" lon="5.96764">
        <ele>554.40002441406</ele>
        <time>2022-01-18T18:01:46.832Z</time>
      </trkpt>
      <trkpt lat="44.12157" lon="5.96764">
        <ele>554.40002441406</ele>
        <time>2022-01-18T18:01:52.967Z</time>
      </trkpt>
      <trkpt lat="44.1214" lon="5.96751">
        <ele>554.40002441406</ele>
        <time>2022-01-18T18:01:59.108Z</time>
      </trkpt>
      <trkpt lat="44.12136" lon="5.96746">
        <ele>555.40002441406</ele>
        <time>2022-01-18T18:02:05.251Z</time>
      </trkpt>
      <trkpt lat="44.12131" lon="5.96732">
        <ele>555.40002441406</ele>
        <time>2022-01-18T18:02:11.398Z</time>
      </trkpt>
      <trkpt lat="44.12145" lon="5.96674">
        <ele>556.40002441406</ele>
        <time>2022-01-18T18:02:17.561Z</time>
      </trkpt>
      <trkpt lat="44.12148" lon="5.96643">
        <ele>556.40002441406</ele>
        <time>2022-01-18T18:02:23.731Z</time>
      </trkpt>
      <trkpt lat="44.12154" lon="5.96635">
        <ele>556.40002441406</ele>
        <time>2022-01-18T18:02:29.904Z</time>
      </trkpt>
      <trkpt lat="44.12147" lon="5.96612">
        <ele>556.40002441406</ele>
        <time>2022-01-18T18:02:36.083Z</time>
      </trkpt>
      <trkpt lat="44.12146" lon="5.96593">
        <ele>557.40002441406</ele>
        <time>2022-01-18T18:02:42.267Z</time>
      </trkpt>
      <trkpt lat="44.1216" lon="5.96564">
        <ele>558.40002441406</ele>
        <time>2022-01-18T18:02:48.460Z</time>
      </trkpt>
      <trkpt lat="44.12165" lon="5.96541">
        <ele>558.40002441406</ele>
        <time>2022-01-18T18:02:54.659Z</time>
      </trkpt>
      <trkpt lat="44.12172" lon="5.96527">
        <ele>558.59997558594</ele>
        <time>2022-01-18T18:03:00.862Z</time>
      </trkpt>
      <trkpt lat="44.12191" lon="5.96501">
        <ele>558.59997558594</ele>
        <time>2022-01-18T18:03:07.075Z</time>
      </trkpt>
      <trkpt lat="44.122" lon="5.96494">
        <ele>564</ele>
        <time>2022-01-18T18:03:13.291Z</time>
      </trkpt>
      <trkpt lat="44.12237" lon="5.96478">
        <ele>568.59997558594</ele>
        <time>2022-01-18T18:03:19.521Z</time>
      </trkpt>
      <trkpt lat="44.12257" lon="5.96469">
        <ele>568.59997558594</ele>
        <time>2022-01-18T18:03:25.758Z</time>
      </trkpt>
      <trkpt lat="44.12274" lon="5.96458">
        <ele>573</ele>
        <time>2022-01-18T18:03:32.002Z</time>
      </trkpt>
      <trkpt lat="44.12275" lon="5.96448">
        <ele>572</ele>
        <time>2022-01-18T18:03:38.248Z</time>
      </trkpt>
      <trkpt lat="44.12274" lon="5.96441">
        <ele>569.79998779297</ele>
        <time>2022-01-18T18:03:44.496Z</time>
      </trkpt>
      <trkpt lat="44.12278" lon="5.96434">
        <ele>569.79998779297</ele>
        <time>2022-01-18T18:03:50.746Z</time>
      </trkpt>
      <trkpt lat="44.12281" lon="5.96431">
        <ele>567.59997558594</ele>
        <time>2022-01-18T18:03:56.997Z</time>
      </trkpt>
      <trkpt lat="44.12289" lon="5.9643">
        <ele>566.59997558594</ele>
        <time>2022-01-18T18:04:03.251Z</time>
      </trkpt>
      <trkpt lat="44.12294" lon="5.96425">
        <ele>566.59997558594</ele>
        <time>2022-01-18T18:04:09.508Z</time>
      </trkpt>
      <trkpt lat="44.12307" lon="5.96403">
        <ele>566.59997558594</ele>
        <time>2022-01-18T18:04:15.771Z</time>
      </trkpt>
      <trkpt lat="44.12303" lon="5.96384">
        <ele>568</ele>
        <time>2022-01-18T18:04:22.040Z</time>
      </trkpt>
      <trkpt lat="44.12304" lon="5.96381">
        <ele>568</ele>
        <time>2022-01-18T18:04:28.309Z</time>
      </trkpt>
      <trkpt lat="44.1231" lon="5.9637">
        <ele>570.79998779297</ele>
        <time>2022-01-18T18:04:34.582Z</time>
      </trkpt>
      <trkpt lat="44.12314" lon="5.96356">
        <ele>570.79998779297</ele>
        <time>2022-01-18T18:04:40.859Z</time>
      </trkpt>
      <trkpt lat="44.1232" lon="5.96347">
        <ele>570.79998779297</ele>
        <time>2022-01-18T18:04:47.139Z</time>
      </trkpt>
      <trkpt lat="44.12323" lon="5.96338">
        <ele>576.20001220703</ele>
        <time>2022-01-18T18:04:53.421Z</time>
      </trkpt>
      <trkpt lat="44.12329" lon="5.96329">
        <ele>576.20001220703</ele>
        <time>2022-01-18T18:04:59.706Z</time>
      </trkpt>
      <trkpt lat="44.12334" lon="5.96316">
        <ele>580</ele>
        <time>2022-01-18T18:05:05.995Z</time>
      </trkpt>
      <trkpt lat="44.12342" lon="5.96311">
        <ele>582.20001220703</ele>
        <time>2022-01-18T18:05:12.287Z</time>
      </trkpt>
      <trkpt lat="44.12344" lon="5.96304">
        <ele>584</ele>
        <time>2022-01-18T18:05:18.581Z</time>
      </trkpt>
      <trkpt lat="44.12351" lon="5.96315">
        <ele>584</ele>
        <time>2022-01-18T18:05:24.879Z</time>
      </trkpt>
      <trkpt lat="44.12357" lon="5.96319">
        <ele>584</ele>
        <time>2022-01-18T18:05:31.179Z</time>
      </trkpt>
      <trkpt lat="44.12364" lon="5.96318">
        <ele>584</ele>
        <time>2022-01-18T18:05:37.482Z</time>
      </trkpt>
      <trkpt lat="44.12372" lon="5.96321">
        <ele>584</ele>
        <time>2022-01-18T18:05:43.788Z</time>
      </trkpt>
      <trkpt lat="44.12378" lon="5.96319">
        <ele>590.79998779297</ele>
        <time>2022-01-18T18:05:50.096Z</time>
      </trkpt>
      <trkpt lat="44.12395" lon="5.96309">
        <ele>590.79998779297</ele>
        <time>2022-01-18T18:05:56.410Z</time>
      </trkpt>
      <trkpt lat="44.12398" lon="5.96308">
        <ele>593.20001220703</ele>
        <time>2022-01-18T18:06:02.726Z</time>
      </trkpt>
      <trkpt lat="44.1241" lon="5.96309">
        <ele>594.20001220703</ele>
        <time>2022-01-18T18:06:09.046Z</time>
      </trkpt>
      <trkpt lat="44.12428" lon="5.96324">
        <ele>591.40002441406</ele>
        <time>2022-01-18T18:06:15.373Z</time>
      </trkpt>
      <trkpt lat="44.12439" lon="5.96329">
        <ele>591.40002441406</ele>
        <time>2022-01-18T18:06:21.704Z</time>
      </trkpt>
      <trkpt lat="44.12448" lon="5.9633">
        <ele>590</ele>
        <time>2022-01-18T18:06:28.038Z</time>
      </trkpt>
      <trkpt lat="44.12466" lon="5.96322">
        <ele>591.59997558594</ele>
        <time>2022-01-18T18:06:34.379Z</time>
      </trkpt>
      <trkpt lat="44.12485" lon="5.96318">
        <ele>591.59997558594</ele>
        <time>2022-01-18T18:06:40.726Z</time>
      </trkpt>
      <trkpt lat="44.125" lon="5.96327">
        <ele>593.79998779297</ele>
        <time>2022-01-18T18:06:47.079Z</time>
      </trkpt>
      <trkpt lat="44.12514" lon="5.96351">
        <ele>591</ele>
        <time>2022-01-18T18:06:53.440Z</time>
      </trkpt>
      <trkpt lat="44.12524" lon="5.96357">
        <ele>589.79998779297</ele>
        <time>2022-01-18T18:06:59.805Z</time>
      </trkpt>
      <trkpt lat="44.12532" lon="5.96359">
        <ele>589.79998779297</ele>
        <time>2022-01-18T18:07:06.173Z</time>
      </trkpt>
      <trkpt lat="44.12542" lon="5.96359">
        <ele>589.79998779297</ele>
        <time>2022-01-18T18:07:12.544Z</time>
      </trkpt>
      <trkpt lat="44.12564" lon="5.96383">
        <ele>589.79998779297</ele>
        <time>2022-01-18T18:07:18.925Z</time>
      </trkpt>
      <trkpt lat="44.12589" lon="5.96392">
        <ele>584.59997558594</ele>
        <time>2022-01-18T18:07:25.315Z</time>
      </trkpt>
      <trkpt lat="44.12595" lon="5.96388">
        <ele>584.59997558594</ele>
        <time>2022-01-18T18:07:31.707Z</time>
      </trkpt>
      <trkpt lat="44.12608" lon="5.96386">
        <ele>584.59997558594</ele>
        <time>2022-01-18T18:07:38.104Z</time>
      </trkpt>
      <trkpt lat="44.12618" lon="5.9638">
        <ele>584.59997558594</ele>
        <time>2022-01-18T18:07:44.505Z</time>
      </trkpt>
      <trkpt lat="44.12624" lon="5.96378">
        <ele>587.40002441406</ele>
        <time>2022-01-18T18:07:50.908Z</time>
      </trkpt>
      <trkpt lat="44.12627" lon="5.96382">
        <ele>587.40002441406</ele>
        <time>2022-01-18T18:07:57.312Z</time>
      </trkpt>
      <trkpt lat="44.12632" lon="5.96397">
        <ele>587.40002441406</ele>
        <time>2022-01-18T18:08:03.720Z</time>
      </trkpt>
      <trkpt lat="44.12637" lon="5.96402">
        <ele>587.40002441406</ele>
        <time>2022-01-18T18:08:10.130Z</time>
      </trkpt>
      <trkpt lat="44.12658" lon="5.96426">
        <ele>587.40002441406</ele>
        <time>2022-01-18T18:08:16.550Z</time>
      </trkpt>
      <trkpt lat="44.12664" lon="5.96428">
        <ele>587.40002441406</ele>
        <time>2022-01-18T18:08:22.972Z</time>
      </trkpt>
      <trkpt lat="44.12717" lon="5.96418">
        <ele>587.40002441406</ele>
        <time>2022-01-18T18:08:29.413Z</time>
      </trkpt>
      <trkpt lat="44.12744" lon="5.96425">
        <ele>587.40002441406</ele>
        <time>2022-01-18T18:08:35.863Z</time>
      </trkpt>
      <trkpt lat="44.12756" lon="5.96419">
        <ele>576.59997558594</ele>
        <time>2022-01-18T18:08:42.318Z</time>
      </trkpt>
      <trkpt lat="44.12768" lon="5.96418">
        <ele>576.59997558594</ele>
        <time>2022-01-18T18:08:48.777Z</time>
      </trkpt>
      <trkpt lat="44.12777" lon="5.96424">
        <ele>576</ele>
        <time>2022-01-18T18:08:55.239Z</time>
      </trkpt>
      <trkpt lat="44.12784" lon="5.96424">
        <ele>575</ele>
        <time>2022-01-18T18:09:01.704Z</time>
      </trkpt>
      <trkpt lat="44.12787" lon="5.96422">
        <ele>575</ele>
        <time>2022-01-18T18:09:08.170Z</time>
      </trkpt>
      <trkpt lat="44.12806" lon="5.96427">
        <ele>565.20001220703</ele>
        <time>2022-01-18T18:09:14.643Z</time>
      </trkpt>
      <trkpt lat="44.12808" lon="5.96431">
        <ele>565.20001220703</ele>
        <time>2022-01-18T18:09:21.117Z</time>
      </trkpt>
      <trkpt lat="44.12814" lon="5.96433">
        <ele>565.20001220703</ele>
        <time>2022-01-18T18:09:27.593Z</time>
      </trkpt>
      <trkpt lat="44.12824" lon="5.9644">
        <ele>565.20001220703</ele>
        <time>2022-01-18T18:09:34.073Z</time>
      </trkpt>
      <trkpt lat="44.12827" lon="5.96443">
        <ele>565.20001220703</ele>
        <time>2022-01-18T18:09:40.554Z</time>
      </trkpt>
      <trkpt lat="44.12829" lon="5.96451">
        <ele>565.20001220703</ele>
        <time>2022-01-18T18:09:47.037Z</time>
      </trkpt>
      <trkpt lat="44.12832" lon="5.96457">
        <ele>565.20001220703</ele>
        <time>2022-01-18T18:09:53.522Z</time>
      </trkpt>
      <trkpt lat="44.12842" lon="5.96462">
        <ele>565.20001220703</ele>
        <time>2022-01-18T18:10:00.011Z</time>
      </trkpt>
      <trkpt lat="44.12857" lon="5.96473">
        <ele>565.20001220703</ele>
        <time>2022-01-18T18:10:06.506Z</time>
      </trkpt>
      <trkpt lat="44.1287" lon="5.96486">
        <ele>546.59997558594</ele>
        <time>2022-01-18T18:10:13.006Z</time>
      </trkpt>
      <trkpt lat="44.12874" lon="5.96499">
        <ele>546.59997558594</ele>
        <time>2022-01-18T18:10:19.510Z</time>
      </trkpt>
      <trkpt lat="44.12877" lon="5.96529">
        <ele>539</ele>
        <time>2022-01-18T18:10:26.022Z</time>
      </trkpt>
      <trkpt lat="44.12879" lon="5.96532">
        <ele>539</ele>
        <time>2022-01-18T18:10:32.535Z</time>
      </trkpt>
      <trkpt lat="44.12885" lon="5.96537">
        <ele>539</ele>
        <time>2022-01-18T18:10:39.050Z</time>
      </trkpt>
      <trkpt lat="44.12889" lon="5.96543">
        <ele>534</ele>
        <time>2022-01-18T18:10:45.567Z</time>
      </trkpt>
      <trkpt lat="44.12893" lon="5.9655">
        <ele>532.79998779297</ele>
        <time>2022-01-18T18:10:52.086Z</time>
      </trkpt>
      <trkpt lat="44.12895" lon="5.96559">
        <ele>531.79998779297</ele>
        <time>2022-01-18T18:10:58.608Z</time>
      </trkpt>
      <trkpt lat="44.12898" lon="5.96564">
        <ele>531.79998779297</ele>
        <time>2022-01-18T18:11:05.131Z</time>
      </trkpt>
      <trkpt lat="44.12909" lon="5.96571">
        <ele>528</ele>
        <time>2022-01-18T18:11:11.659Z</time>
      </trkpt>
      <trkpt lat="44.12921" lon="5.96574">
        <ele>528</ele>
        <time>2022-01-18T18:11:18.191Z</time>
      </trkpt>
      <trkpt lat="44.12923" lon="5.96581">
        <ele>526.79998779297</ele>
        <time>2022-01-18T18:11:24.724Z</time>
      </trkpt>
      <trkpt lat="44.1292" lon="5.96604">
        <ele>525.20001220703</ele>
        <time>2022-01-18T18:11:31.263Z</time>
      </trkpt>
      <trkpt lat="44.12919" lon="5.96629">
        <ele>521.79998779297</ele>
        <time>2022-01-18T18:11:37.809Z</time>
      </trkpt>
      <trkpt lat="44.12916" lon="5.96637">
        <ele>519.40002441406</ele>
        <time>2022-01-18T18:11:44.357Z</time>
      </trkpt>
      <trkpt lat="44.1291" lon="5.96639">
        <ele>519.40002441406</ele>
        <time>2022-01-18T18:11:50.907Z</time>
      </trkpt>
      <trkpt lat="44.12902" lon="5.96632">
        <ele>519.40002441406</ele>
        <time>2022-01-18T18:11:57.460Z</time>
      </trkpt>
      <trkpt lat="44.12892" lon="5.96627">
        <ele>517</ele>
        <time>2022-01-18T18:12:04.017Z</time>
      </trkpt>
      <trkpt lat="44.12885" lon="5.96626">
        <ele>517</ele>
        <time>2022-01-18T18:12:10.576Z</time>
      </trkpt>
      <trkpt lat="44.12872" lon="5.96632">
        <ele>516.40002441406</ele>
        <time>2022-01-18T18:12:17.140Z</time>
      </trkpt>
      <trkpt lat="44.12869" lon="5.9664">
        <ele>516.40002441406</ele>
        <time>2022-01-18T18:12:23.706Z</time>
      </trkpt>
      <trkpt lat="44.12875" lon="5.96719">
        <ele>516.40002441406</ele>
        <time>2022-01-18T18:12:30.292Z</time>
      </trkpt>
      <trkpt lat="44.1287" lon="5.96783">
        <ele>501.39999389648</ele>
        <time>2022-01-18T18:12:36.895Z</time>
      </trkpt>
      <trkpt lat="44.1286" lon="5.96797">
        <ele>501.20001220703</ele>
        <time>2022-01-18T18:12:43.502Z</time>
      </trkpt>
      <trkpt lat="44.12849" lon="5.96801">
        <ele>503.79998779297</ele>
        <time>2022-01-18T18:12:50.114Z</time>
      </trkpt>
      <trkpt lat="44.12842" lon="5.96801">
        <ele>505.39999389648</ele>
        <time>2022-01-18T18:12:56.728Z</time>
      </trkpt>
      <trkpt lat="44.12825" lon="5.96791">
        <ele>505.39999389648</ele>
        <time>2022-01-18T18:13:03.348Z</time>
      </trkpt>
      <trkpt lat="44.12819" lon="5.96793">
        <ele>505.39999389648</ele>
        <time>2022-01-18T18:13:09.970Z</time>
      </trkpt>
      <trkpt lat="44.12818" lon="5.96795">
        <ele>510.79998779297</ele>
        <time>2022-01-18T18:13:16.593Z</time>
      </trkpt>
      <trkpt lat="44.12817" lon="5.96803">
        <ele>510.79998779297</ele>
        <time>2022-01-18T18:13:23.218Z</time>
      </trkpt>
      <trkpt lat="44.1282" lon="5.9682">
        <ele>512.20001220703</ele>
        <time>2022-01-18T18:13:29.848Z</time>
      </trkpt>
      <trkpt lat="44.12826" lon="5.96841">
        <ele>512.20001220703</ele>
        <time>2022-01-18T18:13:36.483Z</time>
      </trkpt>
      <trkpt lat="44.1283" lon="5.96868">
        <ele>512.20001220703</ele>
        <time>2022-01-18T18:13:43.125Z</time>
      </trkpt>
      <trkpt lat="44.12836" lon="5.96885">
        <ele>510</ele>
        <time>2022-01-18T18:13:49.772Z</time>
      </trkpt>
      <trkpt lat="44.12839" lon="5.9689">
        <ele>510</ele>
        <time>2022-01-18T18:13:56.421Z</time>
      </trkpt>
      <trkpt lat="44.12848" lon="5.969">
        <ele>510</ele>
        <time>2022-01-18T18:14:03.074Z</time>
      </trkpt>
      <trkpt lat="44.12875" lon="5.96918">
        <ele>510</ele>
        <time>2022-01-18T18:14:09.737Z</time>
      </trkpt>
      <trkpt lat="44.12878" lon="5.96923">
        <ele>504.60000610352</ele>
        <time>2022-01-18T18:14:16.402Z</time>
      </trkpt>
      <trkpt lat="44.12874" lon="5.96932">
        <ele>504.60000610352</ele>
        <time>2022-01-18T18:14:23.069Z</time>
      </trkpt>
      <trkpt lat="44.12862" lon="5.96945">
        <ele>503.20001220703</ele>
        <time>2022-01-18T18:14:29.741Z</time>
      </trkpt>
      <trkpt lat="44.12843" lon="5.96957">
        <ele>503.20001220703</ele>
        <time>2022-01-18T18:14:36.421Z</time>
      </trkpt>
      <trkpt lat="44.12832" lon="5.96967">
        <ele>504.39999389648</ele>
        <time>2022-01-18T18:14:43.105Z</time>
      </trkpt>
      <trkpt lat="44.12824" lon="5.96979">
        <ele>504.39999389648</ele>
        <time>2022-01-18T18:14:49.794Z</time>
      </trkpt>
      <trkpt lat="44.12814" lon="5.96988">
        <ele>505.60000610352</ele>
        <time>2022-01-18T18:14:56.487Z</time>
      </trkpt>
      <trkpt lat="44.12798" lon="5.96992">
        <ele>506.60000610352</ele>
        <time>2022-01-18T18:15:03.185Z</time>
      </trkpt>
      <trkpt lat="44.12779" lon="5.96994">
        <ele>509.39999389648</ele>
        <time>2022-01-18T18:15:09.890Z</time>
      </trkpt>
      <trkpt lat="44.12781" lon="5.97005">
        <ele>510</ele>
        <time>2022-01-18T18:15:16.598Z</time>
      </trkpt>
      <trkpt lat="44.12787" lon="5.97008">
        <ele>510</ele>
        <time>2022-01-18T18:15:23.308Z</time>
      </trkpt>
      <trkpt lat="44.12797" lon="5.97027">
        <ele>511.60000610352</ele>
        <time>2022-01-18T18:15:30.024Z</time>
      </trkpt>
      <trkpt lat="44.12798" lon="5.97031">
        <ele>512.20001220703</ele>
        <time>2022-01-18T18:15:36.741Z</time>
      </trkpt>
      <trkpt lat="44.12793" lon="5.97034">
        <ele>512.20001220703</ele>
        <time>2022-01-18T18:15:43.460Z</time>
      </trkpt>
      <trkpt lat="44.12785" lon="5.97034">
        <ele>512.20001220703</ele>
        <time>2022-01-18T18:15:50.182Z</time>
      </trkpt>
      <trkpt lat="44.12779" lon="5.97032">
        <ele>514.59997558594</ele>
        <time>2022-01-18T18:15:56.906Z</time>
      </trkpt>
      <trkpt lat="44.12773" lon="5.97034">
        <ele>516.20001220703</ele>
        <time>2022-01-18T18:16:03.632Z</time>
      </trkpt>
      <trkpt lat="44.12752" lon="5.97037">
        <ele>519.79998779297</ele>
        <time>2022-01-18T18:16:10.365Z</time>
      </trkpt>
      <trkpt lat="44.12743" lon="5.97035">
        <ele>521.59997558594</ele>
        <time>2022-01-18T18:16:17.102Z</time>
      </trkpt>
      <trkpt lat="44.12731" lon="5.97029">
        <ele>523.20001220703</ele>
        <time>2022-01-18T18:16:23.843Z</time>
      </trkpt>
      <trkpt lat="44.12719" lon="5.97029">
        <ele>525</ele>
        <time>2022-01-18T18:16:30.588Z</time>
      </trkpt>
      <trkpt lat="44.1269" lon="5.97018">
        <ele>525</ele>
        <time>2022-01-18T18:16:37.344Z</time>
      </trkpt>
      <trkpt lat="44.12641" lon="5.97004">
        <ele>525</ele>
        <time>2022-01-18T18:16:44.117Z</time>
      </trkpt>
      <trkpt lat="44.12635" lon="5.97">
        <ele>525</ele>
        <time>2022-01-18T18:16:50.893Z</time>
      </trkpt>
      <trkpt lat="44.12617" lon="5.97008">
        <ele>525</ele>
        <time>2022-01-18T18:16:57.675Z</time>
      </trkpt>
      <trkpt lat="44.1261" lon="5.97009">
        <ele>531.40002441406</ele>
        <time>2022-01-18T18:17:04.460Z</time>
      </trkpt>
      <trkpt lat="44.1257" lon="5.97008">
        <ele>531.40002441406</ele>
        <time>2022-01-18T18:17:11.259Z</time>
      </trkpt>
      <trkpt lat="44.12525" lon="5.97011">
        <ele>531.40002441406</ele>
        <time>2022-01-18T18:17:18.073Z</time>
      </trkpt>
      <trkpt lat="44.1248" lon="5.97016">
        <ele>531.40002441406</ele>
        <time>2022-01-18T18:17:24.903Z</time>
      </trkpt>
      <trkpt lat="44.12463" lon="5.97014">
        <ele>536.40002441406</ele>
        <time>2022-01-18T18:17:31.739Z</time>
      </trkpt>
      <trkpt lat="44.12455" lon="5.97015">
        <ele>536.40002441406</ele>
        <time>2022-01-18T18:17:38.578Z</time>
      </trkpt>
      <trkpt lat="44.12451" lon="5.97022">
        <ele>536.40002441406</ele>
        <time>2022-01-18T18:17:45.419Z</time>
      </trkpt>
      <trkpt lat="44.12444" lon="5.9703">
        <ele>538.40002441406</ele>
        <time>2022-01-18T18:17:52.263Z</time>
      </trkpt>
      <trkpt lat="44.12439" lon="5.97031">
        <ele>538.40002441406</ele>
        <time>2022-01-18T18:17:59.109Z</time>
      </trkpt>
      <trkpt lat="44.12427" lon="5.97031">
        <ele>539.59997558594</ele>
        <time>2022-01-18T18:18:05.959Z</time>
      </trkpt>
      <trkpt lat="44.12391" lon="5.97035">
        <ele>537</ele>
        <time>2022-01-18T18:18:12.822Z</time>
      </trkpt>
      <trkpt lat="44.12376" lon="5.97036">
        <ele>537</ele>
        <time>2022-01-18T18:18:19.690Z</time>
      </trkpt>
      <trkpt lat="44.12361" lon="5.97031">
        <ele>537</ele>
        <time>2022-01-18T18:18:26.564Z</time>
      </trkpt>
      <trkpt lat="44.12356" lon="5.97031">
        <ele>534.59997558594</ele>
        <time>2022-01-18T18:18:33.440Z</time>
      </trkpt>
      <trkpt lat="44.12334" lon="5.97035">
        <ele>531</ele>
        <time>2022-01-18T18:18:40.323Z</time>
      </trkpt>
      <trkpt lat="44.12323" lon="5.97041">
        <ele>531</ele>
        <time>2022-01-18T18:18:47.210Z</time>
      </trkpt>
      <trkpt lat="44.12307" lon="5.97046">
        <ele>531</ele>
        <time>2022-01-18T18:18:54.103Z</time>
      </trkpt>
      <trkpt lat="44.12277" lon="5.97049">
        <ele>524.40002441406</ele>
        <time>2022-01-18T18:19:01.006Z</time>
      </trkpt>
      <trkpt lat="44.12275" lon="5.97059">
        <ele>524</ele>
        <time>2022-01-18T18:19:07.912Z</time>
      </trkpt>
      <trkpt lat="44.12263" lon="5.97066">
        <ele>522.20001220703</ele>
        <time>2022-01-18T18:19:14.823Z</time>
      </trkpt>
      <trkpt lat="44.12261" lon="5.97075">
        <ele>522.20001220703</ele>
        <time>2022-01-18T18:19:21.736Z</time>
      </trkpt>
      <trkpt lat="44.1225" lon="5.97079">
        <ele>522.20001220703</ele>
        <time>2022-01-18T18:19:28.653Z</time>
      </trkpt>
      <trkpt lat="44.12248" lon="5.97085">
        <ele>522.20001220703</ele>
        <time>2022-01-18T18:19:35.572Z</time>
      </trkpt>
      <trkpt lat="44.12243" lon="5.97088">
        <ele>522.20001220703</ele>
        <time>2022-01-18T18:19:42.493Z</time>
      </trkpt>
      <trkpt lat="44.1224" lon="5.97101">
        <ele>522.20001220703</ele>
        <time>2022-01-18T18:19:49.417Z</time>
      </trkpt>
      <trkpt lat="44.12237" lon="5.97105">
        <ele>516.40002441406</ele>
        <time>2022-01-18T18:19:56.342Z</time>
      </trkpt>
      <trkpt lat="44.12225" lon="5.97111">
        <ele>516.40002441406</ele>
        <time>2022-01-18T18:20:03.272Z</time>
      </trkpt>
      <trkpt lat="44.12217" lon="5.97129">
        <ele>514.79998779297</ele>
        <time>2022-01-18T18:20:10.207Z</time>
      </trkpt>
      <trkpt lat="44.122" lon="5.97136">
        <ele>514.20001220703</ele>
        <time>2022-01-18T18:20:17.148Z</time>
      </trkpt>
      <trkpt lat="44.12193" lon="5.97152">
        <ele>514.20001220703</ele>
        <time>2022-01-18T18:20:24.094Z</time>
      </trkpt>
      <trkpt lat="44.12182" lon="5.97164">
        <ele>514.20001220703</ele>
        <time>2022-01-18T18:20:31.045Z</time>
      </trkpt>
      <trkpt lat="44.12168" lon="5.97181">
        <ele>514.20001220703</ele>
        <time>2022-01-18T18:20:38.002Z</time>
      </trkpt>
      <trkpt lat="44.12157" lon="5.97186">
        <ele>512.40002441406</ele>
        <time>2022-01-18T18:20:44.963Z</time>
      </trkpt>
      <trkpt lat="44.12153" lon="5.9719">
        <ele>512.40002441406</ele>
        <time>2022-01-18T18:20:51.926Z</time>
      </trkpt>
      <trkpt lat="44.12143" lon="5.97206">
        <ele>512.20001220703</ele>
        <time>2022-01-18T18:20:58.894Z</time>
      </trkpt>
      <trkpt lat="44.12142" lon="5.97215">
        <ele>514.59997558594</ele>
        <time>2022-01-18T18:21:05.865Z</time>
      </trkpt>
      <trkpt lat="44.12138" lon="5.97229">
        <ele>514.59997558594</ele>
        <time>2022-01-18T18:21:12.840Z</time>
      </trkpt>
      <trkpt lat="44.1214" lon="5.97255">
        <ele>517.20001220703</ele>
        <time>2022-01-18T18:21:19.821Z</time>
      </trkpt>
      <trkpt lat="44.12145" lon="5.97269">
        <ele>517.79998779297</ele>
        <time>2022-01-18T18:21:26.806Z</time>
      </trkpt>
      <trkpt lat="44.12146" lon="5.97281">
        <ele>517.79998779297</ele>
        <time>2022-01-18T18:21:33.794Z</time>
      </trkpt>
      <trkpt lat="44.12143" lon="5.97292">
        <ele>517.79998779297</ele>
        <time>2022-01-18T18:21:40.785Z</time>
      </trkpt>
      <trkpt lat="44.1213" lon="5.97309">
        <ele>516</ele>
        <time>2022-01-18T18:21:47.782Z</time>
      </trkpt>
      <trkpt lat="44.12121" lon="5.97314">
        <ele>515</ele>
        <time>2022-01-18T18:21:54.783Z</time>
      </trkpt>
      <trkpt lat="44.12086" lon="5.9735">
        <ele>510.39999389648</ele>
        <time>2022-01-18T18:22:01.799Z</time>
      </trkpt>
      <trkpt lat="44.12073" lon="5.97359">
        <ele>510.39999389648</ele>
        <time>2022-01-18T18:22:08.820Z</time>
      </trkpt>
      <trkpt lat="44.12067" lon="5.97373">
        <ele>506</ele>
        <time>2022-01-18T18:22:15.845Z</time>
      </trkpt>
      <trkpt lat="44.12045" lon="5.97384">
        <ele>506</ele>
        <time>2022-01-18T18:22:22.878Z</time>
      </trkpt>
      <trkpt lat="44.12043" lon="5.97394">
        <ele>501.79998779297</ele>
        <time>2022-01-18T18:22:29.914Z</time>
      </trkpt>
      <trkpt lat="44.12037" lon="5.97407">
        <ele>500.60000610352</ele>
        <time>2022-01-18T18:22:36.954Z</time>
      </trkpt>
      <trkpt lat="44.1203" lon="5.97431">
        <ele>500.60000610352</ele>
        <time>2022-01-18T18:22:44.000Z</time>
      </trkpt>
      <trkpt lat="44.1203" lon="5.97447">
        <ele>500.60000610352</ele>
        <time>2022-01-18T18:22:51.050Z</time>
      </trkpt>
      <trkpt lat="44.12022" lon="5.97463">
        <ele>498.20001220703</ele>
        <time>2022-01-18T18:22:58.105Z</time>
      </trkpt>
      <trkpt lat="44.1201" lon="5.97514">
        <ele>493.39999389648</ele>
        <time>2022-01-18T18:23:05.173Z</time>
      </trkpt>
      <trkpt lat="44.12003" lon="5.97529">
        <ele>493.39999389648</ele>
        <time>2022-01-18T18:23:12.246Z</time>
      </trkpt>
      <trkpt lat="44.11983" lon="5.97549">
        <ele>493.39999389648</ele>
        <time>2022-01-18T18:23:19.327Z</time>
      </trkpt>
      <trkpt lat="44.11978" lon="5.97559">
        <ele>492</ele>
        <time>2022-01-18T18:23:26.411Z</time>
      </trkpt>
      <trkpt lat="44.1198" lon="5.9758">
        <ele>492</ele>
        <time>2022-01-18T18:23:33.501Z</time>
      </trkpt>
      <trkpt lat="44.11977" lon="5.97594">
        <ele>492</ele>
        <time>2022-01-18T18:23:40.594Z</time>
      </trkpt>
      <trkpt lat="44.11984" lon="5.9761">
        <ele>492</ele>
        <time>2022-01-18T18:23:47.692Z</time>
      </trkpt>
      <trkpt lat="44.11989" lon="5.97615">
        <ele>492</ele>
        <time>2022-01-18T18:23:54.792Z</time>
      </trkpt>
      <trkpt lat="44.11991" lon="5.97624">
        <ele>492</ele>
        <time>2022-01-18T18:24:01.895Z</time>
      </trkpt>
      <trkpt lat="44.11998" lon="5.97629">
        <ele>492</ele>
        <time>2022-01-18T18:24:09.000Z</time>
      </trkpt>
      <trkpt lat="44.12001" lon="5.97633">
        <ele>492</ele>
        <time>2022-01-18T18:24:16.107Z</time>
      </trkpt>
      <trkpt lat="44.12006" lon="5.97654">
        <ele>488.60000610352</ele>
        <time>2022-01-18T18:24:23.219Z</time>
      </trkpt>
      <trkpt lat="44.12016" lon="5.97666">
        <ele>488.60000610352</ele>
        <time>2022-01-18T18:24:30.336Z</time>
      </trkpt>
      <trkpt lat="44.12023" lon="5.9768">
        <ele>487.60000610352</ele>
        <time>2022-01-18T18:24:37.457Z</time>
      </trkpt>
      <trkpt lat="44.12025" lon="5.97692">
        <ele>486.20001220703</ele>
        <time>2022-01-18T18:24:44.581Z</time>
      </trkpt>
      <trkpt lat="44.12022" lon="5.97697">
        <ele>485</ele>
        <time>2022-01-18T18:24:51.707Z</time>
      </trkpt>
      <trkpt lat="44.12022" lon="5.97701">
        <ele>485</ele>
        <time>2022-01-18T18:24:58.834Z</time>
      </trkpt>
      <trkpt lat="44.12034" lon="5.97713">
        <ele>485</ele>
        <time>2022-01-18T18:25:05.966Z</time>
      </trkpt>
      <trkpt lat="44.12034" lon="5.97717">
        <ele>479.79998779297</ele>
        <time>2022-01-18T18:25:13.099Z</time>
      </trkpt>
      <trkpt lat="44.12028" lon="5.97728">
        <ele>477.60000610352</ele>
        <time>2022-01-18T18:25:20.236Z</time>
      </trkpt>
      <trkpt lat="44.12027" lon="5.97752">
        <ele>479.20001220703</ele>
        <time>2022-01-18T18:25:27.378Z</time>
      </trkpt>
      <trkpt lat="44.12024" lon="5.97772">
        <ele>480.60000610352</ele>
        <time>2022-01-18T18:25:34.526Z</time>
      </trkpt>
      <trkpt lat="44.12023" lon="5.97787">
        <ele>480.60000610352</ele>
        <time>2022-01-18T18:25:41.678Z</time>
      </trkpt>
      <trkpt lat="44.12018" lon="5.978">
        <ele>480.60000610352</ele>
        <time>2022-01-18T18:25:48.833Z</time>
      </trkpt>
      <trkpt lat="44.12016" lon="5.97804">
        <ele>483.60000610352</ele>
        <time>2022-01-18T18:25:55.990Z</time>
      </trkpt>
      <trkpt lat="44.11999" lon="5.97817">
        <ele>485.79998779297</ele>
        <time>2022-01-18T18:26:03.153Z</time>
      </trkpt>
      <trkpt lat="44.12" lon="5.97835">
        <ele>485.79998779297</ele>
        <time>2022-01-18T18:26:10.321Z</time>
      </trkpt>
      <trkpt lat="44.11989" lon="5.97845">
        <ele>485.79998779297</ele>
        <time>2022-01-18T18:26:17.493Z</time>
      </trkpt>
      <trkpt lat="44.11977" lon="5.97849">
        <ele>493.79998779297</ele>
        <time>2022-01-18T18:26:24.670Z</time>
      </trkpt>
      <trkpt lat="44.11967" lon="5.97855">
        <ele>493.79998779297</ele>
        <time>2022-01-18T18:26:31.850Z</time>
      </trkpt>
      <trkpt lat="44.11959" lon="5.97852">
        <ele>497.39999389648</ele>
        <time>2022-01-18T18:26:39.033Z</time>
      </trkpt>
      <trkpt lat="44.11948" lon="5.97853">
        <ele>499.60000610352</ele>
        <time>2022-01-18T18:26:46.220Z</time>
      </trkpt>
      <trkpt lat="44.1194" lon="5.97857">
        <ele>501.39999389648</ele>
        <time>2022-01-18T18:26:53.410Z</time>
      </trkpt>
      <trkpt lat="44.11923" lon="5.97851">
        <ele>504</ele>
        <time>2022-01-18T18:27:00.606Z</time>
      </trkpt>
      <trkpt lat="44.11916" lon="5.9785">
        <ele>506</ele>
        <time>2022-01-18T18:27:07.805Z</time>
      </trkpt>
      <trkpt lat="44.11894" lon="5.97828">
        <ele>511.39999389648</ele>
        <time>2022-01-18T18:27:15.013Z</time>
      </trkpt>
      <trkpt lat="44.1189" lon="5.97831">
        <ele>513.20001220703</ele>
        <time>2022-01-18T18:27:22.223Z</time>
      </trkpt>
      <trkpt lat="44.11889" lon="5.97838">
        <ele>514.20001220703</ele>
        <time>2022-01-18T18:27:29.434Z</time>
      </trkpt>
      <trkpt lat="44.11883" lon="5.97843">
        <ele>514.20001220703</ele>
        <time>2022-01-18T18:27:36.648Z</time>
      </trkpt>
      <trkpt lat="44.11865" lon="5.97847">
        <ele>517.59997558594</ele>
        <time>2022-01-18T18:27:43.868Z</time>
      </trkpt>
      <trkpt lat="44.11854" lon="5.97853">
        <ele>517.59997558594</ele>
        <time>2022-01-18T18:27:51.092Z</time>
      </trkpt>
      <trkpt lat="44.1185" lon="5.97861">
        <ele>520.20001220703</ele>
        <time>2022-01-18T18:27:58.318Z</time>
      </trkpt>
      <trkpt lat="44.11847" lon="5.97888">
        <ele>519.59997558594</ele>
        <time>2022-01-18T18:28:05.551Z</time>
      </trkpt>
      <trkpt lat="44.11848" lon="5.97898">
        <ele>519.59997558594</ele>
        <time>2022-01-18T18:28:12.787Z</time>
      </trkpt>
      <trkpt lat="44.11845" lon="5.9791">
        <ele>516</ele>
        <time>2022-01-18T18:28:20.026Z</time>
      </trkpt>
      <trkpt lat="44.11849" lon="5.97929">
        <ele>513.20001220703</ele>
        <time>2022-01-18T18:28:27.270Z</time>
      </trkpt>
      <trkpt lat="44.11853" lon="5.97933">
        <ele>513.20001220703</ele>
        <time>2022-01-18T18:28:34.516Z</time>
      </trkpt>
      <trkpt lat="44.11859" lon="5.97925">
        <ele>514</ele>
        <time>2022-01-18T18:28:41.765Z</time>
      </trkpt>
      <trkpt lat="44.11862" lon="5.97934">
        <ele>514</ele>
        <time>2022-01-18T18:28:49.016Z</time>
      </trkpt>
      <trkpt lat="44.11865" lon="5.97947">
        <ele>514</ele>
        <time>2022-01-18T18:28:56.271Z</time>
      </trkpt>
      <trkpt lat="44.11869" lon="5.97958">
        <ele>509.39999389648</ele>
        <time>2022-01-18T18:29:03.529Z</time>
      </trkpt>
      <trkpt lat="44.1187" lon="5.97971">
        <ele>509.39999389648</ele>
        <time>2022-01-18T18:29:10.790Z</time>
      </trkpt>
      <trkpt lat="44.11876" lon="5.97983">
        <ele>509.39999389648</ele>
        <time>2022-01-18T18:29:18.055Z</time>
      </trkpt>
      <trkpt lat="44.11884" lon="5.97987">
        <ele>509.39999389648</ele>
        <time>2022-01-18T18:29:25.322Z</time>
      </trkpt>
      <trkpt lat="44.119" lon="5.98003">
        <ele>508</ele>
        <time>2022-01-18T18:29:32.597Z</time>
      </trkpt>
      <trkpt lat="44.11904" lon="5.98013">
        <ele>508</ele>
        <time>2022-01-18T18:29:39.875Z</time>
      </trkpt>
      <trkpt lat="44.11904" lon="5.98025">
        <ele>505.79998779297</ele>
        <time>2022-01-18T18:29:47.155Z</time>
      </trkpt>
      <trkpt lat="44.11894" lon="5.98034">
        <ele>506.39999389648</ele>
        <time>2022-01-18T18:29:54.440Z</time>
      </trkpt>
      <trkpt lat="44.11892" lon="5.98041">
        <ele>506.39999389648</ele>
        <time>2022-01-18T18:30:01.727Z</time>
      </trkpt>
      <trkpt lat="44.11891" lon="5.98058">
        <ele>506.39999389648</ele>
        <time>2022-01-18T18:30:09.018Z</time>
      </trkpt>
      <trkpt lat="44.11888" lon="5.9808">
        <ele>507.39999389648</ele>
        <time>2022-01-18T18:30:16.314Z</time>
      </trkpt>
      <trkpt lat="44.11881" lon="5.98123">
        <ele>507.39999389648</ele>
        <time>2022-01-18T18:30:23.622Z</time>
      </trkpt>
      <trkpt lat="44.11874" lon="5.9813">
        <ele>507.39999389648</ele>
        <time>2022-01-18T18:30:30.932Z</time>
      </trkpt>
      <trkpt lat="44.11865" lon="5.98129">
        <ele>507.39999389648</ele>
        <time>2022-01-18T18:30:38.246Z</time>
      </trkpt>
      <trkpt lat="44.11855" lon="5.98125">
        <ele>511.79998779297</ele>
        <time>2022-01-18T18:30:45.563Z</time>
      </trkpt>
      <trkpt lat="44.11847" lon="5.98126">
        <ele>512.79998779297</ele>
        <time>2022-01-18T18:30:52.883Z</time>
      </trkpt>
      <trkpt lat="44.11833" lon="5.98131">
        <ele>512.79998779297</ele>
        <time>2022-01-18T18:31:00.208Z</time>
      </trkpt>
      <trkpt lat="44.11825" lon="5.98144">
        <ele>518</ele>
        <time>2022-01-18T18:31:07.537Z</time>
      </trkpt>
      <trkpt lat="44.1181" lon="5.9816">
        <ele>518</ele>
        <time>2022-01-18T18:31:14.873Z</time>
      </trkpt>
      <trkpt lat="44.11806" lon="5.98161">
        <ele>520.79998779297</ele>
        <time>2022-01-18T18:31:22.210Z</time>
      </trkpt>
      <trkpt lat="44.11797" lon="5.98172">
        <ele>522.40002441406</ele>
        <time>2022-01-18T18:31:29.552Z</time>
      </trkpt>
      <trkpt lat="44.1179" lon="5.98174">
        <ele>523.79998779297</ele>
        <time>2022-01-18T18:31:36.896Z</time>
      </trkpt>
      <trkpt lat="44.1178" lon="5.98193">
        <ele>523.79998779297</ele>
        <time>2022-01-18T18:31:44.246Z</time>
      </trkpt>
      <trkpt lat="44.11772" lon="5.98201">
        <ele>527.79998779297</ele>
        <time>2022-01-18T18:31:51.599Z</time>
      </trkpt>
      <trkpt lat="44.11767" lon="5.98203">
        <ele>529.20001220703</ele>
        <time>2022-01-18T18:31:58.954Z</time>
      </trkpt>
      <trkpt lat="44.11757" lon="5.98215">
        <ele>529.20001220703</ele>
        <time>2022-01-18T18:32:06.314Z</time>
      </trkpt>
      <trkpt lat="44.1175" lon="5.98222">
        <ele>533.79998779297</ele>
        <time>2022-01-18T18:32:13.677Z</time>
      </trkpt>
      <trkpt lat="44.11744" lon="5.9822">
        <ele>533.79998779297</ele>
        <time>2022-01-18T18:32:21.042Z</time>
      </trkpt>
      <trkpt lat="44.11741" lon="5.98221">
        <ele>533.79998779297</ele>
        <time>2022-01-18T18:32:28.408Z</time>
      </trkpt>
      <trkpt lat="44.11728" lon="5.98239">
        <ele>533.79998779297</ele>
        <time>2022-01-18T18:32:35.781Z</time>
      </trkpt>
      <trkpt lat="44.11716" lon="5.98246">
        <ele>533.79998779297</ele>
        <time>2022-01-18T18:32:43.158Z</time>
      </trkpt>
      <trkpt lat="44.11699" lon="5.98266">
        <ele>540.59997558594</ele>
        <time>2022-01-18T18:32:50.543Z</time>
      </trkpt>
      <trkpt lat="44.11694" lon="5.98274">
        <ele>540.59997558594</ele>
        <time>2022-01-18T18:32:57.931Z</time>
      </trkpt>
      <trkpt lat="44.11683" lon="5.98282">
        <ele>541.40002441406</ele>
        <time>2022-01-18T18:33:05.323Z</time>
      </trkpt>
      <trkpt lat="44.11666" lon="5.98289">
        <ele>541.40002441406</ele>
        <time>2022-01-18T18:33:12.721Z</time>
      </trkpt>
      <trkpt lat="44.11654" lon="5.98298">
        <ele>541.40002441406</ele>
        <time>2022-01-18T18:33:20.124Z</time>
      </trkpt>
      <trkpt lat="44.11641" lon="5.98299">
        <ele>545</ele>
        <time>2022-01-18T18:33:27.531Z</time>
      </trkpt>
      <trkpt lat="44.11617" lon="5.98288">
        <ele>545</ele>
        <time>2022-01-18T18:33:34.947Z</time>
      </trkpt>
      <trkpt lat="44.1159" lon="5.98285">
        <ele>545</ele>
        <time>2022-01-18T18:33:42.373Z</time>
      </trkpt>
      <trkpt lat="44.11583" lon="5.98283">
        <ele>555.40002441406</ele>
        <time>2022-01-18T18:33:49.801Z</time>
      </trkpt>
      <trkpt lat="44.11565" lon="5.98274">
        <ele>555.40002441406</ele>
        <time>2022-01-18T18:33:57.236Z</time>
      </trkpt>
      <trkpt lat="44.11556" lon="5.98258">
        <ele>560.40002441406</ele>
        <time>2022-01-18T18:34:04.676Z</time>
      </trkpt>
      <trkpt lat="44.11546" lon="5.98234">
        <ele>562.59997558594</ele>
        <time>2022-01-18T18:34:12.123Z</time>
      </trkpt>
      <trkpt lat="44.11544" lon="5.98222">
        <ele>562.59997558594</ele>
        <time>2022-01-18T18:34:19.573Z</time>
      </trkpt>
      <trkpt lat="44.11542" lon="5.98217">
        <ele>564.40002441406</ele>
        <time>2022-01-18T18:34:27.025Z</time>
      </trkpt>
      <trkpt lat="44.1153" lon="5.982">
        <ele>564.40002441406</ele>
        <time>2022-01-18T18:34:34.483Z</time>
      </trkpt>
      <trkpt lat="44.11522" lon="5.98185">
        <ele>564.40002441406</ele>
        <time>2022-01-18T18:34:41.945Z</time>
      </trkpt>
      <trkpt lat="44.11522" lon="5.98183">
        <ele>567.79998779297</ele>
        <time>2022-01-18T18:34:49.408Z</time>
      </trkpt>
      <trkpt lat="44.11505" lon="5.98142">
        <ele>567.79998779297</ele>
        <time>2022-01-18T18:34:56.883Z</time>
      </trkpt>
      <trkpt lat="44.11505" lon="5.98121">
        <ele>567.79998779297</ele>
        <time>2022-01-18T18:35:04.363Z</time>
      </trkpt>
      <trkpt lat="44.11498" lon="5.98094">
        <ele>567.79998779297</ele>
        <time>2022-01-18T18:35:11.850Z</time>
      </trkpt>
      <trkpt lat="44.11492" lon="5.98092">
        <ele>567.79998779297</ele>
        <time>2022-01-18T18:35:19.339Z</time>
      </trkpt>
      <trkpt lat="44.11485" lon="5.98101">
        <ele>567.79998779297</ele>
        <time>2022-01-18T18:35:26.832Z</time>
      </trkpt>
      <trkpt lat="44.11484" lon="5.98104">
        <ele>582.20001220703</ele>
        <time>2022-01-18T18:35:34.326Z</time>
      </trkpt>
      <trkpt lat="44.1147" lon="5.98113">
        <ele>582.20001220703</ele>
        <time>2022-01-18T18:35:41.825Z</time>
      </trkpt>
      <trkpt lat="44.11462" lon="5.98121">
        <ele>582.20001220703</ele>
        <time>2022-01-18T18:35:49.327Z</time>
      </trkpt>
      <trkpt lat="44.11452" lon="5.98129">
        <ele>583.79998779297</ele>
        <time>2022-01-18T18:35:56.833Z</time>
      </trkpt>
      <trkpt lat="44.11443" lon="5.98134">
        <ele>583.79998779297</ele>
        <time>2022-01-18T18:36:04.343Z</time>
      </trkpt>
      <trkpt lat="44.11437" lon="5.98135">
        <ele>584.20001220703</ele>
        <time>2022-01-18T18:36:11.855Z</time>
      </trkpt>
      <trkpt lat="44.1143" lon="5.98132">
        <ele>585.40002441406</ele>
        <time>2022-01-18T18:36:19.369Z</time>
      </trkpt>
      <trkpt lat="44.11417" lon="5.9813">
        <ele>586.79998779297</ele>
        <time>2022-01-18T18:36:26.888Z</time>
      </trkpt>
      <trkpt lat="44.1141" lon="5.98126">
        <ele>586.79998779297</ele>
        <time>2022-01-18T18:36:34.409Z</time>
      </trkpt>
      <trkpt lat="44.11398" lon="5.98117">
        <ele>590.20001220703</ele>
        <time>2022-01-18T18:36:41.935Z</time>
      </trkpt>
      <trkpt lat="44.11394" lon="5.98116">
        <ele>590.20001220703</ele>
        <time>2022-01-18T18:36:49.463Z</time>
      </trkpt>
      <trkpt lat="44.11388" lon="5.98119">
        <ele>591.59997558594</ele>
        <time>2022-01-18T18:36:56.993Z</time>
      </trkpt>
      <trkpt lat="44.11363" lon="5.98123">
        <ele>591.59997558594</ele>
        <time>2022-01-18T18:37:04.532Z</time>
      </trkpt>
      <trkpt lat="44.11361" lon="5.98126">
        <ele>595</ele>
        <time>2022-01-18T18:37:12.072Z</time>
      </trkpt>
      <trkpt lat="44.11352" lon="5.98128">
        <ele>595</ele>
        <time>2022-01-18T18:37:19.615Z</time>
      </trkpt>
      <trkpt lat="44.11344" lon="5.98141">
        <ele>595.59997558594</ele>
        <time>2022-01-18T18:37:27.162Z</time>
      </trkpt>
      <trkpt lat="44.1134" lon="5.98153">
        <ele>595.59997558594</ele>
        <time>2022-01-18T18:37:34.713Z</time>
      </trkpt>
      <trkpt lat="44.11334" lon="5.98157">
        <ele>595.79998779297</ele>
        <time>2022-01-18T18:37:42.266Z</time>
      </trkpt>
      <trkpt lat="44.11329" lon="5.98177">
        <ele>595.79998779297</ele>
        <time>2022-01-18T18:37:49.824Z</time>
      </trkpt>
      <trkpt lat="44.11332" lon="5.98186">
        <ele>594.40002441406</ele>
        <time>2022-01-18T18:37:57.385Z</time>
      </trkpt>
      <trkpt lat="44.11333" lon="5.98196">
        <ele>594.40002441406</ele>
        <time>2022-01-18T18:38:04.948Z</time>
      </trkpt>
      <trkpt lat="44.11331" lon="5.98268">
        <ele>595</ele>
        <time>2022-01-18T18:38:12.529Z</time>
      </trkpt>
      <trkpt lat="44.11335" lon="5.98286">
        <ele>595</ele>
        <time>2022-01-18T18:38:20.115Z</time>
      </trkpt>
      <trkpt lat="44.11332" lon="5.98303">
        <ele>595</ele>
        <time>2022-01-18T18:38:27.706Z</time>
      </trkpt>
      <trkpt lat="44.11332" lon="5.98327">
        <ele>590.59997558594</ele>
        <time>2022-01-18T18:38:35.303Z</time>
      </trkpt>
      <trkpt lat="44.11325" lon="5.9833">
        <ele>590.59997558594</ele>
        <time>2022-01-18T18:38:42.902Z</time>
      </trkpt>
      <trkpt lat="44.11318" lon="5.9834">
        <ele>588.79998779297</ele>
        <time>2022-01-18T18:38:50.505Z</time>
      </trkpt>
      <trkpt lat="44.11304" lon="5.98347">
        <ele>587.59997558594</ele>
        <time>2022-01-18T18:38:58.113Z</time>
      </trkpt>
      <trkpt lat="44.1128" lon="5.98339">
        <ele>589.20001220703</ele>
        <time>2022-01-18T18:39:05.729Z</time>
      </trkpt>
      <trkpt lat="44.11264" lon="5.98336">
        <ele>589.20001220703</ele>
        <time>2022-01-18T18:39:13.351Z</time>
      </trkpt>
      <trkpt lat="44.11253" lon="5.9834">
        <ele>589.20001220703</ele>
        <time>2022-01-18T18:39:20.977Z</time>
      </trkpt>
      <trkpt lat="44.11242" lon="5.98337">
        <ele>593.20001220703</ele>
        <time>2022-01-18T18:39:28.607Z</time>
      </trkpt>
      <trkpt lat="44.11235" lon="5.98333">
        <ele>593.20001220703</ele>
        <time>2022-01-18T18:39:36.240Z</time>
      </trkpt>
      <trkpt lat="44.11216" lon="5.98327">
        <ele>597</ele>
        <time>2022-01-18T18:39:43.879Z</time>
      </trkpt>
      <trkpt lat="44.11206" lon="5.98327">
        <ele>598.20001220703</ele>
        <time>2022-01-18T18:39:51.522Z</time>
      </trkpt>
      <trkpt lat="44.11198" lon="5.98329">
        <ele>598.20001220703</ele>
        <time>2022-01-18T18:39:59.168Z</time>
      </trkpt>
      <trkpt lat="44.11185" lon="5.98325">
        <ele>600.59997558594</ele>
        <time>2022-01-18T18:40:06.819Z</time>
      </trkpt>
      <trkpt lat="44.11174" lon="5.98326">
        <ele>600.59997558594</ele>
        <time>2022-01-18T18:40:14.473Z</time>
      </trkpt>
      <trkpt lat="44.11158" lon="5.98318">
        <ele>600.59997558594</ele>
        <time>2022-01-18T18:40:22.133Z</time>
      </trkpt>
      <trkpt lat="44.11137" lon="5.98313">
        <ele>607.79998779297</ele>
        <time>2022-01-18T18:40:29.801Z</time>
      </trkpt>
      <trkpt lat="44.11116" lon="5.98286">
        <ele>609.40002441406</ele>
        <time>2022-01-18T18:40:37.479Z</time>
      </trkpt>
      <trkpt lat="44.11111" lon="5.98277">
        <ele>610</ele>
        <time>2022-01-18T18:40:45.160Z</time>
      </trkpt>
      <trkpt lat="44.11101" lon="5.98266">
        <ele>610</ele>
        <time>2022-01-18T18:40:52.845Z</time>
      </trkpt>
      <trkpt lat="44.11092" lon="5.98245">
        <ele>611.40002441406</ele>
        <time>2022-01-18T18:41:00.536Z</time>
      </trkpt>
      <trkpt lat="44.11098" lon="5.9821">
        <ele>613.40002441406</ele>
        <time>2022-01-18T18:41:08.236Z</time>
      </trkpt>
      <trkpt lat="44.11099" lon="5.98198">
        <ele>613.40002441406</ele>
        <time>2022-01-18T18:41:15.939Z</time>
      </trkpt>
      <trkpt lat="44.11104" lon="5.98185">
        <ele>613.40002441406</ele>
        <time>2022-01-18T18:41:23.646Z</time>
      </trkpt>
      <trkpt lat="44.11103" lon="5.98169">
        <ele>616</ele>
        <time>2022-01-18T18:41:31.357Z</time>
      </trkpt>
      <trkpt lat="44.1111" lon="5.98154">
        <ele>616.79998779297</ele>
        <time>2022-01-18T18:41:39.072Z</time>
      </trkpt>
      <trkpt lat="44.11108" lon="5.98137">
        <ele>618.79998779297</ele>
        <time>2022-01-18T18:41:46.792Z</time>
      </trkpt>
      <trkpt lat="44.11104" lon="5.9813">
        <ele>618.79998779297</ele>
        <time>2022-01-18T18:41:54.514Z</time>
      </trkpt>
      <trkpt lat="44.11089" lon="5.98113">
        <ele>622.79998779297</ele>
        <time>2022-01-18T18:42:02.242Z</time>
      </trkpt>
      <trkpt lat="44.11073" lon="5.98105">
        <ele>622.79998779297</ele>
        <time>2022-01-18T18:42:09.977Z</time>
      </trkpt>
      <trkpt lat="44.11063" lon="5.98102">
        <ele>622.79998779297</ele>
        <time>2022-01-18T18:42:17.715Z</time>
      </trkpt>
      <trkpt lat="44.11039" lon="5.98099">
        <ele>622.79998779297</ele>
        <time>2022-01-18T18:42:25.461Z</time>
      </trkpt>
      <trkpt lat="44.1103" lon="5.98093">
        <ele>630</ele>
        <time>2022-01-18T18:42:33.211Z</time>
      </trkpt>
      <trkpt lat="44.11023" lon="5.98093">
        <ele>630.59997558594</ele>
        <time>2022-01-18T18:42:40.963Z</time>
      </trkpt>
      <trkpt lat="44.11007" lon="5.98085">
        <ele>630.59997558594</ele>
        <time>2022-01-18T18:42:48.721Z</time>
      </trkpt>
      <trkpt lat="44.10984" lon="5.98064">
        <ele>630.59997558594</ele>
        <time>2022-01-18T18:42:56.489Z</time>
      </trkpt>
      <trkpt lat="44.10975" lon="5.98038">
        <ele>630.59997558594</ele>
        <time>2022-01-18T18:43:04.264Z</time>
      </trkpt>
      <trkpt lat="44.10964" lon="5.98025">
        <ele>630.59997558594</ele>
        <time>2022-01-18T18:43:12.044Z</time>
      </trkpt>
      <trkpt lat="44.10942" lon="5.98006">
        <ele>623.79998779297</ele>
        <time>2022-01-18T18:43:19.833Z</time>
      </trkpt>
      <trkpt lat="44.10936" lon="5.97992">
        <ele>623.79998779297</ele>
        <time>2022-01-18T18:43:27.626Z</time>
      </trkpt>
      <trkpt lat="44.10928" lon="5.97978">
        <ele>623.79998779297</ele>
        <time>2022-01-18T18:43:35.424Z</time>
      </trkpt>
      <trkpt lat="44.10923" lon="5.97972">
        <ele>628.20001220703</ele>
        <time>2022-01-18T18:43:43.224Z</time>
      </trkpt>
      <trkpt lat="44.109" lon="5.97969">
        <ele>628.20001220703</ele>
        <time>2022-01-18T18:43:51.032Z</time>
      </trkpt>
      <trkpt lat="44.1088" lon="5.97961">
        <ele>630.59997558594</ele>
        <time>2022-01-18T18:43:58.848Z</time>
      </trkpt>
      <trkpt lat="44.10872" lon="5.97963">
        <ele>630.79998779297</ele>
        <time>2022-01-18T18:44:06.667Z</time>
      </trkpt>
      <trkpt lat="44.10861" lon="5.97975">
        <ele>630.79998779297</ele>
        <time>2022-01-18T18:44:14.490Z</time>
      </trkpt>
      <trkpt lat="44.10844" lon="5.9798">
        <ele>630.79998779297</ele>
        <time>2022-01-18T18:44:22.319Z</time>
      </trkpt>
      <trkpt lat="44.10832" lon="5.9798">
        <ele>630.79998779297</ele>
        <time>2022-01-18T18:44:30.153Z</time>
      </trkpt>
      <trkpt lat="44.10823" lon="5.97984">
        <ele>630.79998779297</ele>
        <time>2022-01-18T18:44:37.990Z</time>
      </trkpt>
      <trkpt lat="44.1081" lon="5.97981">
        <ele>630.79998779297</ele>
        <time>2022-01-18T18:44:45.831Z</time>
      </trkpt>
      <trkpt lat="44.10804" lon="5.97983">
        <ele>630.79998779297</ele>
        <time>2022-01-18T18:44:53.675Z</time>
      </trkpt>
      <trkpt lat="44.10805" lon="5.97999">
        <ele>630.79998779297</ele>
        <time>2022-01-18T18:45:01.523Z</time>
      </trkpt>
      <trkpt lat="44.10784" lon="5.98031">
        <ele>627.20001220703</ele>
        <time>2022-01-18T18:45:09.382Z</time>
      </trkpt>
      <trkpt lat="44.10766" lon="5.98051">
        <ele>627.59997558594</ele>
        <time>2022-01-18T18:45:17.249Z</time>
      </trkpt>
      <trkpt lat="44.10758" lon="5.98053">
        <ele>627.59997558594</ele>
        <time>2022-01-18T18:45:25.119Z</time>
      </trkpt>
      <trkpt lat="44.10756" lon="5.98066">
        <ele>627.59997558594</ele>
        <time>2022-01-18T18:45:32.992Z</time>
      </trkpt>
      <trkpt lat="44.10751" lon="5.98086">
        <ele>627.40002441406</ele>
        <time>2022-01-18T18:45:40.870Z</time>
      </trkpt>
      <trkpt lat="44.10733" lon="5.98126">
        <ele>629.20001220703</ele>
        <time>2022-01-18T18:45:48.760Z</time>
      </trkpt>
      <trkpt lat="44.10724" lon="5.98124">
        <ele>629.20001220703</ele>
        <time>2022-01-18T18:45:56.653Z</time>
      </trkpt>
      <trkpt lat="44.10711" lon="5.98118">
        <ele>632.40002441406</ele>
        <time>2022-01-18T18:46:04.551Z</time>
      </trkpt>
      <trkpt lat="44.10684" lon="5.98129">
        <ele>630.59997558594</ele>
        <time>2022-01-18T18:46:12.459Z</time>
      </trkpt>
      <trkpt lat="44.10663" lon="5.98125">
        <ele>630.59997558594</ele>
        <time>2022-01-18T18:46:20.374Z</time>
      </trkpt>
      <trkpt lat="44.10661" lon="5.98126">
        <ele>628</ele>
        <time>2022-01-18T18:46:28.290Z</time>
      </trkpt>
      <trkpt lat="44.10652" lon="5.98145">
        <ele>628</ele>
        <time>2022-01-18T18:46:36.212Z</time>
      </trkpt>
      <trkpt lat="44.10642" lon="5.98161">
        <ele>620.20001220703</ele>
        <time>2022-01-18T18:46:44.139Z</time>
      </trkpt>
      <trkpt lat="44.10634" lon="5.98169">
        <ele>620.20001220703</ele>
        <time>2022-01-18T18:46:52.070Z</time>
      </trkpt>
      <trkpt lat="44.10627" lon="5.98158">
        <ele>620.20001220703</ele>
        <time>2022-01-18T18:47:00.004Z</time>
      </trkpt>
      <trkpt lat="44.1062" lon="5.98158">
        <ele>620.20001220703</ele>
        <time>2022-01-18T18:47:07.941Z</time>
      </trkpt>
      <trkpt lat="44.10601" lon="5.98163">
        <ele>614.59997558594</ele>
        <time>2022-01-18T18:47:15.884Z</time>
      </trkpt>
      <trkpt lat="44.1059" lon="5.98163">
        <ele>614.59997558594</ele>
        <time>2022-01-18T18:47:23.831Z</time>
      </trkpt>
      <trkpt lat="44.10585" lon="5.9816">
        <ele>614.59997558594</ele>
        <time>2022-01-18T18:47:31.780Z</time>
      </trkpt>
      <trkpt lat="44.10575" lon="5.98161">
        <ele>616.40002441406</ele>
        <time>2022-01-18T18:47:39.733Z</time>
      </trkpt>
      <trkpt lat="44.10555" lon="5.98147">
        <ele>617.40002441406</ele>
        <time>2022-01-18T18:47:47.693Z</time>
      </trkpt>
      <trkpt lat="44.10549" lon="5.98177">
        <ele>617.20001220703</ele>
        <time>2022-01-18T18:47:55.661Z</time>
      </trkpt>
      <trkpt lat="44.10539" lon="5.98196">
        <ele>617.79998779297</ele>
        <time>2022-01-18T18:48:03.635Z</time>
      </trkpt>
      <trkpt lat="44.10526" lon="5.98195">
        <ele>617.79998779297</ele>
        <time>2022-01-18T18:48:11.614Z</time>
      </trkpt>
      <trkpt lat="44.10513" lon="5.98197">
        <ele>618.59997558594</ele>
        <time>2022-01-18T18:48:19.598Z</time>
      </trkpt>
      <trkpt lat="44.10499" lon="5.9821">
        <ele>618</ele>
        <time>2022-01-18T18:48:27.587Z</time>
      </trkpt>
      <trkpt lat="44.10484" lon="5.98208">
        <ele>617.20001220703</ele>
        <time>2022-01-18T18:48:35.582Z</time>
      </trkpt>
      <trkpt lat="44.10473" lon="5.98215">
        <ele>616.40002441406</ele>
        <time>2022-01-18T18:48:43.581Z</time>
      </trkpt>
      <trkpt lat="44.10472" lon="5.9822">
        <ele>616.40002441406</ele>
        <time>2022-01-18T18:48:51.581Z</time>
      </trkpt>
      <trkpt lat="44.10477" lon="5.98237">
        <ele>614</ele>
        <time>2022-01-18T18:48:59.586Z</time>
      </trkpt>
      <trkpt lat="44.10478" lon="5.98247">
        <ele>612.40002441406</ele>
        <time>2022-01-18T18:49:07.593Z</time>
      </trkpt>
      <trkpt lat="44.10477" lon="5.98254">
        <ele>610.20001220703</ele>
        <time>2022-01-18T18:49:15.602Z</time>
      </trkpt>
      <trkpt lat="44.10471" lon="5.98252">
        <ele>610.20001220703</ele>
        <time>2022-01-18T18:49:23.613Z</time>
      </trkpt>
      <trkpt lat="44.10452" lon="5.98252">
        <ele>608.40002441406</ele>
        <time>2022-01-18T18:49:31.631Z</time>
      </trkpt>
      <trkpt lat="44.10448" lon="5.98256">
        <ele>608.40002441406</ele>
        <time>2022-01-18T18:49:39.651Z</time>
      </trkpt>
      <trkpt lat="44.10447" lon="5.98258">
        <ele>608.20001220703</ele>
        <time>2022-01-18T18:49:47.671Z</time>
      </trkpt>
      <trkpt lat="44.10451" lon="5.98265">
        <ele>608.20001220703</ele>
        <time>2022-01-18T18:49:55.694Z</time>
      </trkpt>
      <trkpt lat="44.10449" lon="5.98275">
        <ele>608.20001220703</ele>
        <time>2022-01-18T18:50:03.719Z</time>
      </trkpt>
      <trkpt lat="44.10455" lon="5.98348">
        <ele>608.20001220703</ele>
        <time>2022-01-18T18:50:11.763Z</time>
      </trkpt>
      <trkpt lat="44.10464" lon="5.98359">
        <ele>608.20001220703</ele>
        <time>2022-01-18T18:50:19.811Z</time>
      </trkpt>
      <trkpt lat="44.1047" lon="5.98368">
        <ele>608.20001220703</ele>
        <time>2022-01-18T18:50:27.862Z</time>
      </trkpt>
      <trkpt lat="44.10481" lon="5.98376">
        <ele>608.20001220703</ele>
        <time>2022-01-18T18:50:35.917Z</time>
      </trkpt>
      <trkpt lat="44.10483" lon="5.9838">
        <ele>607.40002441406</ele>
        <time>2022-01-18T18:50:43.974Z</time>
      </trkpt>
      <trkpt lat="44.10487" lon="5.9839">
        <ele>607.40002441406</ele>
        <time>2022-01-18T18:50:52.033Z</time>
      </trkpt>
      <trkpt lat="44.10487" lon="5.98409">
        <ele>607.40002441406</ele>
        <time>2022-01-18T18:51:00.097Z</time>
      </trkpt>
      <trkpt lat="44.10496" lon="5.98413">
        <ele>606</ele>
        <time>2022-01-18T18:51:08.164Z</time>
      </trkpt>
      <trkpt lat="44.10515" lon="5.9843">
        <ele>606</ele>
        <time>2022-01-18T18:51:16.239Z</time>
      </trkpt>
      <trkpt lat="44.10516" lon="5.98446">
        <ele>599.59997558594</ele>
        <time>2022-01-18T18:51:24.318Z</time>
      </trkpt>
      <trkpt lat="44.10521" lon="5.98455">
        <ele>599.59997558594</ele>
        <time>2022-01-18T18:51:32.400Z</time>
      </trkpt>
      <trkpt lat="44.10524" lon="5.9847">
        <ele>599.59997558594</ele>
        <time>2022-01-18T18:51:40.486Z</time>
      </trkpt>
      <trkpt lat="44.10527" lon="5.98475">
        <ele>597.40002441406</ele>
        <time>2022-01-18T18:51:48.574Z</time>
      </trkpt>
      <trkpt lat="44.10539" lon="5.98485">
        <ele>597.40002441406</ele>
        <time>2022-01-18T18:51:56.666Z</time>
      </trkpt>
      <trkpt lat="44.10541" lon="5.98497">
        <ele>594</ele>
        <time>2022-01-18T18:52:04.761Z</time>
      </trkpt>
      <trkpt lat="44.10537" lon="5.98512">
        <ele>594</ele>
        <time>2022-01-18T18:52:12.861Z</time>
      </trkpt>
      <trkpt lat="44.10538" lon="5.98538">
        <ele>592.59997558594</ele>
        <time>2022-01-18T18:52:20.967Z</time>
      </trkpt>
      <trkpt lat="44.10533" lon="5.98542">
        <ele>592.59997558594</ele>
        <time>2022-01-18T18:52:29.075Z</time>
      </trkpt>
      <trkpt lat="44.10535" lon="5.98558">
        <ele>590.40002441406</ele>
        <time>2022-01-18T18:52:37.187Z</time>
      </trkpt>
      <trkpt lat="44.10534" lon="5.98571">
        <ele>588.40002441406</ele>
        <time>2022-01-18T18:52:45.302Z</time>
      </trkpt>
      <trkpt lat="44.10528" lon="5.9859">
        <ele>588.40002441406</ele>
        <time>2022-01-18T18:52:53.422Z</time>
      </trkpt>
      <trkpt lat="44.10529" lon="5.98595">
        <ele>587.40002441406</ele>
        <time>2022-01-18T18:53:01.544Z</time>
      </trkpt>
      <trkpt lat="44.10529" lon="5.98599">
        <ele>587.40002441406</ele>
        <time>2022-01-18T18:53:09.667Z</time>
      </trkpt>
      <trkpt lat="44.10518" lon="5.98607">
        <ele>587.59997558594</ele>
        <time>2022-01-18T18:53:17.794Z</time>
      </trkpt>
      <trkpt lat="44.10509" lon="5.98618">
        <ele>587.59997558594</ele>
        <time>2022-01-18T18:53:25.925Z</time>
      </trkpt>
      <trkpt lat="44.10502" lon="5.98631">
        <ele>587.40002441406</ele>
        <time>2022-01-18T18:53:34.060Z</time>
      </trkpt>
      <trkpt lat="44.1049" lon="5.98648">
        <ele>587.40002441406</ele>
        <time>2022-01-18T18:53:42.201Z</time>
      </trkpt>
      <trkpt lat="44.10473" lon="5.98654">
        <ele>585.59997558594</ele>
        <time>2022-01-18T18:53:50.348Z</time>
      </trkpt>
      <trkpt lat="44.10459" lon="5.98664">
        <ele>585.59997558594</ele>
        <time>2022-01-18T18:53:58.501Z</time>
      </trkpt>
      <trkpt lat="44.1045" lon="5.98701">
        <ele>585.59997558594</ele>
        <time>2022-01-18T18:54:06.664Z</time>
      </trkpt>
      <trkpt lat="44.10412" lon="5.98722">
        <ele>585.40002441406</ele>
        <time>2022-01-18T18:54:14.841Z</time>
      </trkpt>
      <trkpt lat="44.10408" lon="5.98723">
        <ele>585.40002441406</ele>
        <time>2022-01-18T18:54:23.019Z</time>
      </trkpt>
      <trkpt lat="44.10405" lon="5.98718">
        <ele>587.20001220703</ele>
        <time>2022-01-18T18:54:31.199Z</time>
      </trkpt>
      <trkpt lat="44.10393" lon="5.98718">
        <ele>587.20001220703</ele>
        <time>2022-01-18T18:54:39.383Z</time>
      </trkpt>
      <trkpt lat="44.10388" lon="5.98721">
        <ele>589</ele>
        <time>2022-01-18T18:54:47.569Z</time>
      </trkpt>
      <trkpt lat="44.10382" lon="5.98727">
        <ele>589</ele>
        <time>2022-01-18T18:54:55.758Z</time>
      </trkpt>
      <trkpt lat="44.10366" lon="5.98751">
        <ele>589</ele>
        <time>2022-01-18T18:55:03.955Z</time>
      </trkpt>
      <trkpt lat="44.10362" lon="5.98763">
        <ele>589.40002441406</ele>
        <time>2022-01-18T18:55:12.155Z</time>
      </trkpt>
      <trkpt lat="44.10364" lon="5.98764">
        <ele>589.40002441406</ele>
        <time>2022-01-18T18:55:20.356Z</time>
      </trkpt>
      <trkpt lat="44.10362" lon="5.98763">
        <ele>591.59997558594</ele>
        <time>2022-01-18T18:55:28.558Z</time>
      </trkpt>
      <trkpt lat="44.10356" lon="5.98752">
        <ele>593.20001220703</ele>
        <time>2022-01-18T18:55:36.763Z</time>
      </trkpt>
      <trkpt lat="44.10349" lon="5.9875">
        <ele>593.20001220703</ele>
        <time>2022-01-18T18:55:44.971Z</time>
      </trkpt>
      <trkpt lat="44.10341" lon="5.98757">
        <ele>593.20001220703</ele>
        <time>2022-01-18T18:55:53.182Z</time>
      </trkpt>
      <trkpt lat="44.10336" lon="5.98768">
        <ele>593.20001220703</ele>
        <time>2022-01-18T18:56:01.396Z</time>
      </trkpt>
      <trkpt lat="44.10326" lon="5.98779">
        <ele>593.20001220703</ele>
        <time>2022-01-18T18:56:09.615Z</time>
      </trkpt>
      <trkpt lat="44.10329" lon="5.98775">
        <ele>601.59997558594</ele>
        <time>2022-01-18T18:56:17.835Z</time>
      </trkpt>
      <trkpt lat="44.10322" lon="5.98753">
        <ele>601.59997558594</ele>
        <time>2022-01-18T18:56:26.061Z</time>
      </trkpt>
      <trkpt lat="44.10337" lon="5.98709">
        <ele>602</ele>
        <time>2022-01-18T18:56:34.300Z</time>
      </trkpt>
      <trkpt lat="44.10347" lon="5.98698">
        <ele>602</ele>
        <time>2022-01-18T18:56:42.543Z</time>
      </trkpt>
      <trkpt lat="44.10368" lon="5.98687">
        <ele>602</ele>
        <time>2022-01-18T18:56:50.794Z</time>
      </trkpt>
      <trkpt lat="44.10385" lon="5.98671">
        <ele>602</ele>
        <time>2022-01-18T18:56:59.052Z</time>
      </trkpt>
      <trkpt lat="44.10394" lon="5.98656">
        <ele>601.79998779297</ele>
        <time>2022-01-18T18:57:07.315Z</time>
      </trkpt>
      <trkpt lat="44.1041" lon="5.98644">
        <ele>601.79998779297</ele>
        <time>2022-01-18T18:57:15.584Z</time>
      </trkpt>
      <trkpt lat="44.10418" lon="5.98633">
        <ele>601.20001220703</ele>
        <time>2022-01-18T18:57:23.857Z</time>
      </trkpt>
      <trkpt lat="44.10426" lon="5.98628">
        <ele>600.79998779297</ele>
        <time>2022-01-18T18:57:32.133Z</time>
      </trkpt>
      <trkpt lat="44.10434" lon="5.9862">
        <ele>600.79998779297</ele>
        <time>2022-01-18T18:57:40.413Z</time>
      </trkpt>
      <trkpt lat="44.10441" lon="5.98606">
        <ele>601.20001220703</ele>
        <time>2022-01-18T18:57:48.697Z</time>
      </trkpt>
      <trkpt lat="44.10447" lon="5.98598">
        <ele>601.20001220703</ele>
        <time>2022-01-18T18:57:56.984Z</time>
      </trkpt>
      <trkpt lat="44.10453" lon="5.98576">
        <ele>602.40002441406</ele>
        <time>2022-01-18T18:58:05.277Z</time>
      </trkpt>
      <trkpt lat="44.10455" lon="5.98573">
        <ele>602.40002441406</ele>
        <time>2022-01-18T18:58:13.571Z</time>
      </trkpt>
      <trkpt lat="44.10457" lon="5.98574">
        <ele>601</ele>
        <time>2022-01-18T18:58:21.866Z</time>
      </trkpt>
      <trkpt lat="44.1046" lon="5.98569">
        <ele>601</ele>
        <time>2022-01-18T18:58:30.162Z</time>
      </trkpt>
      <trkpt lat="44.10463" lon="5.98558">
        <ele>601</ele>
        <time>2022-01-18T18:58:38.461Z</time>
      </trkpt>
      <trkpt lat="44.10463" lon="5.98541">
        <ele>599.40002441406</ele>
        <time>2022-01-18T18:58:46.764Z</time>
      </trkpt>
      <trkpt lat="44.10455" lon="5.98517">
        <ele>599.40002441406</ele>
        <time>2022-01-18T18:58:55.074Z</time>
      </trkpt>
      <trkpt lat="44.10462" lon="5.98511">
        <ele>601.59997558594</ele>
        <time>2022-01-18T18:59:03.387Z</time>
      </trkpt>
      <trkpt lat="44.1046" lon="5.98506">
        <ele>601.59997558594</ele>
        <time>2022-01-18T18:59:11.701Z</time>
      </trkpt>
      <trkpt lat="44.1047" lon="5.98496">
        <ele>603</ele>
        <time>2022-01-18T18:59:20.019Z</time>
      </trkpt>
      <trkpt lat="44.10471" lon="5.98489">
        <ele>603</ele>
        <time>2022-01-18T18:59:28.339Z</time>
      </trkpt>
      <trkpt lat="44.10467" lon="5.98483">
        <ele>605.59997558594</ele>
        <time>2022-01-18T18:59:36.662Z</time>
      </trkpt>
      <trkpt lat="44.10473" lon="5.98472">
        <ele>607</ele>
        <time>2022-01-18T18:59:44.988Z</time>
      </trkpt>
      <trkpt lat="44.10468" lon="5.98457">
        <ele>608</ele>
        <time>2022-01-18T18:59:53.318Z</time>
      </trkpt>
      <trkpt lat="44.10465" lon="5.98454">
        <ele>608</ele>
        <time>2022-01-18T19:00:01.649Z</time>
      </trkpt>
      <trkpt lat="44.10463" lon="5.98434">
        <ele>609</ele>
        <time>2022-01-18T19:00:09.985Z</time>
      </trkpt>
      <trkpt lat="44.10458" lon="5.98414">
        <ele>612.40002441406</ele>
        <time>2022-01-18T19:00:18.327Z</time>
      </trkpt>
      <trkpt lat="44.1045" lon="5.98406">
        <ele>612.40002441406</ele>
        <time>2022-01-18T19:00:26.672Z</time>
      </trkpt>
      <trkpt lat="44.10435" lon="5.98381">
        <ele>612.40002441406</ele>
        <time>2022-01-18T19:00:35.025Z</time>
      </trkpt>
      <trkpt lat="44.10412" lon="5.9837">
        <ele>618.59997558594</ele>
        <time>2022-01-18T19:00:43.387Z</time>
      </trkpt>
      <trkpt lat="44.10402" lon="5.98369">
        <ele>620.20001220703</ele>
        <time>2022-01-18T19:00:51.752Z</time>
      </trkpt>
      <trkpt lat="44.1039" lon="5.9836">
        <ele>620.20001220703</ele>
        <time>2022-01-18T19:01:00.122Z</time>
      </trkpt>
      <trkpt lat="44.10357" lon="5.98348">
        <ele>620.20001220703</ele>
        <time>2022-01-18T19:01:08.504Z</time>
      </trkpt>
      <trkpt lat="44.10347" lon="5.98342">
        <ele>625.79998779297</ele>
        <time>2022-01-18T19:01:16.890Z</time>
      </trkpt>
      <trkpt lat="44.10342" lon="5.98343">
        <ele>625.79998779297</ele>
        <time>2022-01-18T19:01:25.277Z</time>
      </trkpt>
      <trkpt lat="44.10338" lon="5.98342">
        <ele>626.79998779297</ele>
        <time>2022-01-18T19:01:33.666Z</time>
      </trkpt>
      <trkpt lat="44.10325" lon="5.98328">
        <ele>626.79998779297</ele>
        <time>2022-01-18T19:01:42.061Z</time>
      </trkpt>
      <trkpt lat="44.10324" lon="5.98321">
        <ele>628.40002441406</ele>
        <time>2022-01-18T19:01:50.457Z</time>
      </trkpt>
      <trkpt lat="44.10319" lon="5.98309">
        <ele>628.20001220703</ele>
        <time>2022-01-18T19:01:58.857Z</time>
      </trkpt>
      <trkpt lat="44.10305" lon="5.98297">
        <ele>629.40002441406</ele>
        <time>2022-01-18T19:02:07.263Z</time>
      </trkpt>
      <trkpt lat="44.10291" lon="5.98282">
        <ele>629.40002441406</ele>
        <time>2022-01-18T19:02:15.675Z</time>
      </trkpt>
      <trkpt lat="44.10285" lon="5.9828">
        <ele>629.40002441406</ele>
        <time>2022-01-18T19:02:24.089Z</time>
      </trkpt>
      <trkpt lat="44.10272" lon="5.9829">
        <ele>629.40002441406</ele>
        <time>2022-01-18T19:02:32.508Z</time>
      </trkpt>
      <trkpt lat="44.10267" lon="5.98292">
        <ele>629.59997558594</ele>
        <time>2022-01-18T19:02:40.929Z</time>
      </trkpt>
      <trkpt lat="44.10261" lon="5.98291">
        <ele>628.79998779297</ele>
        <time>2022-01-18T19:02:49.352Z</time>
      </trkpt>
      <trkpt lat="44.10253" lon="5.98284">
        <ele>628</ele>
        <time>2022-01-18T19:02:57.778Z</time>
      </trkpt>
      <trkpt lat="44.10247" lon="5.98281">
        <ele>628</ele>
        <time>2022-01-18T19:03:06.206Z</time>
      </trkpt>
      <trkpt lat="44.1024" lon="5.98283">
        <ele>628</ele>
        <time>2022-01-18T19:03:14.637Z</time>
      </trkpt>
      <trkpt lat="44.10235" lon="5.98289">
        <ele>625.79998779297</ele>
        <time>2022-01-18T19:03:23.070Z</time>
      </trkpt>
      <trkpt lat="44.1022" lon="5.98311">
        <ele>625.79998779297</ele>
        <time>2022-01-18T19:03:31.511Z</time>
      </trkpt>
      <trkpt lat="44.10214" lon="5.9833">
        <ele>625.79998779297</ele>
        <time>2022-01-18T19:03:39.957Z</time>
      </trkpt>
      <trkpt lat="44.10213" lon="5.98351">
        <ele>621.79998779297</ele>
        <time>2022-01-18T19:03:48.408Z</time>
      </trkpt>
      <trkpt lat="44.10207" lon="5.9838">
        <ele>622.79998779297</ele>
        <time>2022-01-18T19:03:56.867Z</time>
      </trkpt>
      <trkpt lat="44.10196" lon="5.98377">
        <ele>622.79998779297</ele>
        <time>2022-01-18T19:04:05.330Z</time>
      </trkpt>
      <trkpt lat="44.10192" lon="5.98378">
        <ele>622.20001220703</ele>
        <time>2022-01-18T19:04:13.794Z</time>
      </trkpt>
      <trkpt lat="44.10174" lon="5.98372">
        <ele>620</ele>
        <time>2022-01-18T19:04:22.264Z</time>
      </trkpt>
      <trkpt lat="44.10169" lon="5.98373">
        <ele>620</ele>
        <time>2022-01-18T19:04:30.736Z</time>
      </trkpt>
      <trkpt lat="44.10158" lon="5.98389">
        <ele>620</ele>
        <time>2022-01-18T19:04:39.214Z</time>
      </trkpt>
      <trkpt lat="44.1015" lon="5.98393">
        <ele>617.40002441406</ele>
        <time>2022-01-18T19:04:47.695Z</time>
      </trkpt>
      <trkpt lat="44.1014" lon="5.98388">
        <ele>615.59997558594</ele>
        <time>2022-01-18T19:04:56.180Z</time>
      </trkpt>
      <trkpt lat="44.10136" lon="5.98389">
        <ele>615.59997558594</ele>
        <time>2022-01-18T19:05:04.666Z</time>
      </trkpt>
      <trkpt lat="44.10125" lon="5.98399">
        <ele>613.20001220703</ele>
        <time>2022-01-18T19:05:13.157Z</time>
      </trkpt>
      <trkpt lat="44.10115" lon="5.98401">
        <ele>613.20001220703</ele>
        <time>2022-01-18T19:05:21.651Z</time>
      </trkpt>
      <trkpt lat="44.101" lon="5.98393">
        <ele>613.20001220703</ele>
        <time>2022-01-18T19:05:30.151Z</time>
      </trkpt>
      <trkpt lat="44.10093" lon="5.9839">
        <ele>611</ele>
        <time>2022-01-18T19:05:38.653Z</time>
      </trkpt>
      <trkpt lat="44.10088" lon="5.98391">
        <ele>611</ele>
        <time>2022-01-18T19:05:47.157Z</time>
      </trkpt>
      <trkpt lat="44.10079" lon="5.98397">
        <ele>611</ele>
        <time>2022-01-18T19:05:55.665Z</time>
      </trkpt>
      <trkpt lat="44.10063" lon="5.984">
        <ele>611</ele>
        <time>2022-01-18T19:06:04.178Z</time>
      </trkpt>
      <trkpt lat="44.10055" lon="5.98406">
        <ele>605.59997558594</ele>
        <time>2022-01-18T19:06:12.694Z</time>
      </trkpt>
      <trkpt lat="44.10047" lon="5.98409">
        <ele>605.59997558594</ele>
        <time>2022-01-18T19:06:21.213Z</time>
      </trkpt>
      <trkpt lat="44.1004" lon="5.98415">
        <ele>602.40002441406</ele>
        <time>2022-01-18T19:06:29.735Z</time>
      </trkpt>
      <trkpt lat="44.1003" lon="5.98431">
        <ele>602.40002441406</ele>
        <time>2022-01-18T19:06:38.263Z</time>
      </trkpt>
      <trkpt lat="44.10021" lon="5.98439">
        <ele>600.79998779297</ele>
        <time>2022-01-18T19:06:46.794Z</time>
      </trkpt>
      <trkpt lat="44.09998" lon="5.98444">
        <ele>598.40002441406</ele>
        <time>2022-01-18T19:06:55.333Z</time>
      </trkpt>
      <trkpt lat="44.09992" lon="5.98446">
        <ele>598.40002441406</ele>
        <time>2022-01-18T19:07:03.874Z</time>
      </trkpt>
      <trkpt lat="44.0999" lon="5.9845">
        <ele>598</ele>
        <time>2022-01-18T19:07:12.417Z</time>
      </trkpt>
      <trkpt lat="44.09984" lon="5.98452">
        <ele>597.59997558594</ele>
        <time>2022-01-18T19:07:20.962Z</time>
      </trkpt>
      <trkpt lat="44.09978" lon="5.98462">
        <ele>597.59997558594</ele>
        <time>2022-01-18T19:07:29.510Z</time>
      </trkpt>
      <trkpt lat="44.09971" lon="5.9847">
        <ele>597</ele>
        <time>2022-01-18T19:07:38.061Z</time>
      </trkpt>
      <trkpt lat="44.09955" lon="5.98481">
        <ele>597</ele>
        <time>2022-01-18T19:07:46.618Z</time>
      </trkpt>
      <trkpt lat="44.09945" lon="5.98481">
        <ele>597</ele>
        <time>2022-01-18T19:07:55.179Z</time>
      </trkpt>
      <trkpt lat="44.09939" lon="5.98479">
        <ele>593.79998779297</ele>
        <time>2022-01-18T19:08:03.742Z</time>
      </trkpt>
      <trkpt lat="44.09921" lon="5.98479">
        <ele>593.40002441406</ele>
        <time>2022-01-18T19:08:12.311Z</time>
      </trkpt>
      <trkpt lat="44.09916" lon="5.98485">
        <ele>592.20001220703</ele>
        <time>2022-01-18T19:08:20.883Z</time>
      </trkpt>
      <trkpt lat="44.09905" lon="5.9849">
        <ele>589.20001220703</ele>
        <time>2022-01-18T19:08:29.459Z</time>
      </trkpt>
      <trkpt lat="44.09892" lon="5.98491">
        <ele>589.20001220703</ele>
        <time>2022-01-18T19:08:38.039Z</time>
      </trkpt>
      <trkpt lat="44.09886" lon="5.98492">
        <ele>585.40002441406</ele>
        <time>2022-01-18T19:08:46.621Z</time>
      </trkpt>
      <trkpt lat="44.09866" lon="5.98488">
        <ele>584.79998779297</ele>
        <time>2022-01-18T19:08:55.211Z</time>
      </trkpt>
      <trkpt lat="44.09859" lon="5.98484">
        <ele>584.79998779297</ele>
        <time>2022-01-18T19:09:03.803Z</time>
      </trkpt>
      <trkpt lat="44.09846" lon="5.98492">
        <ele>584.79998779297</ele>
        <time>2022-01-18T19:09:12.400Z</time>
      </trkpt>
      <trkpt lat="44.09836" lon="5.98504">
        <ele>584.40002441406</ele>
        <time>2022-01-18T19:09:21.002Z</time>
      </trkpt>
      <trkpt lat="44.09828" lon="5.98507">
        <ele>584.40002441406</ele>
        <time>2022-01-18T19:09:29.607Z</time>
      </trkpt>
      <trkpt lat="44.09796" lon="5.98482">
        <ele>584.40002441406</ele>
        <time>2022-01-18T19:09:38.224Z</time>
      </trkpt>
      <trkpt lat="44.09784" lon="5.98476">
        <ele>582.79998779297</ele>
        <time>2022-01-18T19:09:46.846Z</time>
      </trkpt>
      <trkpt lat="44.09775" lon="5.98475">
        <ele>582.79998779297</ele>
        <time>2022-01-18T19:09:55.471Z</time>
      </trkpt>
      <trkpt lat="44.09761" lon="5.98477">
        <ele>580.40002441406</ele>
        <time>2022-01-18T19:10:04.101Z</time>
      </trkpt>
      <trkpt lat="44.09733" lon="5.98491">
        <ele>580.40002441406</ele>
        <time>2022-01-18T19:10:12.741Z</time>
      </trkpt>
      <trkpt lat="44.09703" lon="5.98502">
        <ele>578</ele>
        <time>2022-01-18T19:10:21.392Z</time>
      </trkpt>
      <trkpt lat="44.09696" lon="5.9851">
        <ele>578</ele>
        <time>2022-01-18T19:10:30.046Z</time>
      </trkpt>
      <trkpt lat="44.0968" lon="5.9852">
        <ele>574.59997558594</ele>
        <time>2022-01-18T19:10:38.706Z</time>
      </trkpt>
      <trkpt lat="44.09647" lon="5.98524">
        <ele>573.59997558594</ele>
        <time>2022-01-18T19:10:47.378Z</time>
      </trkpt>
      <trkpt lat="44.09636" lon="5.98542">
        <ele>573.59997558594</ele>
        <time>2022-01-18T19:10:56.056Z</time>
      </trkpt>
      <trkpt lat="44.09633" lon="5.98549">
        <ele>572.59997558594</ele>
        <time>2022-01-18T19:11:04.736Z</time>
      </trkpt>
      <trkpt lat="44.09632" lon="5.98576">
        <ele>572.59997558594</ele>
        <time>2022-01-18T19:11:13.423Z</time>
      </trkpt>
      <trkpt lat="44.09627" lon="5.9859">
        <ele>572.59997558594</ele>
        <time>2022-01-18T19:11:22.114Z</time>
      </trkpt>
      <trkpt lat="44.09609" lon="5.9862">
        <ele>572.59997558594</ele>
        <time>2022-01-18T19:11:30.814Z</time>
      </trkpt>
      <trkpt lat="44.09547" lon="5.9868">
        <ele>571.20001220703</ele>
        <time>2022-01-18T19:11:39.541Z</time>
      </trkpt>
      <trkpt lat="44.0953" lon="5.98706">
        <ele>571.20001220703</ele>
        <time>2022-01-18T19:11:48.277Z</time>
      </trkpt>
      <trkpt lat="44.09496" lon="5.9879">
        <ele>571.20001220703</ele>
        <time>2022-01-18T19:11:57.037Z</time>
      </trkpt>
      <trkpt lat="44.09486" lon="5.98807">
        <ele>566.40002441406</ele>
        <time>2022-01-18T19:12:05.802Z</time>
      </trkpt>
      <trkpt lat="44.09458" lon="5.98833">
        <ele>566.40002441406</ele>
        <time>2022-01-18T19:12:14.579Z</time>
      </trkpt>
      <trkpt lat="44.09407" lon="5.98874">
        <ele>562</ele>
        <time>2022-01-18T19:12:23.377Z</time>
      </trkpt>
      <trkpt lat="44.09387" lon="5.98896">
        <ele>559.59997558594</ele>
        <time>2022-01-18T19:12:32.184Z</time>
      </trkpt>
      <trkpt lat="44.09369" lon="5.98918">
        <ele>558.79998779297</ele>
        <time>2022-01-18T19:12:40.999Z</time>
      </trkpt>
      <trkpt lat="44.09364" lon="5.98922">
        <ele>558.79998779297</ele>
        <time>2022-01-18T19:12:49.816Z</time>
      </trkpt>
      <trkpt lat="44.09325" lon="5.98934">
        <ele>558.79998779297</ele>
        <time>2022-01-18T19:12:58.647Z</time>
      </trkpt>
      <trkpt lat="44.09308" lon="5.98945">
        <ele>554.40002441406</ele>
        <time>2022-01-18T19:13:07.484Z</time>
      </trkpt>
      <trkpt lat="44.09274" lon="5.98949">
        <ele>548.79998779297</ele>
        <time>2022-01-18T19:13:16.333Z</time>
      </trkpt>
      <trkpt lat="44.09271" lon="5.98953">
        <ele>548.20001220703</ele>
        <time>2022-01-18T19:13:25.184Z</time>
      </trkpt>
      <trkpt lat="44.09268" lon="5.98973">
        <ele>547.79998779297</ele>
        <time>2022-01-18T19:13:34.040Z</time>
      </trkpt>
      <trkpt lat="44.09262" lon="5.99023">
        <ele>548.79998779297</ele>
        <time>2022-01-18T19:13:42.909Z</time>
      </trkpt>
      <trkpt lat="44.09261" lon="5.9921">
        <ele>546.59997558594</ele>
        <time>2022-01-18T19:13:51.825Z</time>
      </trkpt>
      <trkpt lat="44.09262" lon="5.99241">
        <ele>546.59997558594</ele>
        <time>2022-01-18T19:14:00.748Z</time>
      </trkpt>
      <trkpt lat="44.09266" lon="5.99277">
        <ele>545.40002441406</ele>
        <time>2022-01-18T19:14:09.681Z</time>
      </trkpt>
      <trkpt lat="44.09279" lon="5.99314">
        <ele>545.40002441406</ele>
        <time>2022-01-18T19:14:18.624Z</time>
      </trkpt>
      <trkpt lat="44.09301" lon="5.9935">
        <ele>544.79998779297</ele>
        <time>2022-01-18T19:14:27.579Z</time>
      </trkpt>
      <trkpt lat="44.0934" lon="5.99424">
        <ele>544.40002441406</ele>
        <time>2022-01-18T19:14:36.557Z</time>
      </trkpt>
      <trkpt lat="44.09373" lon="5.99464">
        <ele>544.40002441406</ele>
        <time>2022-01-18T19:14:45.550Z</time>
      </trkpt>
      <trkpt lat="44.09397" lon="5.99503">
        <ele>543</ele>
        <time>2022-01-18T19:14:54.556Z</time>
      </trkpt>
      <trkpt lat="44.09422" lon="5.99573">
        <ele>543</ele>
        <time>2022-01-18T19:15:03.582Z</time>
      </trkpt>
      <trkpt lat="44.09449" lon="5.99618">
        <ele>543</ele>
        <time>2022-01-18T19:15:12.622Z</time>
      </trkpt>
      <trkpt lat="44.09456" lon="5.99635">
        <ele>540</ele>
        <time>2022-01-18T19:15:21.667Z</time>
      </trkpt>
      <trkpt lat="44.09467" lon="5.99679">
        <ele>540</ele>
        <time>2022-01-18T19:15:30.724Z</time>
      </trkpt>
      <trkpt lat="44.09475" lon="5.99729">
        <ele>540</ele>
        <time>2022-01-18T19:15:39.794Z</time>
      </trkpt>
      <trkpt lat="44.09483" lon="5.99808">
        <ele>540</ele>
        <time>2022-01-18T19:15:48.884Z</time>
      </trkpt>
      <trkpt lat="44.09486" lon="5.9986">
        <ele>540</ele>
        <time>2022-01-18T19:15:57.987Z</time>
      </trkpt>
      <trkpt lat="44.0949" lon="5.99877">
        <ele>524.20001220703</ele>
        <time>2022-01-18T19:16:07.095Z</time>
      </trkpt>
      <trkpt lat="44.09516" lon="5.99939">
        <ele>518</ele>
        <time>2022-01-18T19:16:16.221Z</time>
      </trkpt>
      <trkpt lat="44.09519" lon="5.99954">
        <ele>516.40002441406</ele>
        <time>2022-01-18T19:16:25.351Z</time>
      </trkpt>
      <trkpt lat="44.09518" lon="5.99958">
        <ele>516.40002441406</ele>
        <time>2022-01-18T19:16:34.482Z</time>
      </trkpt>
      <trkpt lat="44.09516" lon="5.99961">
        <ele>515.59997558594</ele>
        <time>2022-01-18T19:16:43.614Z</time>
      </trkpt>
      <trkpt lat="44.09505" lon="5.99958">
        <ele>515.59997558594</ele>
        <time>2022-01-18T19:16:52.749Z</time>
      </trkpt>
      <trkpt lat="44.09483" lon="5.99936">
        <ele>515.59997558594</ele>
        <time>2022-01-18T19:17:01.894Z</time>
      </trkpt>
      <trkpt lat="44.09459" lon="5.99924">
        <ele>523.40002441406</ele>
        <time>2022-01-18T19:17:11.048Z</time>
      </trkpt>
      <trkpt lat="44.09449" lon="5.99913">
        <ele>526.40002441406</ele>
        <time>2022-01-18T19:17:20.206Z</time>
      </trkpt>
      <trkpt lat="44.09442" lon="5.99898">
        <ele>526.40002441406</ele>
        <time>2022-01-18T19:17:29.369Z</time>
      </trkpt>
      <trkpt lat="44.0944" lon="5.9988">
        <ele>530.79998779297</ele>
        <time>2022-01-18T19:17:38.536Z</time>
      </trkpt>
      <trkpt lat="44.09434" lon="5.99866">
        <ele>532.20001220703</ele>
        <time>2022-01-18T19:17:47.708Z</time>
      </trkpt>
      <trkpt lat="44.09419" lon="5.99822">
        <ele>532.20001220703</ele>
        <time>2022-01-18T19:17:56.891Z</time>
      </trkpt>
      <trkpt lat="44.09409" lon="5.99804">
        <ele>538.20001220703</ele>
        <time>2022-01-18T19:18:06.080Z</time>
      </trkpt>
      <trkpt lat="44.09399" lon="5.99782">
        <ele>538.20001220703</ele>
        <time>2022-01-18T19:18:15.276Z</time>
      </trkpt>
      <trkpt lat="44.09388" lon="5.99768">
        <ele>541</ele>
        <time>2022-01-18T19:18:24.477Z</time>
      </trkpt>
      <trkpt lat="44.09365" lon="5.99728">
        <ele>546.79998779297</ele>
        <time>2022-01-18T19:18:33.691Z</time>
      </trkpt>
      <trkpt lat="44.09356" lon="5.99706">
        <ele>551</ele>
        <time>2022-01-18T19:18:42.911Z</time>
      </trkpt>
      <trkpt lat="44.09345" lon="5.99686">
        <ele>551</ele>
        <time>2022-01-18T19:18:52.138Z</time>
      </trkpt>
      <trkpt lat="44.09329" lon="5.99668">
        <ele>551</ele>
        <time>2022-01-18T19:19:01.372Z</time>
      </trkpt>
      <trkpt lat="44.09303" lon="5.9965">
        <ele>561.20001220703</ele>
        <time>2022-01-18T19:19:10.616Z</time>
      </trkpt>
      <trkpt lat="44.09284" lon="5.99629">
        <ele>561.20001220703</ele>
        <time>2022-01-18T19:19:19.869Z</time>
      </trkpt>
      <trkpt lat="44.09256" lon="5.99591">
        <ele>561.20001220703</ele>
        <time>2022-01-18T19:19:29.135Z</time>
      </trkpt>
      <trkpt lat="44.09247" lon="5.99584">
        <ele>571.40002441406</ele>
        <time>2022-01-18T19:19:38.405Z</time>
      </trkpt>
      <trkpt lat="44.09203" lon="5.9957">
        <ele>571.40002441406</ele>
        <time>2022-01-18T19:19:47.690Z</time>
      </trkpt>
      <trkpt lat="44.09184" lon="5.99578">
        <ele>578.59997558594</ele>
        <time>2022-01-18T19:19:56.982Z</time>
      </trkpt>
      <trkpt lat="44.09149" lon="5.99563">
        <ele>578.59997558594</ele>
        <time>2022-01-18T19:20:06.287Z</time>
      </trkpt>
      <trkpt lat="44.0914" lon="5.99563">
        <ele>578.59997558594</ele>
        <time>2022-01-18T19:20:15.595Z</time>
      </trkpt>
      <trkpt lat="44.09129" lon="5.99569">
        <ele>578.59997558594</ele>
        <time>2022-01-18T19:20:24.907Z</time>
      </trkpt>
      <trkpt lat="44.09125" lon="5.99575">
        <ele>584</ele>
        <time>2022-01-18T19:20:34.221Z</time>
      </trkpt>
      <trkpt lat="44.09117" lon="5.99598">
        <ele>584</ele>
        <time>2022-01-18T19:20:43.542Z</time>
      </trkpt>
      <trkpt lat="44.09117" lon="5.99626">
        <ele>584</ele>
        <time>2022-01-18T19:20:52.870Z</time>
      </trkpt>
      <trkpt lat="44.09126" lon="5.99662">
        <ele>584</ele>
        <time>2022-01-18T19:21:02.207Z</time>
      </trkpt>
      <trkpt lat="44.09133" lon="5.9968">
        <ele>584</ele>
        <time>2022-01-18T19:21:11.550Z</time>
      </trkpt>
      <trkpt lat="44.09163" lon="5.9974">
        <ele>584</ele>
        <time>2022-01-18T19:21:20.911Z</time>
      </trkpt>
      <trkpt lat="44.09192" lon="5.99813">
        <ele>596.59997558594</ele>
        <time>2022-01-18T19:21:30.293Z</time>
      </trkpt>
      <trkpt lat="44.09204" lon="5.99838">
        <ele>596.59997558594</ele>
        <time>2022-01-18T19:21:39.682Z</time>
      </trkpt>
      <trkpt lat="44.09224" lon="5.99867">
        <ele>599.20001220703</ele>
        <time>2022-01-18T19:21:49.082Z</time>
      </trkpt>
      <trkpt lat="44.09226" lon="5.9988">
        <ele>599.20001220703</ele>
        <time>2022-01-18T19:21:58.485Z</time>
      </trkpt>
      <trkpt lat="44.0922" lon="5.9989">
        <ele>599.40002441406</ele>
        <time>2022-01-18T19:22:07.891Z</time>
      </trkpt>
      <trkpt lat="44.09199" lon="5.99894">
        <ele>598.20001220703</ele>
        <time>2022-01-18T19:22:17.304Z</time>
      </trkpt>
      <trkpt lat="44.09184" lon="5.99894">
        <ele>598.20001220703</ele>
        <time>2022-01-18T19:22:26.723Z</time>
      </trkpt>
      <trkpt lat="44.09159" lon="5.99884">
        <ele>601.20001220703</ele>
        <time>2022-01-18T19:22:36.151Z</time>
      </trkpt>
      <trkpt lat="44.09123" lon="5.9986">
        <ele>606.20001220703</ele>
        <time>2022-01-18T19:22:45.593Z</time>
      </trkpt>
      <trkpt lat="44.09104" lon="5.99853">
        <ele>606.20001220703</ele>
        <time>2022-01-18T19:22:55.042Z</time>
      </trkpt>
      <trkpt lat="44.09078" lon="5.99847">
        <ele>612.79998779297</ele>
        <time>2022-01-18T19:23:04.500Z</time>
      </trkpt>
      <trkpt lat="44.09061" lon="5.99848">
        <ele>612.79998779297</ele>
        <time>2022-01-18T19:23:13.964Z</time>
      </trkpt>
      <trkpt lat="44.09053" lon="5.99852">
        <ele>612.79998779297</ele>
        <time>2022-01-18T19:23:23.431Z</time>
      </trkpt>
      <trkpt lat="44.09034" lon="5.99866">
        <ele>621</ele>
        <time>2022-01-18T19:23:32.905Z</time>
      </trkpt>
      <trkpt lat="44.0901" lon="5.99876">
        <ele>621</ele>
        <time>2022-01-18T19:23:42.388Z</time>
      </trkpt>
      <trkpt lat="44.08994" lon="5.99875">
        <ele>621</ele>
        <time>2022-01-18T19:23:51.877Z</time>
      </trkpt>
      <trkpt lat="44.08968" lon="5.99875">
        <ele>621</ele>
        <time>2022-01-18T19:24:01.374Z</time>
      </trkpt>
      <trkpt lat="44.08956" lon="5.99871">
        <ele>621</ele>
        <time>2022-01-18T19:24:10.876Z</time>
      </trkpt>
      <trkpt lat="44.08953" lon="5.99862">
        <ele>640.40002441406</ele>
        <time>2022-01-18T19:24:20.381Z</time>
      </trkpt>
      <trkpt lat="44.0896" lon="5.99853">
        <ele>640.20001220703</ele>
        <time>2022-01-18T19:24:29.889Z</time>
      </trkpt>
      <trkpt lat="44.08979" lon="5.99854">
        <ele>639.20001220703</ele>
        <time>2022-01-18T19:24:39.404Z</time>
      </trkpt>
      <trkpt lat="44.08995" lon="5.99845">
        <ele>639.20001220703</ele>
        <time>2022-01-18T19:24:48.925Z</time>
      </trkpt>
      <trkpt lat="44.09023" lon="5.99808">
        <ele>639.20001220703</ele>
        <time>2022-01-18T19:24:58.459Z</time>
      </trkpt>
      <trkpt lat="44.09037" lon="5.99801">
        <ele>632.79998779297</ele>
        <time>2022-01-18T19:25:07.998Z</time>
      </trkpt>
      <trkpt lat="44.09061" lon="5.99797">
        <ele>631.40002441406</ele>
        <time>2022-01-18T19:25:17.546Z</time>
      </trkpt>
      <trkpt lat="44.09077" lon="5.99797">
        <ele>629.20001220703</ele>
        <time>2022-01-18T19:25:27.099Z</time>
      </trkpt>
      <trkpt lat="44.09111" lon="5.99804">
        <ele>629.20001220703</ele>
        <time>2022-01-18T19:25:36.664Z</time>
      </trkpt>
      <trkpt lat="44.09127" lon="5.99805">
        <ele>625.40002441406</ele>
        <time>2022-01-18T19:25:46.235Z</time>
      </trkpt>
      <trkpt lat="44.0914" lon="5.9981">
        <ele>625.40002441406</ele>
        <time>2022-01-18T19:25:55.811Z</time>
      </trkpt>
      <trkpt lat="44.09142" lon="5.99805">
        <ele>621.79998779297</ele>
        <time>2022-01-18T19:26:05.388Z</time>
      </trkpt>
      <trkpt lat="44.0914" lon="5.99788">
        <ele>621.79998779297</ele>
        <time>2022-01-18T19:26:14.969Z</time>
      </trkpt>
      <trkpt lat="44.0914" lon="5.99769">
        <ele>613.79998779297</ele>
        <time>2022-01-18T19:26:24.555Z</time>
      </trkpt>
      <trkpt lat="44.09136" lon="5.99758">
        <ele>613.79998779297</ele>
        <time>2022-01-18T19:26:34.145Z</time>
      </trkpt>
      <trkpt lat="44.09133" lon="5.99727">
        <ele>613.79998779297</ele>
        <time>2022-01-18T19:26:43.742Z</time>
      </trkpt>
      <trkpt lat="44.0913" lon="5.99712">
        <ele>613.79998779297</ele>
        <time>2022-01-18T19:26:53.343Z</time>
      </trkpt>
      <trkpt lat="44.09132" lon="5.99703">
        <ele>613.79998779297</ele>
        <time>2022-01-18T19:27:02.947Z</time>
      </trkpt>
      <trkpt lat="44.0913" lon="5.99683">
        <ele>613.79998779297</ele>
        <time>2022-01-18T19:27:12.556Z</time>
      </trkpt>
      <trkpt lat="44.09139" lon="5.99649">
        <ele>613.79998779297</ele>
        <time>2022-01-18T19:27:22.174Z</time>
      </trkpt>
      <trkpt lat="44.09144" lon="5.9962">
        <ele>586.40002441406</ele>
        <time>2022-01-18T19:27:31.799Z</time>
      </trkpt>
      <trkpt lat="44.0915" lon="5.99607">
        <ele>583.79998779297</ele>
        <time>2022-01-18T19:27:41.428Z</time>
      </trkpt>
      <trkpt lat="44.09152" lon="5.99605">
        <ele>583.79998779297</ele>
        <time>2022-01-18T19:27:51.058Z</time>
      </trkpt>
      <trkpt lat="44.09175" lon="5.99608">
        <ele>583.79998779297</ele>
        <time>2022-01-18T19:28:00.696Z</time>
      </trkpt>
      <trkpt lat="44.09187" lon="5.99605">
        <ele>583.79998779297</ele>
        <time>2022-01-18T19:28:10.338Z</time>
      </trkpt>
      <trkpt lat="44.09195" lon="5.99607">
        <ele>583.79998779297</ele>
        <time>2022-01-18T19:28:19.983Z</time>
      </trkpt>
      <trkpt lat="44.09211" lon="5.99603">
        <ele>583.79998779297</ele>
        <time>2022-01-18T19:28:29.634Z</time>
      </trkpt>
      <trkpt lat="44.09217" lon="5.99612">
        <ele>573.20001220703</ele>
        <time>2022-01-18T19:28:39.288Z</time>
      </trkpt>
      <trkpt lat="44.09219" lon="5.99624">
        <ele>573.20001220703</ele>
        <time>2022-01-18T19:28:48.945Z</time>
      </trkpt>
      <trkpt lat="44.09219" lon="5.99633">
        <ele>573.20001220703</ele>
        <time>2022-01-18T19:28:58.604Z</time>
      </trkpt>
      <trkpt lat="44.09223" lon="5.99635">
        <ele>565.40002441406</ele>
        <time>2022-01-18T19:29:08.265Z</time>
      </trkpt>
      <trkpt lat="44.09227" lon="5.99639">
        <ele>565.40002441406</ele>
        <time>2022-01-18T19:29:17.927Z</time>
      </trkpt>
      <trkpt lat="44.0923" lon="5.99645">
        <ele>565.40002441406</ele>
        <time>2022-01-18T19:29:27.591Z</time>
      </trkpt>
      <trkpt lat="44.09242" lon="5.99662">
        <ele>565.40002441406</ele>
        <time>2022-01-18T19:29:37.261Z</time>
      </trkpt>
      <trkpt lat="44.09256" lon="5.99665">
        <ele>559.40002441406</ele>
        <time>2022-01-18T19:29:46.936Z</time>
      </trkpt>
      <trkpt lat="44.09262" lon="5.99665">
        <ele>559.40002441406</ele>
        <time>2022-01-18T19:29:56.613Z</time>
      </trkpt>
      <trkpt lat="44.09267" lon="5.99671">
        <ele>557.79998779297</ele>
        <time>2022-01-18T19:30:06.292Z</time>
      </trkpt>
      <trkpt lat="44.09282" lon="5.99701">
        <ele>557.79998779297</ele>
        <time>2022-01-18T19:30:15.981Z</time>
      </trkpt>
      <trkpt lat="44.09287" lon="5.99701">
        <ele>553.79998779297</ele>
        <time>2022-01-18T19:30:25.671Z</time>
      </trkpt>
      <trkpt lat="44.09305" lon="5.99707">
        <ele>553.79998779297</ele>
        <time>2022-01-18T19:30:35.368Z</time>
      </trkpt>
      <trkpt lat="44.09313" lon="5.99716">
        <ele>552</ele>
        <time>2022-01-18T19:30:45.068Z</time>
      </trkpt>
      <trkpt lat="44.09313" lon="5.99736">
        <ele>552</ele>
        <time>2022-01-18T19:30:54.773Z</time>
      </trkpt>
      <trkpt lat="44.09317" lon="5.9974">
        <ele>550</ele>
        <time>2022-01-18T19:31:04.480Z</time>
      </trkpt>
      <trkpt lat="44.09332" lon="5.99731">
        <ele>550</ele>
        <time>2022-01-18T19:31:14.193Z</time>
      </trkpt>
      <trkpt lat="44.09333" lon="5.99743">
        <ele>546.59997558594</ele>
        <time>2022-01-18T19:31:23.909Z</time>
      </trkpt>
      <trkpt lat="44.09344" lon="5.99751">
        <ele>544.79998779297</ele>
        <time>2022-01-18T19:31:33.629Z</time>
      </trkpt>
      <trkpt lat="44.09372" lon="5.9978">
        <ele>544.79998779297</ele>
        <time>2022-01-18T19:31:43.361Z</time>
      </trkpt>
      <trkpt lat="44.09376" lon="5.99814">
        <ele>544.79998779297</ele>
        <time>2022-01-18T19:31:53.102Z</time>
      </trkpt>
      <trkpt lat="44.09385" lon="5.99827">
        <ele>541</ele>
        <time>2022-01-18T19:32:02.847Z</time>
      </trkpt>
      <trkpt lat="44.09397" lon="5.99841">
        <ele>539.59997558594</ele>
        <time>2022-01-18T19:32:12.598Z</time>
      </trkpt>
      <trkpt lat="44.09403" lon="5.99855">
        <ele>539.59997558594</ele>
        <time>2022-01-18T19:32:22.353Z</time>
      </trkpt>
      <trkpt lat="44.09405" lon="5.99886">
        <ele>535.20001220703</ele>
        <time>2022-01-18T19:32:32.116Z</time>
      </trkpt>
      <trkpt lat="44.0941" lon="5.99909">
        <ele>535.20001220703</ele>
        <time>2022-01-18T19:32:41.885Z</time>
      </trkpt>
      <trkpt lat="44.09416" lon="5.9992">
        <ele>535.20001220703</ele>
        <time>2022-01-18T19:32:51.657Z</time>
      </trkpt>
      <trkpt lat="44.09419" lon="5.99922">
        <ele>531.59997558594</ele>
        <time>2022-01-18T19:33:01.431Z</time>
      </trkpt>
      <trkpt lat="44.09439" lon="5.99926">
        <ele>531.59997558594</ele>
        <time>2022-01-18T19:33:11.212Z</time>
      </trkpt>
      <trkpt lat="44.0947" lon="5.99939">
        <ele>525</ele>
        <time>2022-01-18T19:33:21.004Z</time>
      </trkpt>
      <trkpt lat="44.09508" lon="5.99963">
        <ele>525</ele>
        <time>2022-01-18T19:33:30.810Z</time>
      </trkpt>
      <trkpt lat="44.09528" lon="5.9997">
        <ele>515.59997558594</ele>
        <time>2022-01-18T19:33:40.624Z</time>
      </trkpt>
      <trkpt lat="44.09538" lon="5.99973">
        <ele>514.40002441406</ele>
        <time>2022-01-18T19:33:50.441Z</time>
      </trkpt>
      <trkpt lat="44.09538" lon="5.99972">
        <ele>514.20001220703</ele>
        <time>2022-01-18T19:34:00.258Z</time>
      </trkpt>
    </trkseg>
  </trk>
</gpx>